[[{"header":{"parameterUnit":"m.s-1","parameterCategory":1,"la1":31.0,"la2":29.5877,"lo1":-88.7671,"lo2":-86.6584,"dy":0.0162,"dx":0.0185,"nx":115,"ny":88,"refTime":"2024-05-16T06:00:00:Z","depth":0,"parameterNumber":2,"parameterNumberName":"U-component_of_WINDS"},"data":[0.0,0.0,0.0,0.0,0.0,0.0,0.0,0.0,0.0,0.0,0.0,0.0,0.0,0.0,0.0,0.0,0.0,0.0,0.0,0.0,0.0,0.0,0.0,0.0,0.0,0.0,0.0,0.0,0.0,0.0,0.0,0.0,0.0,0.0,0.0,0.0,0.0,0.0,0.0,0.0,0.0,0.0,0.0,0.0,0.0,0.0,0.0,0.0,0.0,0.0,0.0,0.0,0.0,0.0,0.0,0.0,0.0,0.0,0.0,0.0,0.0,0.0,0.0,0.0,0.0,0.0,0.0,0.0,0.0,0.0,0.0,0.0,0.0,0.0,0.0,0.0,0.0,0.0,0.0,0.0,0.0,0.0,0.0,0.0,0.0,0.0,0.0,0.0,0.0,0.0,0.0,0.0,0.0,0.0,0.0,0.0,0.0,0.0,0.0,0.0,0.0,0.0,0.0,0.0,0.0,0.0,0.0,0.0,0.0,0.0,0.0,0.0,0.0,0.0,0.0,0.0,0.0,0.0,0.0,0.0,0.0,0.0,0.0,0.0,0.0,0.0,0.0,0.0,0.0,0.0,0.0,0.0,0.0,0.0,0.0,0.0,0.0,0.0,0.0,0.0,0.0,0.0,0.0,0.0,0.0,0.0,0.0,0.0,0.0,0.0,0.0,0.0,0.0,0.0,0.0,0.0,0.0,0.0,0.0,0.0,0.0,0.0,0.0,0.0,0.0,0.0,0.0,0.0,0.0,0.0,0.0,0.0,0.0,0.0,0.0,0.0,0.0,0.0,0.0,0.0,0.0,0.0,0.0,0.0,0.0,0.0,0.0,0.0,0.0,0.0,0.0,0.0,0.0,0.0,0.0,0.0,0.0,0.0,0.0,0.0,0.0,0.0,0.0,0.0,0.0,0.0,0.0,0.0,0.0,0.0,0.0,0.0,0.0,0.0,0.0,0.0,0.0,0.0,0.0,0.0,0.0,0.0,0.0,0.0,0.0,0.0,0.0,0.0,0.0,0.0,0.0,0.0,0.0,0.0,0.0,0.0,0.0,0.0,0.0,0.0,0.0,0.0,0.0,0.0,0.0,0.0,0.0,0.0,0.0,0.0,0.0,0.0,0.0,0.0,0.0,0.0,0.0,0.0,0.0,0.0,0.0,0.0,0.0,0.0,0.0,0.0,0.0,0.0,0.0,0.0,0.0,0.0,0.0,0.0,0.0,0.0,0.0,0.0,0.0,0.0,0.0,0.0,0.0,0.0,0.0,0.0,0.0,0.0,0.0,0.0,0.0,0.0,0.0,0.0,0.0,0.0,0.0,0.0,0.0,0.0,0.0,0.0,0.0,0.0,0.0,0.0,0.0,0.0,0.0,0.0,0.0,0.0,0.0,0.0,0.0,0.0,0.0,0.0,0.0,0.0,0.0,0.0,0.0,0.0,0.0,0.0,0.0,0.0,0.0,0.0,0.0,0.0,0.0,0.0,0.0,0.0,0.0,0.0,0.0,0.0,0.0,0.0,0.0,0.0,0.0,0.0,0.0,0.0,0.0,0.0,0.0,0.0,0.0,0.0,0.0,0.0,0.0,0.0,0.0,0.0,0.0,0.0,0.0,0.0,0.0,0.0,0.0,0.0,0.0,0.0,0.0,0.0,0.0,0.0,0.0,0.0,0.0,0.0,0.0,0.0,0.0,0.0,0.0,0.0,0.0,0.0,0.0,0.0,0.0,0.0,0.0,0.0,0.0,0.0,0.0,0.0,0.0,0.0,0.0,0.0,0.0,0.0,0.0,0.0,0.0,0.0,0.0,0.0,0.0,0.0,0.0,0.0,0.0,0.0,0.0,0.0,0.0,0.0,0.0,0.0,0.0,0.0,0.0,0.0,0.0,0.0,0.0,0.0,0.0,0.0,0.0,0.0,0.0,0.0,0.0,0.0,0.0,0.0,0.0,0.0,0.0,0.0,0.0,0.0,0.0,0.0,0.0,0.0,0.0,0.0,0.0,0.0,0.0,0.0,0.0,0.0,0.0,0.0,0.0,0.0,0.0,0.0,0.0,0.0,0.0,0.0,0.0,0.0,0.0,0.0,0.0,0.0,0.0,0.0,0.0,0.0,0.0,0.0,0.0,0.0,0.0,0.0,0.0,0.0,0.0,0.0,0.0,0.0,0.0,0.0,0.0,0.0,0.0,0.0,0.0,0.0,0.0,0.0,0.0,0.0,0.0,0.0,0.0,0.0,0.0,0.0,0.0,0.0,0.0,0.0,0.0,0.0,0.0,0.0,0.0,0.0,0.0,0.0,0.0,0.0,0.0,0.0,0.0,0.0,0.0,0.0,0.0,0.0,0.0,0.0,0.0,0.0,0.0,0.0,0.0,0.0,0.0,0.0,0.0,0.0,0.0,0.0,0.0,0.0,0.0,0.0,0.0,0.0,0.0,0.0,0.0,0.0,0.0,0.0,0.0,0.0,0.0,0.0,0.0,0.0,0.0,0.0,0.0,0.0,0.0,0.0,0.0,0.0,0.0,0.0,0.0,0.0,0.0,0.0,0.0,0.0,0.0,0.0,0.0,0.0,0.0,0.0,0.0,0.0,0.0,0.0,0.0,0.0,0.0,0.0,0.0,0.0,0.0,0.0,0.0,0.0,0.0,0.0,0.0,0.0,0.0,0.0,0.0,0.0,0.0,0.0,0.0,0.0,0.0,0.0,0.0,0.0,0.0,0.0,0.0,0.0,0.0,0.0,0.0,0.0,0.0,0.0,0.0,0.0,0.0,0.0,0.0,0.0,0.0,0.0,0.0,0.0,0.0,0.0,0.0,0.0,0.0,0.0,0.0,0.0,0.0,0.0,0.0,0.0,0.0,0.0,0.0,0.0,0.0,0.0,0.0,0.0,0.0,0.0,0.0,0.0,0.0,0.0,0.0,0.0,0.0,0.0,0.0,0.0,0.0,0.0,0.0,0.0,0.0,0.0,0.0,0.0,0.0,0.0,0.0,0.0,0.0,0.0,0.0,0.0,0.0,0.0,0.0,0.0,0.0,0.0,0.0,0.0,0.0,0.0,0.0,0.0,0.0,0.0,0.0,0.0,0.0,0.0,0.0,0.0,0.0,0.0,0.0,0.0,0.0,0.0,0.0,0.0,0.0,0.0,0.0,0.0,0.0,0.0,0.0,0.0,0.0,0.0,0.0,0.0,0.0,0.0,0.0,0.0,0.0,0.0,0.0,0.0,0.0,0.0,0.0,0.0,0.0,0.0,0.0,0.0,0.0,0.0,0.0,0.0,0.0,0.0,0.0,0.0,0.0,0.0,0.0,0.0,0.0,0.0,0.0,0.0,0.0,0.0,0.0,0.0,0.0,0.0,0.0,0.0,0.0,0.0,0.0,0.0,0.0,0.0,0.0,0.0,0.0,0.0,0.0,0.0,0.0,0.0,0.0,0.0,0.0,0.0,0.0,0.0,0.0,0.0,0.0,0.0,0.0,0.0,0.0,0.0,0.0,0.0,0.0,0.0,0.0,0.0,0.0,0.0,0.0,0.0,0.0,0.0,0.0,0.0,0.0,0.0,0.0,0.0,0.0,0.0,0.0,0.0,0.0,0.0,0.0,0.0,0.0,0.0,0.0,0.0,0.0,0.0,0.0,0.0,0.0,0.0,0.0,0.0,0.0,0.0,0.0,0.0,0.0,0.0,0.0,0.0,0.0,0.0,0.0,0.0,0.0,0.0,0.0,0.0,0.0,0.0,0.0,0.0,0.0,0.0,0.0,0.0,0.0,0.0,0.0,0.0,0.0,0.0,0.0,0.0,0.0,0.0,0.0,0.0,0.0,0.0,0.0,0.0,0.0,0.0,0.0,0.0,0.0,0.0,0.0,0.0,0.0,0.0,0.0,0.0,0.0,0.0,0.0,0.0,0.0,0.0,0.0,0.0,0.0,0.0,0.0,0.0,0.0,0.0,0.0,0.0,0.0,0.0,0.0,0.0,0.0,0.0,0.0,0.0,0.0,0.0,0.0,0.0,0.0,0.0,0.0,0.0,0.0,0.0,0.0,0.0,0.0,0.0,0.0,0.0,0.0,0.0,0.0,0.0,0.0,0.0,0.0,0.0,0.0,0.0,0.0,0.0,0.0,0.0,0.0,0.0,0.0,0.0,0.0,0.0,0.0,0.0,0.0,0.0,0.0,0.0,0.0,0.0,0.0,0.0,0.0,0.0,0.0,0.0,0.0,0.0,0.0,0.0,0.0,0.0,0.0,0.0,0.0,0.0,0.0,0.0,0.0,0.0,1.1664,0.0,0.0,0.0,0.0,0.0,0.0,0.0,0.0,0.0,0.0,0.0,0.0,0.0,0.0,0.0,0.0,0.0,0.0,0.0,0.0,0.0,0.0,0.0,0.0,0.0,0.0,0.0,0.0,0.0,0.0,0.0,0.0,0.0,0.0,0.0,0.0,0.0,0.0,0.0,0.0,0.0,0.0,0.0,0.0,0.0,0.0,0.0,0.0,0.0,0.0,0.0,0.0,0.0,0.0,0.0,0.0,0.0,0.0,0.0,0.0,0.0,0.0,0.0,0.0,0.0,0.0,0.0,0.0,0.0,0.0,0.0,0.0,0.0,0.0,0.0,0.0,0.0,0.0,0.0,0.0,0.0,0.0,0.0,0.0,0.0,0.0,0.0,0.0,0.0,0.0,0.0,0.0,0.0,0.0,0.0,0.0,0.0,0.0,0.0,0.0,0.0,0.0,0.0,0.0,0.0,0.0,0.0,0.0,0.0,0.0,1.3124,1.2774,1.3221,1.3112,1.2364,0.0,0.0,0.0,0.0,0.0,0.0,0.0,0.0,0.0,0.0,0.0,0.0,0.0,0.0,0.0,0.0,0.0,0.0,0.0,0.0,0.0,0.0,0.0,0.0,0.0,0.0,0.0,0.0,0.0,0.0,0.0,0.0,0.0,0.0,0.0,0.0,0.0,0.0,0.0,0.0,0.0,0.0,0.0,0.0,0.0,0.0,0.0,0.0,0.0,0.0,0.0,0.0,0.0,0.0,0.0,0.0,0.0,0.0,0.0,0.0,0.0,0.0,0.0,0.0,0.0,0.0,0.0,0.0,0.0,0.0,0.0,0.0,0.0,0.0,0.0,0.0,0.0,0.0,0.0,0.0,0.0,0.0,0.0,0.0,0.0,0.0,0.0,0.0,0.0,0.0,0.0,0.0,0.0,0.0,0.0,0.0,0.0,0.0,0.0,0.0,0.0,0.0,0.0,0.0,0.0,0.0,0.0,0.0,0.0,0.0,0.0,0.0,1.3748,1.3386,1.2503,0.0,0.0,0.0,0.0,0.0,0.0,0.0,0.0,0.0,0.0,0.0,0.0,0.0,0.0,0.0,0.0,0.0,0.0,0.0,0.0,0.0,0.0,0.0,0.0,0.0,0.0,0.0,0.0,0.0,0.0,0.0,0.0,0.0,0.0,0.0,0.0,0.0,0.0,0.0,0.0,0.0,0.0,0.0,0.0,0.0,0.0,0.0,0.0,0.0,0.0,0.0,0.0,0.0,0.0,0.0,0.0,0.0,0.0,0.0,0.0,0.0,0.0,0.0,0.0,0.0,0.0,0.0,0.0,0.0,0.0,0.0,0.0,0.0,0.0,0.0,0.0,0.0,0.0,0.0,0.0,0.0,0.0,0.0,0.0,0.0,0.0,0.0,0.0,0.0,0.0,0.0,0.0,0.0,0.0,0.0,0.0,0.0,0.0,0.0,0.0,0.0,0.0,0.0,0.0,0.0,0.0,0.0,0.0,0.0,0.0,1.3345,1.3345,1.3477,0.0,1.1634,0.0,0.0,0.0,0.0,0.0,0.0,0.0,0.0,0.0,0.0,0.0,0.0,0.0,0.0,0.0,0.0,0.0,0.0,0.0,0.0,0.0,0.0,0.0,0.0,0.0,0.0,0.0,0.0,0.0,0.0,0.0,0.0,0.0,0.0,0.0,0.0,0.0,0.0,0.0,0.0,0.0,0.0,0.0,0.0,0.0,0.0,0.0,0.0,0.0,0.0,0.0,0.0,0.0,0.0,0.0,0.0,0.0,0.0,0.0,0.0,0.0,0.0,0.0,0.0,0.0,0.0,0.0,0.0,0.0,0.0,0.0,0.0,0.0,0.0,0.0,0.0,0.0,0.0,0.0,0.0,0.0,0.0,0.0,0.0,0.0,0.0,0.0,0.0,0.0,0.0,0.0,0.0,0.0,0.0,0.0,0.0,0.0,0.0,0.0,0.0,0.0,0.0,0.0,0.0,0.0,0.0,0.0,0.0,0.0,0.0,0.0,1.3122,1.3227,1.2634,0.0,0.0,0.0,0.0,0.0,0.0,0.0,0.0,0.0,0.0,0.0,0.0,0.0,0.0,0.0,0.0,0.0,0.0,0.0,0.0,0.0,0.0,0.0,0.0,0.0,0.0,0.0,0.0,0.0,0.0,0.0,0.0,0.0,0.0,0.0,0.0,0.0,0.0,0.0,0.0,0.0,0.0,0.0,0.0,0.0,0.0,0.0,0.0,0.0,0.0,0.0,0.0,0.0,0.0,0.0,0.0,0.0,0.0,0.0,0.0,0.0,0.0,0.0,0.0,0.0,0.0,0.0,0.0,0.0,0.0,0.0,0.0,0.0,0.0,0.0,0.0,0.0,0.0,0.0,0.0,0.0,0.0,0.0,0.0,0.0,0.0,0.0,0.0,0.0,0.0,0.0,0.0,0.0,0.0,0.0,0.0,0.0,0.0,0.0,0.0,0.0,0.0,0.0,0.0,0.0,0.0,0.0,0.0,0.0,0.0,1.2757,0.0,1.285,1.298,1.2339,1.0917,0.0,0.0,0.0,0.0,0.0,0.0,0.0,0.0,0.0,0.0,0.0,0.0,0.0,0.0,0.0,0.0,0.0,0.0,0.0,0.0,0.0,0.0,0.0,0.0,0.0,0.0,0.0,0.0,0.0,0.0,0.0,0.0,0.0,0.0,0.0,0.0,0.0,0.0,0.0,0.0,0.0,0.0,0.0,0.0,0.0,0.0,0.0,0.0,0.0,0.0,0.0,0.0,0.0,0.0,0.0,0.0,0.0,0.0,0.0,0.0,0.0,0.0,0.0,0.0,0.0,0.0,0.0,0.0,0.0,0.0,0.0,0.0,0.0,0.0,0.0,0.0,0.0,0.0,0.0,0.0,0.0,0.0,0.0,0.0,0.0,0.0,0.0,0.0,0.0,0.0,0.0,0.0,0.0,0.0,0.0,0.0,0.0,0.0,0.0,0.0,0.0,0.0,0.0,0.0,0.0,0.0,0.0,0.0,0.0,1.2403,1.2443,1.2526,1.2607,1.1953,0.0,0.0,0.0,0.0,0.0,0.0,0.0,0.0,0.0,0.0,0.0,0.0,0.0,0.0,0.0,0.0,0.0,0.0,0.0,0.0,0.0,0.0,0.0,0.0,0.0,0.0,0.0,0.0,0.0,0.0,0.0,0.0,0.0,0.0,0.0,0.0,0.0,0.0,0.0,0.0,0.0,0.0,0.0,0.0,0.0,0.0,0.0,0.0,0.0,0.0,0.0,0.0,0.0,0.0,0.0,0.0,0.0,0.0,0.0,0.0,0.0,0.0,0.0,0.0,0.0,0.0,0.0,0.0,0.0,0.0,0.0,0.0,0.0,0.0,0.0,0.0,0.0,0.0,0.0,0.0,0.0,0.0,0.0,0.0,0.0,0.0,0.0,0.0,0.0,0.0,0.0,0.0,0.0,0.0,0.0,0.0,0.0,0.0,0.0,0.0,0.0,0.0,0.0,0.0,0.0,0.0,0.0,0.0,0.0,1.1997,1.1997,1.2018,1.2045,1.2107,1.1717,0.0,0.0,0.0,0.0,0.0,0.0,0.0,0.0,0.0,0.0,0.0,0.0,0.0,0.0,0.0,0.0,0.0,0.0,0.0,0.0,0.0,0.0,0.0,0.0,0.0,0.0,0.0,0.0,0.0,0.0,0.0,0.0,0.0,0.0,0.0,0.0,0.0,0.0,0.0,0.0,0.0,0.0,0.0,0.0,0.0,0.0,0.0,0.0,0.0,0.0,0.0,0.0,0.0,0.0,0.0,0.0,0.0,0.0,0.0,0.0,0.0,0.0,0.0,0.0,0.0,0.0,0.0,0.0,0.0,0.0,0.0,0.0,0.0,0.0,0.0,0.0,0.0,0.0,0.0,0.0,0.0,0.0,0.0,0.0,0.0,0.0,0.0,0.0,0.0,0.0,0.0,0.0,0.0,0.0,0.0,0.0,0.0,0.0,0.0,0.0,0.0,0.0,0.0,0.0,0.0,0.0,0.0,0.0,0.0,1.1527,0.0,1.1527,0.0,1.1608,1.1342,0.0,0.0,0.0,0.0,0.0,0.0,0.0,0.0,0.0,0.0,0.0,0.0,0.0,0.0,0.0,0.0,0.0,0.0,0.0,0.0,0.0,0.0,0.0,0.0,0.0,0.0,0.0,0.0,0.0,0.0,0.0,0.0,0.0,0.0,0.0,0.0,0.0,0.0,0.0,0.0,0.0,0.0,0.0,0.0,0.0,0.0,0.0,0.0,0.0,0.0,0.0,0.0,0.0,0.0,0.0,0.0,0.0,0.0,0.0,0.0,0.0,0.0,0.0,0.0,0.0,0.0,0.0,0.0,0.0,0.0,0.0,0.0,0.0,0.0,0.0,0.0,0.0,0.0,0.0,0.0,0.0,0.0,0.0,0.0,0.0,0.0,0.0,0.0,0.0,0.0,0.0,0.0,0.0,0.0,0.0,0.0,0.0,0.0,0.0,0.0,0.0,0.0,0.0,0.0,0.0,0.0,0.0,0.0,1.1123,1.1005,1.1033,1.1051,1.1019,1.108,1.0781,0.0,0.0,0.0,0.0,0.0,0.0,0.0,0.0,0.0,0.0,0.0,0.0,0.0,0.0,0.0,0.0,0.0,0.0,0.0,0.0,0.0,0.0,0.0,0.0,0.0,0.0,0.0,0.0,0.0,0.0,0.0,0.0,0.0,0.0,0.0,0.0,0.0,0.0,0.0,0.0,0.0,0.0,0.0,0.0,0.0,0.0,0.0,0.0,0.0,0.0,0.0,0.0,0.0,0.0,0.0,0.0,0.0,0.0,0.0,0.0,0.0,0.0,0.0,0.0,0.0,0.0,0.0,0.0,0.0,0.0,0.0,0.0,0.0,0.0,0.0,0.0,0.0,0.0,0.0,0.0,0.0,0.0,0.0,0.0,0.0,0.0,0.0,0.0,0.0,0.0,0.0,0.0,0.0,0.0,0.0,0.0,0.0,0.0,0.0,0.0,0.0,0.0,0.0,0.0,0.0,0.0,0.0,0.0,0.0,1.0794,1.106,1.1045,1.0741,1.0781,1.0586,0.0,0.0,0.0,0.0,0.0,0.0,0.0,0.0,0.0,0.0,0.0,0.0,0.0,0.0,0.0,0.0,0.0,0.0,0.0,0.0,0.0,0.0,0.0,0.0,0.0,0.0,0.0,0.0,0.0,0.0,0.0,0.0,0.0,0.0,0.0,0.0,0.0,0.0,0.0,0.0,0.0,0.0,0.0,0.0,0.0,0.0,0.0,0.0,0.0,0.0,0.0,0.0,0.0,0.0,0.0,0.0,0.0,0.0,0.0,0.0,0.0,0.0,0.0,0.0,0.0,0.0,0.0,0.0,0.0,0.0,0.0,0.0,0.0,0.0,0.0,0.0,0.0,0.0,0.0,0.0,0.0,0.0,0.0,0.0,0.0,0.0,0.0,0.0,0.0,0.0,0.0,0.0,0.0,0.0,0.0,0.0,0.0,0.0,0.0,0.0,0.0,0.0,0.0,0.0,0.0,0.0,0.0,0.0,0.0,1.0046,1.0486,1.0572,1.0273,1.019,1.0065,0.9863,0.0,0.0,0.0,0.0,0.0,0.0,0.0,0.0,0.0,0.0,0.0,0.0,0.0,0.0,0.0,0.0,0.0,0.0,0.0,0.0,0.0,0.0,0.0,0.0,0.0,0.0,0.0,0.0,0.0,0.0,0.0,0.0,0.0,0.0,0.0,0.0,0.0,0.0,0.0,0.0,0.0,0.0,0.0,0.0,0.0,0.0,0.0,0.0,0.0,0.0,0.0,0.0,0.0,0.0,0.0,0.0,0.0,0.0,0.0,0.0,0.0,0.0,0.0,0.0,0.0,0.0,0.0,0.0,0.0,0.0,0.0,0.0,0.0,0.0,0.0,0.0,0.0,0.0,0.0,0.0,0.0,0.0,0.0,0.0,0.0,0.0,0.0,0.0,0.0,0.0,0.0,0.0,0.0,0.0,0.0,0.0,0.0,0.0,0.0,0.0,0.0,0.0,0.0,0.0,0.0,0.0,0.0,0.0,0.8866,0.9328,0.9599,0.9634,0.9318,0.9245,0.0,0.0,0.0,0.0,0.0,0.0,0.0,0.0,0.0,0.0,0.0,0.0,0.0,0.0,0.0,0.0,0.0,0.0,0.0,0.0,0.0,0.0,0.0,0.0,0.0,0.0,0.0,0.0,0.0,0.0,0.0,0.0,0.0,0.0,0.0,0.0,0.0,0.0,0.0,0.0,0.0,0.0,0.0,0.0,0.0,0.0,0.0,0.0,0.0,0.0,0.0,0.0,0.0,0.0,0.0,0.0,0.0,0.0,0.0,0.0,0.0,0.0,0.0,0.0,0.0,0.0,0.0,0.0,0.0,0.0,0.0,0.0,0.0,0.0,0.0,0.0,0.0,0.0,0.0,0.0,0.0,0.0,0.0,0.0,0.0,0.0,0.0,0.0,0.0,0.0,0.0,0.0,0.0,0.0,0.0,0.0,0.0,0.0,0.0,0.0,0.0,0.0,0.0,0.0,0.0,0.0,0.0,0.0,0.0,0.7532,0.7905,0.8375,0.8912,0.8668,0.8473,0.0,0.0,0.0,0.0,0.0,0.0,0.0,0.0,0.0,0.0,0.0,0.0,0.0,0.0,0.0,0.0,0.0,0.0,0.0,0.0,0.0,0.0,0.0,0.0,0.0,0.0,0.0,0.0,0.0,0.0,0.0,0.0,0.0,0.0,0.0,0.0,0.0,0.0,0.0,0.0,0.0,0.0,0.0,0.0,0.0,0.0,0.0,0.0,0.0,0.0,0.0,0.0,0.0,0.0,0.0,0.0,0.0,0.0,0.0,0.0,0.0,0.0,0.0,0.0,0.0,0.0,0.0,0.0,0.0,0.0,0.0,0.0,0.0,0.0,0.0,0.0,0.0,0.0,0.0,0.0,0.0,0.0,0.0,0.0,0.0,0.0,0.0,0.0,0.0,0.0,0.0,0.0,0.0,0.0,0.0,0.0,0.0,0.0,0.0,0.0,0.0,0.0,0.0,0.0,0.0,0.0,0.0,0.0,0.644,0.6471,0.6617,0.6907,0.736,0.7621,0.7682,0.0,0.0,0.0,0.0,0.0,0.0,0.0,0.0,0.0,0.0,0.0,0.0,0.0,0.0,0.0,0.0,0.0,0.0,0.0,0.0,0.0,0.0,0.0,0.0,0.0,0.0,0.0,0.0,0.0,0.0,0.0,0.0,0.0,0.0,0.0,0.0,0.0,0.0,0.0,0.0,0.0,0.0,0.0,0.0,0.0,0.0,0.0,0.0,0.0,0.0,0.0,0.0,0.0,0.0,0.0,0.0,0.0,0.0,0.0,0.0,0.0,0.0,0.0,0.0,0.0,0.0,0.0,0.0,0.0,0.0,0.0,0.0,0.0,0.0,0.0,0.0,0.0,0.0,0.0,0.0,0.0,0.0,0.0,0.0,0.0,0.0,0.0,0.0,0.0,0.0,0.0,0.0,0.0,0.0,0.0,0.0,0.0,0.0,0.0,0.0,0.0,0.0,0.0,0.0,0.0,0.0,0.0,0.0,0.5466,0.5626,0.5513,0.5427,0.5465,0.6309,0.6817,0.0,0.0,0.0,0.0,0.0,0.0,0.0,0.0,0.0,0.0,0.0,0.0,0.0,0.0,0.0,0.0,0.0,0.0,0.0,0.0,0.0,0.0,0.0,0.0,0.0,0.0,0.0,0.0,0.0,0.0,0.0,0.0,0.0,0.0,0.0,0.0,0.0,0.0,0.0,0.0,0.0,0.0,0.0,0.0,0.0,0.0,0.0,0.0,0.0,0.0,0.0,0.0,0.0,0.0,0.0,0.0,0.0,0.0,0.0,0.0,0.0,0.0,0.0,0.0,0.0,0.0,0.0,0.0,0.0,0.0,0.0,0.0,0.0,0.0,0.0,0.0,0.0,0.0,0.0,0.0,0.0,0.0,0.0,0.0,0.0,0.0,0.0,0.0,0.0,0.0,0.0,0.0,0.0,0.0,0.0,0.0,0.0,0.0,0.0,0.0,0.0,0.0,0.0,0.0,0.0,0.0,0.0,0.0,0.4532,0.447,0.4434,0.4347,0.4252,0.5122,0.5656,0.0,0.0,0.0,0.0,0.0,0.0,0.0,0.0,0.0,0.0,0.0,0.0,0.0,0.0,0.0,0.0,0.0,0.0,0.0,0.0,0.0,0.0,0.0,0.0,0.0,0.0,0.0,0.0,0.0,0.0,0.0,0.0,0.0,0.0,0.0,0.0,0.0,0.0,0.0,0.0,0.0,0.0,0.0,0.0,0.0,0.0,0.0,0.0,0.9029,0.0,0.0,0.0,0.0,0.0,0.0,0.0,0.0,0.0,0.0,0.0,0.0,0.0,0.0,0.0,0.0,0.0,0.0,0.0,0.0,0.0,0.0,0.0,0.0,0.0,0.0,0.0,0.0,0.0,0.0,0.0,0.0,0.0,0.0,0.0,0.0,0.0,0.0,0.0,0.0,0.0,0.0,0.0,0.0,0.0,0.0,0.0,0.0,0.0,0.0,0.0,0.0,0.0,0.0,0.0,0.0,0.0,0.0,0.0,0.3574,0.3426,0.3432,0.3388,0.3341,0.3867,0.4319,0.0,0.0,0.0,0.0,0.0,0.0,0.0,0.0,0.0,0.0,0.0,0.0,0.0,0.0,0.0,0.0,0.0,0.0,0.0,0.0,0.0,0.0,0.0,0.0,0.0,0.0,0.0,0.0,0.0,0.0,0.0,0.0,0.0,0.0,0.0,0.0,0.0,0.0,0.0,0.0,0.0,0.0,0.0,0.0,0.0,0.0,0.0,0.0,0.0,0.0,0.0,0.0,0.0,0.0,0.0,0.0,0.0,0.0,0.0,0.0,0.0,0.0,0.0,0.0,0.0,0.0,0.0,0.0,0.0,0.0,0.0,0.0,0.0,0.0,0.0,0.0,0.0,0.0,0.0,0.0,0.0,0.0,0.0,0.0,0.0,0.0,0.0,0.0,0.0,0.0,0.0,0.0,0.0,0.0,0.0,0.0,0.0,0.0,0.0,0.0,0.0,0.0,0.0,0.0,0.0,0.0,0.0,0.2838,0.2711,0.2546,0.2551,0.2551,0.2551,0.2679,0.3037,0.3671,0.0,0.0,0.0,0.0,0.0,0.0,0.0,0.0,0.0,0.0,0.0,0.0,0.0,0.0,0.0,0.0,0.0,0.0,0.0,0.0,0.0,0.0,0.0,0.0,0.0,0.0,0.0,0.0,0.0,0.0,0.0,0.0,0.0,0.0,0.0,0.0,0.0,0.0,0.8755,1.0165,0.0,0.0,0.0,0.0,0.0,0.0,0.0,0.0,1.1058,0.0,0.0,0.0,0.0,0.0,0.0,0.0,0.0,0.0,0.0,0.0,0.0,0.0,0.0,0.0,0.0,0.0,0.0,0.0,0.0,0.0,0.0,0.0,0.0,0.0,0.0,0.0,0.0,0.0,0.0,0.0,0.0,0.0,0.0,0.0,0.0,0.0,0.0,0.0,0.0,0.0,0.0,0.0,0.0,0.0,0.0,0.0,0.0,0.0,0.0,0.0,0.0,0.0,0.0,0.0,0.0,0.2423,0.2291,0.2131,0.1969,0.1837,0.1792,0.1791,0.1927,0.2064,0.2327,0.0,0.0,0.0,0.0,0.0,0.0,0.0,0.0,0.0,0.0,0.0,0.0,0.0,0.0,0.0,0.0,0.0,0.0,0.0,0.0,0.0,0.0,0.0,0.0,0.0,0.0,0.0,0.0,0.0,0.0,0.0,0.0,0.0,0.0,0.0,0.0,0.0,0.0,0.0,1.0949,1.1853,0.0,0.0,0.0,0.0,0.0,0.0,0.0,0.0,1.1081,0.0,0.0,0.0,0.0,0.0,0.0,0.0,0.0,0.0,0.0,0.0,0.0,0.0,0.0,0.0,0.0,0.0,0.0,0.0,0.0,0.0,0.0,0.0,0.0,0.0,0.0,0.0,0.0,0.0,0.0,0.0,0.0,0.0,0.0,0.0,0.0,0.0,0.0,0.0,0.0,0.0,0.0,0.0,0.0,0.0,0.0,0.0,0.0,0.0,0.0,0.0,0.0,0.0,0.0,0.0,0.1806,0.1712,0.1611,0.1479,0.1389,0.1344,0.1299,0.1435,0.1549,0.0,0.0,0.0,0.0,0.0,0.0,0.0,0.0,0.0,0.0,0.0,0.0,0.0,0.0,0.0,0.0,0.0,0.0,0.0,0.0,0.0,0.0,0.0,0.0,0.0,0.0,0.0,0.0,0.0,0.0,0.0,0.0,0.0,0.0,0.0,0.0,0.0,0.0,0.0,0.0,1.1341,1.2124,1.2462,0.0,0.0,0.0,0.0,0.0,0.0,1.1258,1.1055,0.0,0.0,0.0,0.0,0.0,0.0,0.0,0.0,0.0,0.0,0.0,0.0,0.0,0.0,0.0,0.0,0.0,0.0,0.0,0.0,0.0,0.0,0.0,0.0,0.0,0.0,0.0,0.0,0.0,0.0,0.0,0.0,0.0,0.0,0.0,0.0,0.0,0.0,0.0,0.0,0.0,0.0,0.0,0.0,0.0,0.0,0.0,0.0,0.0,0.0,0.0,0.0,0.0,0.0,0.0,0.1297,0.1245,0.121,0.1165,0.1031,0.0941,0.0941,0.1075,0.1205,0.0,0.0,0.0,0.0,0.0,0.0,0.0,0.0,0.0,0.0,0.0,0.0,0.0,0.0,0.0,0.0,0.0,0.0,0.0,0.0,0.0,0.0,0.0,0.0,0.0,0.0,0.0,0.0,0.0,0.0,0.0,0.0,0.0,0.0,0.0,0.0,0.0,0.0,0.0,0.0,0.0,1.2481,1.2826,1.3135,0.0,0.0,0.0,0.0,1.1622,1.1358,0.0,0.0,0.0,0.0,0.0,0.0,0.0,0.0,0.0,0.0,0.0,0.0,0.0,0.0,0.0,0.0,0.0,0.0,0.0,0.0,0.0,0.0,0.0,0.0,0.0,0.0,0.0,0.0,0.0,0.0,0.0,0.0,0.0,0.0,0.0,0.0,0.0,0.0,0.0,0.0,0.0,0.0,0.0,0.0,0.0,0.0,0.0,0.0,0.0,0.0,0.0,0.0,0.0,0.0,0.0,0.0,0.1183,0.1118,0.1079,0.1079,0.0674,0.0584,0.0719,0.0764,0.0777,0.0,0.0,0.0,0.0,0.0,0.0,0.0,0.0,0.0,0.0,0.0,0.0,0.0,0.0,0.0,0.0,0.0,0.0,0.0,0.0,0.0,0.0,0.0,0.0,0.0,0.0,0.0,0.0,0.0,0.0,0.0,0.0,0.0,0.0,0.0,0.0,0.0,0.0,0.0,0.0,0.0,1.3263,1.3483,1.3672,1.3666,0.0,0.0,1.2776,1.235,1.1908,0.0,0.0,0.0,0.0,0.0,0.0,0.0,0.0,0.0,0.0,0.0,0.0,0.0,0.0,0.0,0.0,0.0,0.0,0.0,0.0,0.0,0.0,0.0,0.0,0.0,0.0,0.0,0.0,0.0,0.0,0.0,0.0,0.0,0.0,0.0,0.0,0.0,0.0,0.0,0.0,0.0,0.0,0.0,0.0,0.0,0.0,0.0,0.0,0.0,0.0,0.0,0.0,0.0,0.0,0.0,0.0983,0.1025,0.0645,0.045,0.045,0.027,0.0225,0.027,0.036,0.0518,0.0,0.0,0.0,0.0,0.0,0.0,0.0,0.0,0.0,0.0,0.0,0.0,0.0,0.0,0.0,0.0,0.0,0.0,0.0,0.0,0.0,0.0,0.0,0.0,0.0,0.0,0.0,0.0,0.0,0.0,0.0,0.0,0.0,0.0,0.0,0.0,0.0,0.0,0.0,0.0,0.0,0.0,1.3035,1.3146,0.0,0.0,0.0,1.2073,1.177,0.0,0.0,0.0,0.0,0.0,0.0,0.0,0.0,0.0,0.0,0.0,0.0,0.0,0.0,0.0,0.0,0.0,0.0,0.0,0.0,0.0,0.0,0.0,0.0,0.0,0.0,0.0,0.0,0.0,0.0,0.0,0.0,0.0,0.0,0.0,0.0,0.0,0.0,0.0,0.0,0.0,0.0,0.0,0.0,0.0,0.0,0.0,0.0,0.0,0.0,0.0,0.0,0.0,0.0,0.0,0.0,0.0,0.063,0.0172,-0.0135,-0.027,-0.027,-0.0225,-0.018,-0.0045,0.0,0.0,0.0,0.0,0.0,0.0,0.0,0.0,0.0,0.0,0.0,0.0,0.0,0.0,0.0,0.0,0.0,0.0,0.0,0.0,0.0,0.0,0.0,0.0,0.0,0.0,0.0,0.3734,0.0,0.0,0.0,0.0,0.0,0.0,0.0,0.0,0.0,0.0,0.0,0.0,0.0,0.0,1.2388,1.2674,1.2648,1.2511,0.0,0.0,1.1569,1.1241,1.1113,1.0902,0.0,0.0,0.0,0.0,0.0,0.0,0.0,0.0,0.0,0.0,0.0,0.0,0.0,0.0,0.0,0.0,0.0,0.0,0.0,0.0,0.0,0.0,0.0,0.0,0.0,0.0,0.0,0.0,0.0,0.0,0.0,0.0,0.0,0.0,0.0,0.0,0.0,0.0,0.0,0.0,0.0,0.0,0.0,0.0,0.0,0.0,0.0,0.0,0.0,0.0,0.0,0.0,0.0,0.0,0.0,-0.0039,-0.0129,-0.045,-0.099,-0.1034,-0.09,-0.0674,-0.045,-0.0259,0.0,0.0,0.0,0.0,0.0,0.0,0.0,0.0,0.0,0.0,0.0,0.0,0.0,0.0,0.0,0.0,0.0,0.0,0.0,0.0,0.0,0.0,0.0,0.0,0.0,0.0,0.0,0.0,0.0,0.0,0.0,0.0,0.0,0.0,0.0,0.0,0.0,0.0,0.0,0.0,0.0,1.2552,1.2741,1.2686,1.2483,0.0,0.0,1.1738,1.1349,1.0979,1.0642,1.037,0.0,0.0,0.0,0.0,0.0,0.0,0.0,0.0,0.0,0.0,0.0,0.0,0.0,0.0,0.0,0.0,0.0,0.0,0.0,0.0,0.0,0.0,0.0,0.0,0.0,0.0,0.0,0.0,0.0,0.0,0.0,0.0,0.0,0.0,0.0,0.0,0.0,0.0,0.0,0.0,0.0,0.0,0.0,0.0,0.0,0.0,0.0,0.0,0.0,0.0,0.0,0.0,0.0,-0.0558,-0.0697,-0.0871,-0.1032,-0.1257,-0.1302,-0.1211,-0.1032,-0.0851,-0.0646,0.0,0.0,0.0,0.0,0.0,0.0,0.0,0.0,0.0,0.0,0.0,0.0,0.0,0.0,0.0,0.0,0.0,0.0,0.0,0.0,0.0,0.0,0.0,0.0,0.0,0.0,0.0,0.0,0.4517,0.4927,0.5648,0.0,0.0,0.0,0.0,0.0,0.0,0.0,0.0,0.0,0.0,1.2044,1.2025,1.204,0.0,0.0,1.1747,1.1449,1.0971,1.0721,1.0372,0.9903,0.9578,0.0,0.0,0.0,0.0,0.0,0.0,0.0,0.0,0.0,0.0,0.0,0.0,0.0,0.0,0.0,0.0,0.0,0.0,0.0,0.0,0.0,0.0,0.0,0.0,0.0,0.0,0.0,0.0,0.0,0.0,0.0,0.0,0.0,0.0,0.0,0.0,0.0,0.0,0.0,0.0,0.0,0.0,0.0,0.0,0.0,0.0,0.0,0.0,0.0,0.0,0.0,0.0,-0.0925,-0.1304,-0.1422,-0.1461,-0.1506,-0.1553,-0.1461,-0.1368,-0.1217,-0.0995,0.0,0.0,0.0,0.0,0.0,0.0,0.0,0.0,0.0,0.0,0.0,0.0,0.0,0.0,0.0,0.0,0.0,0.0,0.0,0.0,0.0,0.0,0.0,0.0,0.0,0.0,0.0,0.0,0.4575,0.5047,0.5669,0.0,0.0,0.0,0.0,0.0,0.0,0.0,0.0,0.0,0.0,1.1221,1.1302,1.13,1.1232,1.1343,1.1099,1.0854,1.0509,1.0287,0.9958,0.9453,0.0,0.0,0.0,0.0,0.0,0.0,0.0,0.0,0.0,0.0,0.0,0.0,0.0,0.0,0.0,0.0,0.0,0.0,0.0,0.0,0.0,0.0,0.0,0.0,0.0,0.0,0.0,0.0,0.0,0.0,-0.239,0.0,0.0,0.0,0.0,0.0,0.0,0.0,0.0,0.0,0.0,0.0,0.0,0.0,0.0,0.0,0.0,0.0,0.0,0.0,0.0,0.0,0.0,-0.1207,-0.1767,-0.1646,-0.1618,-0.1713,-0.181,-0.1857,-0.1663,-0.1512,-0.1317,-0.1173,0.0,0.0,0.0,0.0,0.0,0.0,0.0,0.0,0.0,0.0,0.0,0.0,0.0,0.0,0.0,0.0,0.0,0.0,0.0,0.0,0.0,0.0,0.0,0.0,0.0,0.0,0.4164,0.4839,0.5345,0.0,0.0,0.0,0.0,0.0,0.0,0.0,0.0,0.0,0.0,1.0226,1.0179,1.0562,1.0401,1.0222,1.0243,1.0128,1.0013,0.9833,0.9595,0.9336,0.0,0.0,0.0,0.0,0.0,0.0,0.0,0.0,0.0,0.0,0.0,0.0,0.0,0.0,0.0,0.0,0.0,0.0,0.0,0.0,0.0,0.0,0.0,0.0,0.0,0.0,0.0,-0.3282,-0.3278,0.0,0.0,0.0,0.0,0.0,0.0,0.0,0.0,0.0,0.0,0.0,-0.2827,-0.2749,0.0,0.0,0.0,0.0,0.0,0.0,0.0,0.0,0.0,0.0,0.0,0.0,-0.1364,-0.1688,-0.1924,-0.2023,-0.2026,-0.2226,-0.225,-0.1956,-0.1881,-0.1674,-0.1219,0.0,0.0,0.0,0.0,0.0,0.0,0.0,0.0,0.0,0.0,0.0,0.0,0.0,0.0,0.0,0.0,0.0,0.0,0.0,0.0,0.0,0.0,0.0,0.0,0.0,0.3694,0.0,0.0,0.0,0.0,0.0,0.0,0.0,0.0,0.0,0.0,0.0,0.9116,0.9517,0.9394,0.9398,0.9829,0.957,0.9465,0.0,0.0,0.0,0.0,0.0,0.0,0.0,0.0,0.0,0.0,0.0,0.0,0.0,0.0,0.7324,0.7471,0.7407,0.7356,0.7401,0.0,0.0,0.0,0.0,0.0,0.0,0.0,0.0,0.0,0.0,0.0,0.0,0.0,0.0,-0.4034,0.0,-0.3684,0.0,0.0,0.0,0.0,0.0,0.0,0.0,0.0,-0.358,-0.3674,-0.3493,-0.3364,-0.3175,0.0,-0.2509,-0.2125,0.0,0.0,0.0,0.0,0.0,0.0,0.0,0.0,-0.169,-0.2044,-0.2289,-0.2397,-0.2411,-0.26,-0.2524,-0.2286,-0.2128,-0.1789,-0.1304,-0.0872,-0.0559,0.0,0.0,0.0,0.0,0.0,0.0,0.0,0.0,0.0,0.0,0.0,0.0,0.0,0.0,0.0,0.0,0.0,0.0,0.0,0.0,0.0,0.0,0.0,0.3723,0.0,0.0,0.0,0.0,0.0,0.0,0.0,0.0,0.0,0.7839,0.8345,0.8642,0.8624,0.8652,0.8721,0.8882,0.0,0.0,0.0,0.0,0.0,0.0,0.0,0.7968,0.7694,0.7545,0.7434,0.7131,0.6951,0.686,0.6794,0.0,0.0,0.7162,0.7154,0.7154,0.721,0.721,0.721,0.7261,0.7389,0.7506,0.0,0.0,0.0,0.0,0.0,0.0,0.0,0.0,-0.475,-0.4891,0.0,-0.4563,0.0,0.0,0.0,0.0,0.0,-0.3755,0.0,0.0,-0.4216,-0.4317,-0.431,-0.4076,-0.3876,-0.372,-0.3213,-0.2911,-0.2884,-0.2019,0.0,0.0,0.0,0.0,0.0,0.0,-0.2109,-0.2873,-0.2743,-0.2687,-0.2775,-0.2808,-0.2754,-0.2597,-0.213,-0.1745,-0.1437,-0.1136,-0.0848,-0.0515,-0.0313,0.0,0.0,0.0,0.0,0.0,0.0,0.0,0.0,0.0,0.0,0.0,0.0,0.0,0.0,0.0,0.0,0.0,0.0,0.0,0.0,0.3483,0.0,0.0,0.0,0.0,0.0,0.0,0.0,0.0,0.0,0.0,0.7644,0.7792,0.7835,0.7762,0.0,0.0,0.0,0.0,0.7652,0.7657,0.7466,0.7344,0.7344,0.7186,0.6998,0.6795,0.0,0.0,0.6034,0.6069,0.616,0.6028,0.6207,0.6591,0.6846,0.6833,0.6824,0.694,0.7005,0.7055,0.718,0.7164,0.722,-0.8047,0.0,0.0,0.0,0.0,-0.6573,-0.6264,-0.5641,-0.596,-0.6032,-0.5946,-0.5444,0.0,0.0,0.0,0.0,0.0,0.0,-0.4662,-0.477,-0.4847,-0.4896,-0.4999,-0.4703,-0.4541,-0.4385,-0.3865,-0.3556,-0.3459,-0.2981,-0.2507,-0.2031,0.0,0.0,0.0,0.0,-0.2564,-0.3144,-0.2992,-0.2897,-0.2874,-0.2845,-0.2726,-0.2462,-0.2102,-0.1768,-0.1542,-0.1284,-0.0958,-0.0648,-0.0486,0.0,0.0,0.0,0.0,0.0,0.0,0.0,0.0,0.0,0.0,0.0,0.0,0.0,0.0,0.0,0.0,0.0,0.0,0.0,0.3051,0.3261,0.3437,0.0,0.0,0.0,0.0,0.0,0.0,0.0,0.0,0.0,0.6468,0.6837,0.7135,0.0,0.0,0.6691,0.6759,0.6672,0.6519,0.6324,0.6283,0.0,0.0,0.6044,0.6084,0.6149,0.6119,0.6025,0.5816,0.5686,0.5604,0.5387,0.5529,0.5745,0.5869,0.6329,0.6651,0.6709,0.6705,0.6755,0.6946,0.6975,0.6971,-0.9493,-0.852,-0.8224,-0.7859,-0.7565,-0.7659,-0.7251,-0.665,-0.6786,-0.6773,-0.6644,-0.6187,-0.5759,-0.5317,-0.5447,0.0,0.0,0.0,-0.5321,-0.5329,-0.5414,-0.5451,-0.5513,-0.5291,-0.5074,-0.4931,-0.4492,-0.4224,-0.4092,-0.3779,-0.3454,-0.3032,0.0,0.0,-0.258,-0.2668,-0.2953,-0.3403,-0.3181,-0.3014,-0.2968,-0.2858,-0.273,-0.2478,-0.2188,-0.1917,-0.1702,-0.1414,-0.1157,-0.0927,-0.0705,-0.0514,0.0,0.0,0.0,0.0,0.0,0.0,0.0,0.0,0.0,0.0,0.0,0.144,0.1595,0.0,0.0,0.0,0.2432,0.263,0.2802,0.3061,0.0,0.0,0.0,0.0,0.0,0.0,0.0,0.5194,0.5404,0.551,0.5525,0.5719,0.6006,0.6365,0.6108,0.5885,0.5909,0.0,0.545,0.5243,0.5095,0.4928,0.4862,0.479,0.4859,0.5215,0.529,0.5225,0.5081,0.4977,0.4865,0.4724,0.4833,0.5001,0.5023,0.5525,0.5941,0.6165,0.622,0.6257,0.6425,0.6444,0.6448,-1.0856,-1.027,-0.9454,-0.8954,-0.8667,-0.8554,-0.8228,-0.773,-0.7483,-0.7267,-0.7108,-0.6792,-0.6433,-0.608,-0.5972,0.0,-0.5795,-0.6003,-0.5982,-0.5774,-0.5967,-0.6009,-0.585,-0.5732,-0.5567,-0.5352,-0.5069,-0.4904,-0.4739,-0.4408,-0.4235,-0.4158,-0.3559,-0.3142,-0.2993,-0.3029,-0.3245,-0.3582,-0.3304,-0.3077,-0.3077,-0.28,-0.2646,-0.2607,-0.2271,-0.2041,-0.191,-0.1563,-0.1282,-0.1188,-0.0933,-0.0697,-0.0517,0.0,0.0,0.0,0.0,0.0,0.0,0.0,0.0,0.0,0.0,0.0,0.0,0.0,0.0,0.0,0.2362,0.0,0.2594,0.2956,0.0,0.0,0.0,0.4114,0.4253,0.4511,0.472,0.4653,0.0,0.0,0.4788,0.4613,0.4723,0.5215,0.5303,0.5221,0.4991,0.4651,0.4375,0.43,0.3873,0.3514,0.3603,0.3601,0.3747,0.4111,0.4092,0.4106,0.4042,0.4101,0.4082,0.3865,0.409,0.4353,0.4407,0.4613,0.4886,0.5428,0.5607,0.5604,0.5706,0.5712,0.5719,-1.2081,-1.1684,-1.122,-1.0447,-0.9504,-0.9607,-0.9409,-0.9096,-0.8622,-0.8158,-0.7703,-0.7367,-0.7059,-0.6802,-0.657,-0.6437,-0.6443,-0.6493,-0.6518,-0.6464,-0.6514,-0.6436,-0.6277,-0.6119,-0.595,-0.5841,-0.5563,-0.5403,-0.5348,-0.5073,-0.4831,-0.4736,-0.4429,-0.4037,-0.347,-0.3439,-0.35,-0.3594,-0.3287,-0.3021,-0.28,-0.2747,-0.2646,-0.2609,-0.2428,-0.2245,-0.2058,-0.1748,-0.1522,-0.1371,-0.1188,-0.0949,-0.0652,-0.0484,0.0,0.0,0.0,0.0,0.0,0.0,0.0,0.0,0.0,0.141,0.1503,0.0,0.1841,0.0,0.2378,0.2614,0.275,0.2929,0.0,0.0,0.3478,0.3649,0.3764,0.3949,0.4077,0.4205,0.4358,0.4489,0.4507,0.4307,0.413,0.4252,0.4065,0.3896,0.3776,0.3552,0.3297,0.3151,0.3042,0.2929,0.2771,0.2929,0.3078,0.331,0.3461,0.3542,0.3542,0.3557,0.3498,0.3346,0.3433,0.3595,0.3651,0.3885,0.4033,0.4234,0.4626,0.5044,0.5126,0.5302,0.5378,-1.2848,-1.2546,-1.2338,-1.1735,-1.0941,-1.0407,-1.0058,-0.9807,-0.9368,-0.8778,-0.8137,-0.7706,-0.7561,-0.7554,-0.7317,-0.7231,-0.7335,-0.7346,-0.7233,-0.7125,-0.7064,-0.7007,-0.6832,-0.6631,-0.6476,-0.6249,-0.5991,-0.5791,-0.5677,-0.5458,-0.5289,-0.523,-0.5018,-0.4645,-0.4186,-0.3968,-0.3845,-0.3691,-0.3299,-0.3023,-0.2805,-0.2747,-0.2664,-0.267,-0.2466,-0.2334,-0.2155,-0.1924,-0.1684,-0.1481,-0.1379,-0.1178,-0.0926,-0.0708,-0.0484,0.0,0.0,0.0,0.0,0.0,0.0,0.0,0.0,0.0,0.0,0.0,0.1627,0.1869,0.2144,0.2449,0.2739,0.286,0.2969,0.3227,0.3355,0.3431,0.3476,0.3542,0.3639,0.3727,0.3797,0.3804,0.3831,0.3627,0.3481,0.3242,0.294,0.2858,0.3013,0.2898,0.2614,0.2461,0.2334,0.2277,0.2119,0.2199,0.2356,0.2665,0.2821,0.2899,0.2899,0.2899,0.2823,0.2746,0.2823,0.2899,0.2979,0.3214,0.3372,0.3448,0.3759,0.4144,0.4538,0.4776,0.4929,-1.3442,-1.3277,-1.3112,-1.2864,-1.2462,-1.1247,-1.0605,-1.03,-0.9858,-0.927,-0.8624,-0.8141,-0.8056,-0.8208,-0.8051,-0.8057,-0.8151,-0.8156,-0.7979,-0.7687,-0.7693,-0.7568,-0.7434,-0.7186,-0.6922,-0.6683,-0.6454,-0.6253,-0.6032,-0.5861,-0.5746,-0.5746,-0.5389,-0.5156,-0.4986,-0.4588,-0.4135,-0.3799,-0.3355,-0.3079,-0.2916,-0.2805,-0.2747,-0.2745,-0.2505,-0.2368,-0.2233,-0.2057,-0.1839,-0.1674,-0.1473,-0.1356,-0.1188,-0.0937,-0.0674,0.0,-0.0276,0.0,0.0,0.0,0.0,0.0,0.0,0.0,0.0,0.1241,0.1381,0.1631,0.1912,0.2184,0.2599,0.2667,0.2793,0.3261,0.3283,0.3266,0.324,0.3257,0.3257,0.3291,0.3248,0.3214,0.3067,0.2972,0.2788,0.2435,0.2163,0.2106,0.2508,0.2349,0.2113,0.2118,0.1805,0.165,0.1572,0.1572,0.1728,0.204,0.2117,0.2117,0.2196,0.2196,0.2199,0.2206,0.2209,0.2211,0.2372,0.2537,0.2695,0.2702,0.2901,0.3318,0.3814,0.4198,0.4265,-1.4676,-1.4338,-1.3901,-1.3603,-1.3387,-1.2427,-1.1619,-1.098,-1.0253,-0.9771,-0.9455,-0.9271,-0.9068,-0.8835,-0.8667,-0.8586,-0.8516,-0.8328,-0.8151,-0.8038,-0.7979,-0.786,-0.7568,-0.7527,-0.7382,-0.7259,-0.7219,-0.7135,-0.7076,-0.6783,-0.666,-0.6655,-0.6151,-0.5791,-0.5555,0.0,0.0,0.0,-0.3524,-0.336,-0.3077,-0.2914,-0.286,-0.286,-0.273,0.0,-0.2532,-0.2288,-0.2057,-0.1841,-0.163,0.0,0.0,0.0,0.0,0.0,0.0,0.0,0.0,0.0,0.0,0.0,0.0097,0.0389,0.1037,0.1148,0.1248,0.1432,0.1906,0.2214,0.23,0.2364,0.2523,0.2737,0.275,0.2807,0.2874,0.2895,0.2934,0.2952,0.3018,0.2987,0.278,0.2682,0.2485,0.2255,0.1957,0.1806,0.1886,0.165,0.1492,0.1492,0.1335,0.1336,0.1336,0.1336,0.1335,0.1492,0.1492,0.1572,0.1811,0.1889,0.1902,0.1932,0.1857,0.1787,0.1816,0.1991,0.2153,0.2157,0.2332,0.2657,0.325,0.3605,0.3731,-1.5254,0.0,-1.4685,-1.435,0.0,-1.3602,-1.3044,-1.224,-1.1168,-1.0679,-1.0595,-1.0041,-0.9694,-0.9537,-0.9424,-0.9253,-0.9009,-0.8936,-0.8757,-0.8516,-0.8455,-0.8337,-0.8156,-0.7971,-0.7791,-0.7664,-0.756,-0.7449,-0.7384,-0.7141,-0.7021,-0.6962,-0.6556,-0.6271,-0.6149,-0.5743,-0.5046,-0.4024,-0.3858,-0.3691,-0.3463,-0.3246,-0.3137,-0.3137,0.0,0.0,0.0,0.0,0.0,0.0,0.0,0.0,0.0,0.0,0.0,-0.0877,-0.068,-0.0547,-0.057,-0.0524,-0.0488,-0.0516,-0.0536,-0.0217,0.0479,0.068,0.0825,0.0943,0.1456,0.18,0.1951,0.2018,0.2245,0.2538,0.2554,0.2597,0.269,0.2571,0.2527,0.2514,0.2478,0.2357,0.231,0.2335,0.2198,0.1963,0.1885,0.1651,0.1258,0.1258,0.1258,0.1022,0.0786,0.0629,0.0707,0.0629,0.0632,0.0637,0.0639,0.0723,0.0893,0.1057,0.1144,0.1157,0.1159,0.1246,0.1509,0.1599,0.1683,0.1685,0.1868,0.2129,0.2441,0.286,0.3194,-1.573,-1.5478,-1.5323,-1.502,-1.4647,-1.4529,-1.4112,-1.3408,0.0,0.0,0.0,-1.0682,-1.0265,-1.0316,-1.0133,-0.9893,-0.9703,-0.9582,-0.939,-0.9075,-0.8958,-0.8894,-0.8823,-0.8496,-0.821,-0.808,-0.7843,-0.7688,-0.7562,-0.738,-0.7259,-0.7198,-0.6917,-0.6694,-0.6593,-0.6028,-0.5473,-0.4773,-0.4324,-0.4079,-0.3907,-0.3633,-0.3469,-0.3469,-0.3193,-0.2932,-0.2853,-0.2724,-0.2519,-0.2241,-0.2076,-0.192,-0.1817,-0.1565,-0.1312,-0.1059,-0.0908,-0.0809,-0.0814,-0.0866,-0.0882,-0.0866,-0.0983,-0.0769,-0.0286,0.0181,0.0436,0.0436,0.0876,0.1269,0.1566,0.1701,0.1936,0.2314,0.2327,0.235,0.2409,0.2349,0.2152,0.2049,0.1984,0.1845,0.188,0.1964,0.1887,0.1573,0.1414,0.126,0.0631,0.0709,0.0866,0.0396,0.0079,-0.0158,-0.0239,-0.0239,-0.0241,-0.0245,-0.0246,-0.0247,-0.0251,-0.0084,0.0084,0.0254,0.0339,0.051,0.0852,0.1025,0.1108,0.1193,0.1381,0.1661,0.1746,0.2068,0.2475,-1.6144,-1.5788,-1.5478,-1.5352,-1.5235,-1.4706,-1.4112,-1.3442,-1.2753,-1.2287,-1.1997,-1.1559,-1.1265,-1.1114,-1.0683,-1.0458,-1.0428,-1.0104,-0.9722,0.0,-0.9396,-0.9268,-0.8952,-0.8796,-0.8715,-0.8656,-0.8425,-0.835,-0.835,-0.8137,-0.8014,-0.7802,-0.7511,-0.7078,-0.6611,-0.6216,-0.5951,-0.5688,-0.4993,-0.4519,-0.4408,-0.4076,-0.3855,-0.3744,-0.3469,-0.3186,-0.2896,-0.2815,-0.2654,-0.2374,-0.2155,-0.192,-0.1817,-0.1568,-0.1312,-0.116,-0.1059,-0.0971,-0.0897,-0.0899,-0.087,-0.0926,-0.0986,-0.1008,-0.0918,-0.0315,0.0064,0.0064,0.0393,0.074,0.1104,0.1384,0.1541,0.1659,0.174,0.1831,0.1952,0.1959,0.1902,0.1945,0.1878,0.1798,0.1727,0.173,0.1415,0.0865,0.0554,0.0079,-0.0321,-0.0159,-0.0079,-0.0403,-0.0567,-0.0735,-0.0991,-0.1084,-0.1084,-0.1088,-0.1173,-0.1176,-0.1185,-0.1101,-0.0937,-0.0605,-0.0433,-0.0262,-0.0177,0.0267,0.0532,0.0531,0.0711,0.098,0.1336,0.1509,0.1773,-1.6363,-1.6144,-1.5884,-1.5652,-1.5352,-1.4765,-1.435,-1.3992,-1.3338,-1.2797,-1.2375,-1.212,-1.1809,-1.1435,-1.1247,-1.094,-1.0561,-1.0434,-1.011,-0.9786,-0.9582,-0.9454,-0.9268,-0.9022,-0.8894,-0.8899,-0.8765,-0.8646,-0.8641,-0.8366,-0.8107,-0.7977,-0.7619,-0.7278,-0.6903,-0.6582,-0.6349,-0.619,-0.5459,-0.4989,-0.4869,-0.4504,-0.4239,-0.4187,-0.3747,-0.3416,-0.3307,-0.2982,-0.2793,-0.2682,-0.232,-0.2086,-0.2033,-0.1767,-0.1552,-0.1445,-0.123,-0.1141,-0.1068,-0.0974,-0.0945,-0.0927,-0.0954,-0.1035,-0.1101,-0.0787,-0.0532,-0.0405,-0.0068,0.0278,0.0428,0.0787,0.1085,0.1337,0.1415,0.158,0.1769,0.1855,0.1863,0.1883,0.173,0.1573,0.1493,0.11,0.0712,0.024,-0.0323,-0.0819,-0.1241,-0.115,-0.0982,-0.1075,-0.1236,-0.1404,-0.1594,-0.1695,-0.1706,-0.1713,-0.1799,-0.1809,-0.1825,-0.1744,-0.1488,-0.1148,-0.1061,-0.0977,-0.0986,-0.0807,-0.0448,-0.0179,-0.0,0.0179,0.0538,0.0807,0.1166,-1.6833,-1.6587,-1.6393,-1.5964,-1.5362,-1.4883,-1.4638,-1.4469,-1.3923,-1.339,-1.2797,-1.249,-1.2189,-1.1809,-1.1692,-1.1317,-1.0877,-1.0751,-1.0498,-1.011,-0.9849,-0.9716,-0.9582,-0.9268,-0.9081,-0.9081,-0.8958,-0.8829,-0.877,-0.8501,-0.8242,-0.7987,-0.7657,-0.7445,-0.7297,-0.6908,-0.6647,-0.6498,-0.5891,-0.5483,-0.5381,-0.4933,-0.4626,-0.4567,-0.4039,-0.3694,-0.3583,-0.3251,-0.3028,-0.2916,-0.2521,-0.2296,-0.2184,-0.1977,-0.1817,-0.1646,-0.1486,-0.1334,-0.119,-0.1104,-0.1008,-0.1031,-0.1039,-0.1056,-0.1082,-0.1087,-0.1028,-0.0838,-0.0493,-0.0286,-0.0073,0.0221,0.052,0.0913,0.0993,0.1154,0.1566,0.1573,0.1573,0.1573,0.1258,0.1023,0.087,0.0396,-0.008,-0.0573,-0.1087,-0.1525,-0.1864,-0.1954,-0.1793,-0.1703,-0.177,-0.1936,-0.1957,-0.2069,-0.2088,-0.2101,-0.2101,-0.2114,-0.2139,-0.2061,-0.1884,-0.1613,-0.1613,-0.1524,-0.1524,-0.1436,-0.1166,-0.0897,-0.0718,-0.0538,-0.0179,0.009,0.0538,-1.7899,-1.7242,-1.7082,-1.6364,-1.5459,-1.5381,-1.5029,-1.4556,-1.4419,-1.4043,-1.3432,-1.2867,-1.2575,-1.2436,-1.1872,-1.156,-1.1435,-1.1185,-1.087,-1.0561,-1.0498,-1.0301,-0.9913,-0.9588,-0.946,-0.9396,-0.9145,-0.8958,-0.8835,-0.877,-0.8506,-0.8052,-0.7657,-0.7512,-0.7428,-0.7102,-0.6902,-0.6828,-0.6383,-0.6022,-0.5804,-0.5393,-0.507,-0.4948,-0.4426,-0.3971,-0.3655,-0.3585,-0.3307,-0.2916,-0.2753,-0.2525,-0.2249,-0.2132,-0.1935,-0.1704,-0.1685,-0.1592,-0.1293,-0.1076,-0.1031,-0.1035,-0.1059,-0.1084,-0.1113,-0.1117,-0.1119,-0.1057,-0.1148,-0.0808,-0.015,-0.0,0.0076,0.0156,0.0469,0.0706,0.0706,0.0707,0.0707,0.0707,0.0394,0.0079,0.0081,-0.0082,-0.0577,-0.1422,-0.1709,-0.1907,-0.2082,-0.2194,-0.2216,-0.2127,-0.2103,-0.2094,-0.2211,-0.2141,-0.2228,-0.2233,-0.2236,-0.2238,-0.2242,-0.2244,-0.2155,-0.2064,-0.2064,-0.1974,-0.1795,-0.1615,-0.1436,-0.1346,-0.1256,-0.1166,-0.0807,-0.0538,-0.0179,-1.8348,-1.7984,-1.7743,-1.7154,-1.6506,-1.6304,-1.5756,-1.5065,-1.5148,-1.4917,-1.4451,-1.3988,-1.3391,-1.2567,-1.2182,-1.1872,-1.156,-1.1435,-1.1185,-1.0877,-1.0688,-1.0491,-1.0371,-0.9977,-0.9786,-0.9658,-0.9402,-0.9145,-0.8894,-0.863,-0.8306,-0.7987,-0.7727,-0.7596,-0.7461,-0.7073,-0.6881,-0.6881,-0.6542,-0.627,-0.618,-0.5738,-0.5418,-0.5229,-0.4876,-0.4552,-0.4262,-0.4027,-0.3733,-0.3556,-0.3143,-0.2785,-0.2667,-0.2342,-0.2117,-0.2002,-0.1743,-0.1519,-0.133,-0.1172,-0.1066,-0.1084,-0.1095,-0.1115,-0.1145,-0.1164,-0.1174,-0.1176,-0.1186,-0.1055,-0.077,-0.0542,-0.0311,-0.0314,-0.0236,-0.0079,-0.0079,-0.0079,-0.0158,-0.016,-0.0322,-0.0569,-0.0828,-0.101,-0.1362,-0.1976,-0.2009,-0.2123,-0.2305,-0.2322,-0.2422,-0.2602,-0.2582,-0.2491,-0.242,-0.2515,-0.2604,-0.2604,-0.2604,-0.2604,-0.2604,-0.2604,-0.2604,-0.2424,-0.2424,-0.2334,-0.2064,-0.1795,-0.1615,-0.1615,-0.1436,-0.1346,-0.1166,-0.1077,-0.0897,-1.9015,-1.8711,-1.8214,-1.7729,-1.7284,-1.7034,-1.6452,-1.5787,-1.5826,-1.5753,-1.5569,-1.5033,-1.4165,-1.32,-1.2838,-1.2459,-1.2071,-1.1862,-1.1629,-1.1368,-1.0975,-1.0744,-1.0618,-1.0301,-1.0117,-0.9926,-0.9728,-0.9396,-0.9017,-0.8501,-0.8177,-0.7987,-0.7797,-0.7596,-0.7456,-0.7073,-0.6881,-0.6881,-0.6548,-0.642,-0.6379,-0.6097,-0.5759,-0.5536,-0.5236,-0.4968,-0.4789,-0.4366,-0.4119,-0.3994,-0.3505,-0.3136,-0.3018,-0.2546,-0.2256,-0.2149,-0.1868,-0.1565,-0.1369,-0.1272,-0.1166,-0.1119,-0.1128,-0.1147,-0.1175,-0.1199,-0.1215,-0.1224,-0.1224,-0.1234,-0.1252,-0.1022,-0.0786,-0.0786,-0.0786,-0.0787,-0.0792,-0.0793,-0.0801,-0.0818,-0.0911,-0.1175,-0.1453,-0.1737,-0.2016,-0.2197,-0.2221,-0.2334,-0.2515,-0.2603,-0.2694,-0.2875,-0.2873,-0.2784,-0.2694,-0.2694,-0.2875,-0.2875,-0.2875,-0.2875,-0.2875,-0.2875,-0.2875,-0.2604,-0.2604,-0.2515,-0.2334,-0.2064,-0.1885,-0.1795,-0.1615,-0.1436,-0.1346,-0.1346,-0.1346,-1.994,-1.928,-1.8413,-1.7843,-1.7491,-1.7335,-1.6991,-1.6621,-1.6348,-1.6443,-1.6522,-1.5539,-1.4772,-1.4533,-1.3876,-1.3478,-1.324,-1.2545,-1.2216,-1.1999,-1.1538,-1.1129,-1.08,-1.0618,-1.0511,-1.0315,-0.997,-0.9554,-0.9022,-0.87,-0.8317,-0.7982,-0.7792,-0.7661,-0.7461,-0.7138,-0.6881,-0.6881,-0.6618,-0.642,-0.642,-0.6396,-0.6165,-0.5891,-0.5428,-0.5175,-0.4985,-0.4796,-0.4494,-0.4,-0.3766,-0.3515,-0.3028,-0.2726,-0.2475,-0.2199,-0.2009,-0.1812,-0.1615,-0.1444,-0.1331,-0.1127,-0.1151,-0.1177,-0.1206,-0.1213,-0.1226,-0.1251,-0.1329,-0.1254,-0.1335,-0.1258,-0.118,-0.1261,-0.126,-0.1272,-0.1217,-0.1219,-0.1232,-0.1341,-0.1532,-0.1819,-0.2045,-0.215,-0.2236,-0.2415,-0.2511,-0.2604,-0.2785,-0.2875,-0.2875,-0.2875,-0.2875,-0.2875,-0.2875,-0.2875,-0.2875,-0.2875,-0.2875,-0.2875,-0.2875,-0.2875,-0.2875,-0.2875,-0.2875,-0.2694,-0.2515,-0.2334,-0.2155,-0.1974,-0.1615,-0.1436,-0.1436,-0.1436,-0.1436,-2.0246,-1.9663,-1.9244,-1.8847,-1.8513,-1.8328,-1.7981,-1.7556,-1.7387,-1.7159,-1.6833,-1.6401,-1.5934,-1.5386,-1.511,-1.4432,-1.3541,-1.3142,-1.2823,-1.2543,-1.2233,-1.1984,-1.1786,-1.1448,-1.1249,-1.1029,-1.06,-1.0018,-0.9344,-0.8894,-0.8576,-0.8312,-0.7992,-0.7792,-0.7596,-0.7269,-0.7012,-0.6876,-0.6679,-0.6548,-0.6416,-0.642,-0.6318,-0.6197,-0.6,-0.5706,-0.5385,-0.526,-0.4942,-0.4552,-0.4232,-0.3908,-0.3519,-0.2962,-0.2526,-0.2353,-0.2085,-0.1898,-0.1793,-0.1533,-0.1424,-0.1323,-0.1263,-0.1208,-0.1234,-0.1241,-0.1246,-0.1255,-0.1336,-0.1336,-0.1336,-0.1336,-0.1345,-0.1282,-0.1287,-0.1298,-0.1323,-0.1332,-0.1343,-0.1628,-0.1921,-0.2131,-0.2324,-0.2424,-0.2515,-0.2694,-0.2784,-0.2785,-0.2875,-0.2875,-0.2875,-0.2875,-0.2875,-0.2875,-0.2875,-0.2875,-0.2875,-0.2875,-0.2875,-0.2875,-0.2875,-0.2875,-0.2875,-0.2875,-0.2875,-0.2875,-0.2694,-0.2424,-0.2244,-0.1974,-0.1615,-0.1436,-0.1436,-0.1436,-0.1436,-2.0399,-1.9998,-1.9802,-1.9473,-1.9142,-1.9008,-1.8664,-1.8307,-1.8144,-1.7706,-1.7276,-1.7028,-1.663,-1.614,-1.5938,-1.5331,-1.4283,-1.3839,-1.3444,-1.315,-1.2848,-1.2533,-1.2398,-1.2051,-1.1771,-1.1539,-1.1101,-1.0486,-0.979,-0.9307,-0.8952,-0.863,-0.8229,-0.7917,-0.7661,-0.74,-0.7073,-0.6942,-0.6741,-0.6609,-0.642,-0.642,-0.642,-0.642,-0.6284,-0.6145,-0.5815,-0.5554,-0.5292,-0.503,-0.4631,-0.4164,-0.3627,-0.3155,-0.269,-0.2426,-0.2242,-0.2062,-0.1963,-0.178,-0.1607,-0.151,-0.1375,-0.1314,-0.1334,-0.1336,-0.1336,-0.1337,-0.1347,-0.1351,-0.1274,-0.1281,-0.1291,-0.1303,-0.1311,-0.1329,-0.1441,-0.1446,-0.1633,-0.2013,-0.222,-0.2419,-0.2604,-0.2604,-0.2694,-0.2875,-0.2875,-0.2875,-0.2875,-0.2875,-0.2875,-0.2875,-0.2875,-0.2875,-0.2875,-0.2875,-0.2875,-0.2875,-0.2875,-0.2875,-0.2875,-0.2875,-0.2875,-0.2875,-0.2875,-0.2875,-0.2784,-0.2515,-0.2244,-0.1974,-0.1615,-0.1436,-0.1436,-0.1436,-0.1436,-2.0453,-2.0107,-1.9922,-1.9671,-1.9274,-1.9142,-1.9106,-1.8936,-1.8367,-1.7998,-1.7794,-1.7245,-1.6908,-1.67,-1.6219,-1.5771,-1.5441,-1.4678,-1.4132,-1.3816,-1.321,-1.2818,-1.2696,-1.2499,-1.2121,-1.1758,-1.1374,-1.0942,-1.0398,-0.9902,-0.9461,-0.8891,-0.8382,-0.7967,-0.7746,-0.7414,-0.7138,-0.6942,-0.6811,-0.6609,-0.6416,-0.6416,-0.642,-0.642,-0.642,-0.6284,-0.6148,-0.5815,-0.5554,-0.5359,-0.4894,-0.4159,-0.3496,-0.3234,-0.2965,-0.2578,-0.249,-0.2314,-0.2051,-0.206,-0.188,-0.1677,-0.155,-0.1489,-0.1413,-0.1336,-0.1336,-0.134,-0.1281,-0.1299,-0.1303,-0.1326,-0.1335,-0.1313,-0.1333,-0.1445,-0.1641,-0.1825,-0.1927,-0.2319,-0.2513,-0.2604,-0.2785,-0.2875,-0.2875,-0.2875,-0.2875,-0.2964,-0.2963,-0.2963,-0.2964,-0.2963,-0.3053,-0.3053,-0.2963,-0.2875,-0.2875,-0.2875,-0.2875,-0.2875,-0.2875,-0.2875,-0.2875,-0.2875,-0.2875,-0.2875,-0.2875,-0.2515,-0.2334,-0.2064,-0.1705,-0.1436,-0.1436,-0.1436,-0.1436,-2.0658,-2.0259,-2.0118,-1.9857,-1.9473,-1.9274,-1.9173,-1.9091,-1.8694,-1.8347,-1.8008,-1.7735,-1.7392,-1.6978,-1.663,-1.6281,-1.5788,-1.5387,-1.4977,-1.4371,-1.4073,-1.3744,-1.3476,-1.3192,-1.2721,-1.2115,-1.18,-1.1344,-1.0773,-1.0386,-0.9931,-0.9479,-0.8934,-0.8487,-0.8122,-0.7739,-0.74,-0.7138,-0.6942,-0.6745,-0.6613,-0.6482,-0.642,-0.642,-0.642,-0.6354,-0.6354,-0.602,-0.569,-0.5428,-0.509,-0.4625,-0.4041,-0.356,-0.3253,-0.3122,-0.2767,-0.2543,-0.2438,-0.225,-0.2063,-0.1935,-0.1878,-0.1728,-0.1573,-0.1493,-0.1415,-0.1339,-0.1284,-0.1303,-0.131,-0.1517,-0.154,-0.1364,-0.1543,-0.1649,-0.1854,-0.213,-0.2316,-0.2509,-0.2694,-0.2785,-0.2875,-0.2875,-0.2875,-0.2873,-0.2873,-0.2963,-0.305,-0.3139,-0.3229,-0.3318,-0.3318,-0.323,-0.3141,-0.3051,-0.3051,-0.2963,-0.2963,-0.2875,-0.2875,-0.2875,-0.2875,-0.2875,-0.2875,-0.2875,-0.2785,-0.2604,-0.2334,-0.2064,-0.1795,-0.1525,-0.1436,-0.1436,-0.1436,-2.0786,-2.0529,-2.0313,-2.0064,-1.9736,-1.9473,-1.9285,-1.9106,-1.8895,-1.8539,-1.8212,-1.8076,-1.7735,-1.7245,-1.6978,-1.6621,-1.6219,-1.5938,-1.5505,-1.4927,-1.4569,-1.4289,-1.4023,-1.3652,-1.3194,-1.2655,-1.2319,-1.1937,-1.141,-1.0885,-1.0484,-1.009,-0.946,-0.8801,-0.8383,-0.8051,-0.7621,-0.7218,-0.7007,-0.6811,-0.6675,-0.6482,-0.642,-0.642,-0.642,-0.642,-0.6354,-0.6218,-0.5954,-0.5624,-0.5289,-0.4846,-0.4428,-0.402,-0.3725,-0.3422,-0.3127,-0.29,-0.272,-0.2518,-0.2315,-0.2189,-0.2041,-0.1886,-0.1729,-0.173,-0.1654,-0.1594,-0.1546,-0.1572,-0.1675,-0.1808,-0.1844,-0.1759,-0.1846,-0.1946,-0.206,-0.2424,-0.2603,-0.2694,-0.2785,-0.2875,-0.2875,-0.2875,-0.2964,-0.2962,-0.2962,-0.3141,-0.3227,-0.3317,-0.3496,-0.3585,-0.3497,-0.3408,-0.3406,-0.3227,-0.3138,-0.3051,-0.2963,-0.2964,-0.2875,-0.2875,-0.2875,-0.2875,-0.2875,-0.2875,-0.2875,-0.2515,-0.2155,-0.1974,-0.1795,-0.1525,-0.1436,-0.1436,-0.1438,-2.0978,-2.0669,-2.0475,-2.0205,-1.9878,-1.9671,-1.9386,-1.91,-1.8931,-1.8751,-1.8482,-1.8221,-1.794,-1.7657,-1.7176,-1.6908,-1.6769,-1.614,-1.5726,-1.5355,-1.4927,-1.4497,-1.416,-1.3725,-1.3331,-1.3091,-1.2792,-1.2485,-1.2118,-1.142,-1.1044,-1.0719,-0.9848,-0.9136,-0.8717,-0.8351,-0.787,-0.74,-0.7091,-0.6876,-0.6741,-0.6548,-0.642,-0.642,-0.642,-0.642,-0.642,-0.6354,-0.6152,-0.5888,-0.5372,-0.4968,-0.4651,-0.4549,-0.4209,-0.3715,-0.3655,-0.3325,-0.2973,-0.2784,-0.2662,-0.235,-0.2275,-0.2119,-0.1964,-0.1887,-0.1902,-0.194,-0.1902,-0.1946,-0.2072,-0.212,-0.2234,-0.2242,-0.2236,-0.224,-0.2513,-0.2784,-0.2785,-0.2875,-0.2875,-0.2875,-0.2875,-0.2875,-0.3051,-0.3139,-0.3227,-0.3318,-0.3497,-0.3587,-0.3587,-0.3676,-0.3764,-0.3676,-0.3587,-0.3496,-0.3408,-0.3138,-0.3051,-0.2963,-0.2875,-0.2875,-0.2875,-0.2875,-0.2875,-0.2875,-0.2785,-0.2424,-0.2244,-0.2155,-0.1885,-0.1525,-0.1436,-0.1436,-0.1446,-2.1094,-2.0733,-2.0669,-2.0335,-1.9933,-1.9671,-1.9386,-1.909,-1.9054,-1.8962,-1.8859,-1.8569,-1.8212,-1.7872,-1.7529,-1.7194,-1.6839,-1.6421,-1.6,-1.5718,-1.5284,-1.4705,-1.4129,-1.3695,-1.3411,-1.3193,-1.2973,-1.2599,-1.2298,-1.1765,-1.1371,-1.1003,-1.0315,-0.9735,-0.9291,-0.8626,-0.8165,-0.7808,-0.7334,-0.7016,-0.6876,-0.6679,-0.6548,-0.642,-0.642,-0.642,-0.642,-0.6284,-0.6083,-0.5693,-0.5538,-0.5329,-0.512,-0.4847,-0.4662,-0.4417,-0.3973,-0.3726,-0.3498,-0.3203,-0.2902,-0.2668,-0.2588,-0.2512,-0.2119,-0.2119,-0.2064,-0.2027,-0.1991,-0.2037,-0.2169,-0.2305,-0.251,-0.2694,-0.2515,-0.2515,-0.2694,-0.2875,-0.2875,-0.2875,-0.2875,-0.2875,-0.2963,-0.3051,-0.3138,-0.3226,-0.3406,-0.3585,-0.3765,-0.3855,-0.3855,-0.4032,-0.4121,-0.3944,-0.3857,-0.3765,-0.3587,-0.3315,-0.3138,-0.3051,-0.2963,-0.2875,-0.2875,-0.2875,-0.2875,-0.2875,-0.2784,-0.2515,-0.2334,-0.2155,-0.1795,-0.1436,-0.1436,-0.1436,-0.1454,-2.1296,-2.0926,-2.0733,-2.0475,-2.0074,-1.9747,-1.9452,-1.9233,-1.9131,-1.9019,-1.8906,-1.8694,-1.8405,-1.8144,-1.7813,-1.7539,-1.7116,-1.6691,-1.6351,-1.5859,-1.5196,-1.4697,-1.4201,-1.376,-1.347,-1.3419,-1.3127,-1.29,-1.2526,-1.2157,-1.1706,-1.1385,-1.0819,-1.0262,-0.969,-0.9101,-0.8482,-0.8064,-0.7583,-0.7171,-0.6885,-0.6806,-0.6613,-0.642,-0.642,-0.642,-0.6428,-0.6422,-0.6261,-0.6011,-0.5816,-0.5637,-0.5626,-0.5335,-0.5078,-0.4898,-0.4508,-0.4229,-0.3841,-0.353,-0.3295,-0.2982,-0.2824,-0.2668,-0.251,-0.2354,-0.2301,-0.2302,-0.2254,-0.2304,-0.2455,-0.2587,-0.2691,-0.2875,-0.2784,-0.2694,-0.2875,-0.2875,-0.2875,-0.2873,-0.2962,-0.3051,-0.3051,-0.3229,-0.3406,-0.3496,-0.3676,-0.3855,-0.4034,-0.4034,-0.4123,-0.421,-0.4297,-0.4121,-0.4036,-0.3946,-0.3765,-0.3406,-0.3139,-0.3051,-0.2963,-0.2875,-0.2875,-0.2875,-0.2875,-0.2875,-0.2694,-0.2515,-0.2244,-0.1974,-0.1615,-0.1436,-0.1436,-0.1447,-0.1464,-2.1498,-2.1158,-2.0862,-2.0604,-2.0335,-1.9868,-1.9518,-1.9365,-1.9187,-1.8998,-1.8798,-1.8808,-1.8607,-1.8327,-1.8086,-1.7803,-1.7539,-1.7047,-1.656,-1.5921,-1.5196,-1.4625,-1.4425,-1.3905,-1.3695,-1.3645,-1.3426,-1.3119,-1.2826,-1.2459,-1.215,-1.17,-1.1316,-1.0769,-1.0104,-0.955,-0.8953,-0.8299,-0.7845,-0.7377,-0.7047,-0.6811,-0.6679,-0.649,-0.6473,-0.6477,-0.6518,-0.6615,-0.666,-0.6468,-0.611,-0.5987,-0.5989,-0.58,-0.5575,-0.52,-0.4996,-0.4616,-0.4073,-0.3917,-0.3684,-0.3295,-0.3061,-0.2824,-0.2824,-0.2669,-0.2637,-0.2672,-0.2692,-0.2749,-0.2841,-0.2873,-0.2873,-0.2875,-0.2873,-0.2964,-0.2963,-0.2873,-0.2875,-0.2963,-0.3138,-0.3226,-0.3315,-0.3496,-0.3676,-0.3676,-0.3855,-0.4034,-0.4123,-0.421,-0.421,-0.43,-0.4297,-0.4297,-0.4212,-0.4125,-0.3855,-0.3587,-0.3141,-0.2963,-0.2963,-0.2875,-0.2875,-0.2875,-0.2875,-0.2785,-0.2604,-0.2334,-0.2155,-0.1885,-0.1615,-0.1436,-0.1438,-0.1458,-0.1476,-2.1498,-2.1158,-2.0862,-2.0604,-2.0346,-2.0009,-1.9649,-1.942,-1.9253,-1.9142,-1.8998,-1.8875,-1.8741,-1.8674,-1.8212,-1.7949,-1.7803,-1.7176,-1.656,-1.5859,-1.5346,-1.4991,-1.4713,-1.4201,-1.392,-1.379,-1.3419,-1.3193,-1.3053,-1.2606,-1.2231,-1.2083,-1.1477,-1.1019,-1.073,-0.9957,-0.9227,-0.8599,-0.8147,-0.7692,-0.7197,-0.6951,-0.6753,-0.6639,-0.6621,-0.6627,-0.6668,-0.6806,-0.6964,-0.6925,-0.6668,-0.6408,-0.6264,-0.598,-0.5816,-0.5613,-0.5237,-0.4927,-0.4693,-0.4382,-0.4073,-0.3684,-0.353,-0.345,-0.3061,-0.2982,-0.2972,-0.2913,-0.295,-0.2919,-0.2941,-0.2875,-0.2964,-0.2963,-0.3051,-0.3139,-0.3139,-0.2963,-0.3053,-0.3139,-0.3227,-0.3315,-0.3496,-0.3676,-0.3857,-0.3946,-0.4036,-0.4212,-0.43,-0.4297,-0.4297,-0.4297,-0.4297,-0.4297,-0.421,-0.4123,-0.3855,-0.3676,-0.323,-0.2875,-0.2875,-0.2875,-0.2875,-0.2875,-0.2875,-0.2694,-0.2515,-0.2334,-0.2064,-0.1795,-0.1616,-0.1529,-0.1447,-0.1468,-0.1495,-2.1572,-2.136,-2.0914,-2.068,-2.0475,-2.0074,-1.9726,-1.9518,-1.9341,-1.9208,-1.9075,-1.8942,-1.8875,-1.8741,-1.8414,-1.8144,-1.7872,-1.7254,-1.656,-1.5929,-1.5497,-1.5133,-1.4864,-1.4425,-1.4137,-1.3935,-1.3637,-1.3419,-1.3119,-1.2826,-1.2526,-1.2305,-1.1632,-1.126,-1.1049,-1.0313,-0.9626,-0.9103,-0.8524,-0.7962,-0.7377,-0.7056,-0.6813,-0.6735,-0.6716,-0.6725,-0.6818,-0.6989,-0.7119,-0.7142,-0.7001,-0.6817,-0.659,-0.6357,-0.6247,-0.6022,-0.5867,-0.5395,-0.5082,-0.4771,-0.4538,-0.4073,-0.3919,-0.3686,-0.3374,-0.3217,-0.3112,-0.3125,-0.3186,-0.3167,-0.321,-0.3232,-0.3232,-0.323,-0.3318,-0.3406,-0.3318,-0.332,-0.3232,-0.3408,-0.3496,-0.3587,-0.3765,-0.3944,-0.4034,-0.4123,-0.4123,-0.43,-0.43,-0.4297,-0.4297,-0.4297,-0.4297,-0.43,-0.43,-0.4123,-0.3946,-0.3676,-0.3318,-0.3051,-0.2963,-0.2873,-0.2875,-0.2875,-0.2875,-0.2604,-0.2334,-0.2155,-0.1974,-0.1705,-0.1438,-0.1443,-0.1459,-0.1488,-0.1517,-2.1698,-2.1635,-2.099,-2.0669,-2.0604,-2.0151,-1.9802,-1.9605,-1.9417,-1.9274,-1.9142,-1.9131,-1.9008,-1.8808,-1.8674,-1.8347,-1.7872,-1.7314,-1.6691,-1.6202,-1.57,-1.5275,-1.4935,-1.4641,-1.4353,-1.4137,-1.3855,-1.3572,-1.3266,-1.2966,-1.2673,-1.2372,-1.1922,-1.1564,-1.1111,-1.0582,-0.9999,-0.9467,-0.8806,-0.817,-0.7641,-0.7221,-0.6979,-0.6842,-0.6876,-0.6879,-0.7009,-0.7155,-0.7273,-0.7273,-0.7259,-0.7165,-0.6945,-0.6791,-0.6641,-0.6335,-0.6257,-0.5867,-0.5392,-0.5082,-0.4929,-0.454,-0.4229,-0.3997,-0.3841,-0.3612,-0.3421,-0.3331,-0.3325,-0.3415,-0.3548,-0.3471,-0.357,-0.3583,-0.3587,-0.3676,-0.3676,-0.3676,-0.3676,-0.3676,-0.3676,-0.3767,-0.3944,-0.4123,-0.421,-0.4297,-0.43,-0.4389,-0.4389,-0.4387,-0.4476,-0.4478,-0.4478,-0.4389,-0.43,-0.4123,-0.3857,-0.3676,-0.3408,-0.3141,-0.2962,-0.2873,-0.2875,-0.2785,-0.2694,-0.2515,-0.2244,-0.2064,-0.1795,-0.1525,-0.1445,-0.1457,-0.1481,-0.151,-0.1538,-2.1824,-2.1635,-2.099,-2.0669,-2.0616,-2.027,-1.9878,-1.9615,-1.955,-1.9407,-1.9131,-1.9131,-1.9065,-1.9008,-1.8818,-1.8472,-1.794,-1.7382,-1.689,-1.6473,-1.5982,-1.5497,-1.5213,-1.4935,-1.4649,-1.4289,-1.4008,-1.3717,-1.3419,-1.3112,-1.2893,-1.268,-1.2077,-1.1713,-1.1416,-1.0887,-1.0267,-0.9772,-0.9103,-0.8519,-0.8014,-0.7582,-0.728,-0.7178,-0.7085,-0.711,-0.7196,-0.7338,-0.7439,-0.7447,-0.7472,-0.7326,-0.7176,-0.6942,-0.6791,-0.6563,-0.6412,-0.6103,-0.5783,-0.5553,-0.5321,-0.5007,-0.4771,-0.4616,-0.4384,-0.4235,-0.3966,-0.3726,-0.3562,-0.3394,-0.3479,-0.3678,-0.3619,-0.3652,-0.3855,-0.3944,-0.3946,-0.4034,-0.4123,-0.4034,-0.4036,-0.4036,-0.4212,-0.43,-0.4387,-0.4476,-0.4567,-0.4567,-0.4656,-0.4746,-0.4832,-0.4835,-0.4746,-0.4567,-0.4389,-0.4123,-0.3857,-0.3676,-0.3408,-0.3139,-0.2962,-0.2963,-0.2875,-0.2784,-0.2604,-0.2424,-0.2155,-0.1974,-0.1705,-0.1436,-0.1453,-0.1473,-0.1498,-0.1522,-0.1553,-2.1937,-2.1635,-2.1053,-2.0786,-2.0669,-2.027,-1.9878,-1.9615,-1.9637,-1.9494,-1.9208,-1.9131,-1.9131,-1.9065,-1.8875,-1.8482,-1.8008,-1.7598,-1.7107,-1.6691,-1.6211,-1.5788,-1.5426,-1.5158,-1.4792,-1.4497,-1.4137,-1.3855,-1.3637,-1.3273,-1.3046,-1.2746,-1.2305,-1.1861,-1.1564,-1.1111,-1.045,-0.9922,-0.9373,-0.8913,-0.8438,-0.7934,-0.7628,-0.7432,-0.7392,-0.7335,-0.7366,-0.7419,-0.748,-0.7476,-0.748,-0.7407,-0.733,-0.7249,-0.7096,-0.6791,-0.6641,-0.6412,-0.6099,-0.5867,-0.5634,-0.5323,-0.5243,-0.5007,-0.4774,-0.4628,-0.4434,-0.4199,-0.4089,-0.402,-0.4241,-0.4161,-0.4212,-0.4277,-0.4389,-0.4389,-0.4478,-0.4565,-0.4478,-0.4389,-0.4391,-0.448,-0.448,-0.4567,-0.4654,-0.4743,-0.4746,-0.4835,-0.4924,-0.5013,-0.5186,-0.5013,-0.4924,-0.4748,-0.4478,-0.4302,-0.3946,-0.3676,-0.3497,-0.3229,-0.2962,-0.2873,-0.2784,-0.2604,-0.2515,-0.2244,-0.1975,-0.1706,-0.1526,-0.144,-0.1464,-0.1488,-0.151,-0.1535,-0.1567,-2.2011,-2.1635,-2.1158,-2.0839,-2.0669,-2.0346,-1.9944,-1.9747,-1.9779,-1.9571,-1.9208,-1.9131,-1.9131,-1.9065,-1.8808,-1.8472,-1.8076,-1.7735,-1.7323,-1.6968,-1.6482,-1.607,-1.5726,-1.53,-1.4864,-1.4649,-1.4346,-1.4,-1.3717,-1.3353,-1.3127,-1.2826,-1.2526,-1.2077,-1.1626,-1.126,-1.0651,-1.0129,-0.9685,-0.9285,-0.8719,-0.8182,-0.7816,-0.7699,-0.765,-0.7576,-0.7532,-0.7472,-0.748,-0.748,-0.748,-0.748,-0.748,-0.748,-0.7326,-0.7099,-0.6868,-0.6644,-0.6412,-0.6177,-0.6022,-0.5792,-0.5556,-0.5321,-0.5165,-0.494,-0.4734,-0.4651,-0.4518,-0.4498,-0.4564,-0.4725,-0.4786,-0.4863,-0.4903,-0.501,-0.4921,-0.4921,-0.4921,-0.4835,-0.4835,-0.4837,-0.4835,-0.4746,-0.4832,-0.4919,-0.5013,-0.5188,-0.5277,-0.5455,-0.5542,-0.5277,-0.5102,-0.4839,-0.4661,-0.448,-0.4123,-0.3676,-0.3497,-0.3318,-0.3051,-0.2785,-0.2695,-0.2517,-0.2244,-0.2064,-0.1796,-0.1624,-0.1544,-0.1466,-0.1483,-0.1506,-0.1534,-0.156,-0.1588,-2.2123,-2.1698,-2.1285,-2.0978,-2.0669,-2.0475,-2.0205,-1.9878,-1.9845,-1.9581,-1.9274,-1.9131,-1.9131,-1.8998,-1.8741,-1.8472,-1.8279,-1.793,-1.751,-1.7176,-1.6751,-1.6272,-1.5797,-1.5355,-1.507,-1.4864,-1.4497,-1.4145,-1.3863,-1.3419,-1.3127,-1.29,-1.2599,-1.2157,-1.1861,-1.1409,-1.0807,-1.0312,-0.9838,-0.9369,-0.8778,-0.8309,-0.8184,-0.8147,-0.7977,-0.7757,-0.7714,-0.7638,-0.7557,-0.748,-0.748,-0.748,-0.748,-0.748,-0.748,-0.7407,-0.7257,-0.7026,-0.6791,-0.6637,-0.6405,-0.6177,-0.6018,-0.5786,-0.5556,-0.5323,-0.5098,-0.4937,-0.4802,-0.4713,-0.4767,-0.4763,-0.4768,-0.4961,-0.5142,-0.5174,-0.5097,-0.5364,-0.5364,-0.5364,-0.5366,-0.5188,-0.5188,-0.5099,-0.501,-0.5188,-0.5277,-0.5542,-0.563,-0.5808,-0.5811,-0.5636,-0.528,-0.5104,-0.4839,-0.4659,-0.4212,-0.3676,-0.3587,-0.3408,-0.3053,-0.2785,-0.2521,-0.234,-0.207,-0.1895,-0.1722,-0.1642,-0.1566,-0.1493,-0.1513,-0.1538,-0.1564,-0.1588,-0.1607,-2.2247,-2.1812,-2.1474,-2.1094,-2.0669,-2.0475,-2.0216,-1.9955,-1.9954,-1.9745,-1.9362,-1.9131,-1.9131,-1.9008,-1.8808,-1.8617,-1.8414,-1.8066,-1.7657,-1.7323,-1.6968,-1.6551,-1.614,-1.5718,-1.5434,-1.4999,-1.4713,-1.4353,-1.3992,-1.371,-1.3419,-1.3046,-1.2746,-1.2452,-1.209,-1.1713,-1.1254,-1.0703,-1.0118,-0.9553,-0.91,-0.8811,-0.8548,-0.8399,-0.825,-0.8025,-0.7876,-0.7723,-0.7638,-0.7561,-0.748,-0.748,-0.748,-0.748,-0.748,-0.748,-0.7407,-0.7253,-0.7099,-0.6868,-0.6714,-0.6637,-0.6483,-0.6328,-0.6022,-0.5712,-0.5479,-0.5323,-0.5249,-0.5224,-0.5253,-0.5377,-0.5501,-0.5534,-0.5555,-0.5692,-0.5719,-0.5808,-0.5897,-0.5897,-0.5808,-0.5719,-0.5633,-0.5633,-0.5633,-0.5719,-0.5897,-0.5985,-0.6074,-0.6163,-0.6077,-0.5905,-0.5636,-0.5366,-0.5013,-0.4748,-0.4302,-0.3855,-0.3587,-0.3408,-0.3053,-0.2697,-0.2441,-0.2184,-0.2014,-0.1833,-0.1652,-0.1569,-0.1492,-0.1517,-0.1545,-0.1563,-0.1581,-0.1596,-0.1612,-2.2494,-2.1987,-2.1663,-2.1221,-2.0797,-2.0604,-2.0335,-2.0074,-2.0085,-1.9822,-1.9428,-1.9198,-1.9131,-1.9065,-1.8875,-1.8684,-1.8482,-1.8212,-1.7872,-1.7529,-1.7116,-1.676,-1.6342,-1.6,-1.5576,-1.5196,-1.4856,-1.4497,-1.4209,-1.3928,-1.3637,-1.32,-1.2973,-1.2673,-1.2298,-1.1855,-1.1403,-1.0881,-1.0201,-0.9744,-0.9453,-0.916,-0.8856,-0.8632,-0.8403,-0.825,-0.803,-0.7876,-0.7795,-0.7638,-0.7561,-0.7561,-0.7557,-0.748,-0.748,-0.748,-0.748,-0.7407,-0.7253,-0.7099,-0.7022,-0.6945,-0.6865,-0.6714,-0.6486,-0.6099,-0.5867,-0.5792,-0.5792,-0.5767,-0.5784,-0.584,-0.5889,-0.602,-0.6147,-0.6292,-0.6428,-0.634,-0.6251,-0.6163,-0.6163,-0.6343,-0.6254,-0.6257,-0.6257,-0.634,-0.6428,-0.652,-0.6517,-0.6517,-0.6343,-0.6169,-0.5991,-0.5633,-0.5099,-0.4746,-0.43,-0.3948,-0.368,-0.3426,-0.2987,-0.2639,-0.2382,-0.2122,-0.1955,-0.1785,-0.1607,-0.1606,-0.1513,-0.155,-0.1579,-0.1581,-0.1593,-0.1607,-0.1615,-2.2665,-2.2359,-2.1874,-2.1498,-2.1094,-2.0862,-2.054,-2.027,-2.0183,-1.9911,-1.9483,-1.9274,-1.9131,-1.9065,-1.8942,-1.8741,-1.8482,-1.8347,-1.8066,-1.7725,-1.7304,-1.6968,-1.6551,-1.6132,-1.5647,-1.5275,-1.4999,-1.4713,-1.4425,-1.4137,-1.3702,-1.3266,-1.3046,-1.2673,-1.2298,-1.1929,-1.1409,-1.0893,-1.0293,-0.9916,-0.9695,-0.9397,-0.9022,-0.887,-0.8637,-0.8403,-0.8331,-0.8178,-0.7953,-0.7799,-0.7723,-0.7642,-0.7561,-0.7557,-0.748,-0.748,-0.748,-0.7484,-0.7407,-0.7257,-0.718,-0.7103,-0.7022,-0.6942,-0.6791,-0.6791,-0.6637,-0.6254,-0.6257,-0.6122,-0.5981,-0.5863,-0.6201,-0.6417,-0.6647,-0.6747,-0.6697,-0.6609,-0.6517,-0.6428,-0.6517,-0.6786,-0.6877,-0.6881,-0.6612,-0.6697,-0.6697,-0.6786,-0.6786,-0.6786,-0.6609,-0.6435,-0.6169,-0.5813,-0.5188,-0.4743,-0.4478,-0.4047,-0.3697,-0.3366,-0.3029,-0.2677,-0.2325,-0.2167,-0.2,-0.1733,-0.1555,-0.1555,-0.1564,-0.1595,-0.1611,-0.1603,-0.1602,-0.1611,-0.1616,-2.2836,-2.2555,-2.2185,-2.1686,-2.1158,-2.0862,-2.0604,-2.041,-2.0183,-1.9845,-1.9494,-1.9285,-1.9142,-1.9075,-1.8998,-1.8875,-1.8684,-1.8472,-1.8202,-1.7862,-1.752,-1.7185,-1.676,-1.6342,-1.5921,-1.5568,-1.5213,-1.4856,-1.4497,-1.4281,-1.392,-1.3564,-1.3098,-1.29,-1.2526,-1.1977,-1.1471,-1.1037,-1.0513,-1.0212,-0.9841,-0.962,-0.9246,-0.8946,-0.887,-0.8632,-0.8403,-0.8331,-0.8183,-0.803,-0.788,-0.7799,-0.7642,-0.7561,-0.748,-0.748,-0.748,-0.748,-0.748,-0.7407,-0.7407,-0.7334,-0.718,-0.7103,-0.7099,-0.7022,-0.6868,-0.6714,-0.6641,-0.6504,-0.6655,-0.6739,-0.6989,-0.6939,-0.6976,-0.7102,-0.7143,-0.7051,-0.7051,-0.7051,-0.7231,-0.7499,-0.7499,-0.7503,-0.7234,-0.6966,-0.6966,-0.6966,-0.7054,-0.6966,-0.6786,-0.652,-0.6343,-0.5813,-0.5188,-0.4921,-0.4654,-0.4144,-0.3628,-0.34,-0.307,-0.2632,-0.2275,-0.2114,-0.1944,-0.1666,-0.1581,-0.1594,-0.1605,-0.1613,-0.1616,-0.1615,-0.1615,-0.1617,-0.1617,-2.303,-2.2739,-2.2432,-2.1925,-2.136,-2.099,-2.0722,-2.0475,-2.0216,-1.9823,-1.9417,-1.9341,-1.9208,-1.9131,-1.9065,-1.8998,-1.8741,-1.8549,-1.8347,-1.8076,-1.7725,-1.7323,-1.6978,-1.663,-1.6211,-1.5867,-1.5576,-1.5213,-1.4713,-1.4425,-1.406,-1.3641,-1.3201,-1.2963,-1.2594,-1.2105,-1.1544,-1.1168,-1.0887,-1.0438,-1.0143,-0.9846,-0.9544,-0.9246,-0.9094,-0.8941,-0.8713,-0.856,-0.8408,-0.8259,-0.8106,-0.7953,-0.7799,-0.7718,-0.7561,-0.7557,-0.748,-0.748,-0.748,-0.748,-0.748,-0.7484,-0.7411,-0.7334,-0.7257,-0.7176,-0.7099,-0.7022,-0.6953,-0.7013,-0.7183,-0.7182,-0.7257,-0.73,-0.7465,-0.7499,-0.7588,-0.7588,-0.7588,-0.7676,-0.7856,-0.7768,-0.7768,-0.7768,-0.7676,-0.7319,-0.7234,-0.7234,-0.7234,-0.7143,-0.6874,-0.6605,-0.6428,-0.5808,-0.5188,-0.501,-0.4665,-0.401,-0.3582,-0.3447,-0.3113,-0.2671,-0.2323,-0.226,-0.1984,-0.1696,-0.1602,-0.1607,-0.1611,-0.1615,-0.1617,-0.1617,-0.1617,-0.1617,-0.1617,-2.3223,-2.2909,-2.2555,-2.2123,-2.1635,-2.1296,-2.0978,-2.0658,-2.0291,-1.989,-1.9507,-1.9396,-1.9274,-1.9142,-1.9142,-1.8998,-1.8808,-1.8617,-1.8414,-1.8212,-1.7852,-1.751,-1.7245,-1.6899,-1.6491,-1.5947,-1.5655,-1.5363,-1.4864,-1.4561,-1.4143,-1.359,-1.3086,-1.2727,-1.2445,-1.1884,-1.1518,-1.1366,-1.1186,-1.0812,-1.0443,-1.0067,-0.9846,-0.9544,-0.9397,-0.9246,-0.9022,-0.8865,-0.8713,-0.8484,-0.8331,-0.8178,-0.7876,-0.7799,-0.7718,-0.7561,-0.7557,-0.748,-0.748,-0.748,-0.748,-0.748,-0.7407,-0.7484,-0.7484,-0.748,-0.7326,-0.7176,-0.718,-0.7196,-0.727,-0.7349,-0.7511,-0.7703,-0.788,-0.7944,-0.7944,-0.794,-0.794,-0.8032,-0.8032,-0.7944,-0.7944,-0.7944,-0.7937,-0.776,-0.7588,-0.7503,-0.7415,-0.7234,-0.6874,-0.6605,-0.634,-0.5808,-0.5277,-0.5099,-0.477,-0.4027,-0.3628,-0.3492,-0.3165,-0.2628,-0.247,-0.2307,-0.2011,-0.1608,-0.1611,-0.1616,-0.1617,-0.1617,-0.1617,-0.1617,-0.1617,-0.1617,-0.1617,-2.3318,-2.3017,-2.2726,-2.2371,-2.1937,-2.1434,-2.1094,-2.0978,-2.0518,-2.0053,-1.9715,-1.9605,-1.9417,-1.9285,-1.9152,-1.9065,-1.8931,-1.8617,-1.8414,-1.8347,-1.7988,-1.7647,-1.7382,-1.7038,-1.663,-1.6211,-1.5938,-1.5576,-1.5062,-1.467,-1.4081,-1.3546,-1.2614,-1.215,-1.2115,-1.1819,-1.1584,-1.1508,-1.126,-1.0962,-1.0669,-1.0443,-1.0143,-0.9846,-0.9695,-0.9549,-0.9251,-0.9094,-0.8941,-0.8713,-0.8637,-0.8331,-0.8106,-0.803,-0.7799,-0.7642,-0.7638,-0.748,-0.748,-0.748,-0.748,-0.748,-0.748,-0.748,-0.748,-0.748,-0.748,-0.7403,-0.7407,-0.7466,-0.772,-0.771,-0.7875,-0.8143,-0.8296,-0.8296,-0.8296,-0.8204,-0.8116,-0.83,-0.8392,-0.83,-0.83,-0.812,-0.8025,-0.7848,-0.7676,-0.7411,-0.7323,-0.7143,-0.6962,-0.6605,-0.634,-0.5808,-0.5369,-0.5126,-0.4632,-0.3972,-0.3667,-0.3534,-0.3109,-0.2671,-0.2494,-0.2416,-0.2017,-0.1617,-0.1617,-0.1617,-0.1617,-0.1617,-0.1617,-0.1617,-0.1617,-0.1617,-0.1617,-2.3509,-2.321,-2.2909,-2.2678,-2.2309,-2.1686,-2.1296,-2.0978,-2.0593,-2.0205,-1.9933,-1.9736,-1.9539,-1.9351,-1.9208,-1.9142,-1.9065,-1.8741,-1.8549,-1.8482,-1.8134,-1.7784,-1.751,-1.7254,-1.6908,-1.6482,-1.6114,-1.5745,-1.513,-1.4576,-1.3905,-1.3096,-1.2116,-1.1854,-1.1785,-1.1717,-1.1618,-1.1646,-1.1484,-1.1186,-1.0968,-1.0669,-1.0443,-1.0218,-0.9992,-0.9846,-0.9549,-0.9322,-0.917,-0.9018,-0.8789,-0.8556,-0.8408,-0.8178,-0.7953,-0.7795,-0.7638,-0.7557,-0.748,-0.748,-0.748,-0.748,-0.748,-0.748,-0.748,-0.748,-0.748,-0.748,-0.748,-0.7687,-0.7923,-0.7988,-0.8162,-0.8352,-0.8476,-0.8476,-0.8476,-0.8384,-0.8384,-0.8568,-0.8568,-0.8568,-0.8476,-0.8384,-0.8204,-0.794,-0.7676,-0.7411,-0.7231,-0.7143,-0.6962,-0.6605,-0.6251,-0.5808,-0.5397,-0.5087,-0.4595,-0.3824,-0.3703,-0.3673,-0.3149,-0.2702,-0.2614,-0.2321,-0.1919,-0.1617,-0.1617,-0.1617,-0.1617,-0.1617,-0.1617,-0.1617,-0.1617,-0.1617,-0.1617,-2.3649,-2.3352,-2.3148,-2.2809,-2.2531,-2.177,-2.1267,-2.0711,-2.054,-2.027,-1.9933,-1.9933,-1.9681,-1.9351,-1.9285,-1.9208,-1.9075,-1.8875,-1.8674,-1.8482,-1.8279,-1.7988,-1.7716,-1.7529,-1.7116,-1.683,-1.6341,-1.5731,-1.5052,-1.4418,-1.3616,-1.2733,-1.1809,-1.1631,-1.166,-1.1654,-1.1649,-1.1786,-1.1781,-1.1484,-1.1192,-1.0962,-1.0743,-1.0519,-1.0368,-1.0143,-0.9916,-0.9695,-0.9392,-0.917,-0.9022,-0.8713,-0.856,-0.8403,-0.8178,-0.7872,-0.7638,-0.7561,-0.748,-0.748,-0.748,-0.748,-0.748,-0.748,-0.748,-0.748,-0.748,-0.748,-0.7492,-0.772,-0.7931,-0.8044,-0.8166,-0.8369,-0.8548,-0.8568,-0.8568,-0.8568,-0.8568,-0.8568,-0.8568,-0.8476,-0.8292,-0.8113,-0.8116,-0.7856,-0.7591,-0.7499,-0.7234,-0.7143,-0.6962,-0.6517,-0.6251,-0.5897,-0.5497,-0.5103,-0.4545,-0.3856,-0.3844,-0.3718,-0.3187,-0.282,-0.252,-0.2321,-0.1919,-0.1718,-0.1617,-0.1617,-0.1617,-0.1617,-0.1617,-0.1617,-0.1617,-0.1617,-0.1617,-2.248,-2.2298,-2.2084,-2.1843,-2.1555,-2.1055,-2.092,-2.0985,-2.0733,-2.0464,-2.027,-1.9998,-1.9661,-1.9539,-1.9351,-1.9198,-1.9075,-1.8875,-1.8684,-1.8549,-1.8347,-1.8056,-1.7784,-1.7529,-1.7254,-1.6789,-1.6291,-1.5659,-1.4943,-1.4263,-1.3219,-1.2296,-1.1744,-1.166,-1.1598,-1.1601,-1.1777,-1.1913,-1.1896,-1.1781,-1.1564,-1.1335,-1.1117,-1.0887,-1.0743,-1.0519,-1.0293,-0.9992,-0.9771,-0.962,-0.9175,-0.887,-0.887,-0.856,-0.825,-0.7876,-0.7718,-0.7642,-0.7561,-0.748,-0.748,-0.748,-0.748,-0.748,-0.748,-0.748,-0.748,-0.748,-0.7496,-0.7679,-0.7898,-0.8044,-0.8135,-0.8422,-0.8468,-0.848,-0.848,-0.848,-0.848,-0.8476,-0.8388,-0.8204,-0.8021,-0.794,-0.7856,-0.768,-0.7503,-0.7415,-0.7323,-0.7143,-0.6874,-0.6517,-0.6254,-0.5988,-0.5502,-0.5017,-0.4562,-0.4082,-0.3978,-0.3754,-0.3202,-0.2823,-0.2522,-0.2221,-0.1818,-0.1718,-0.1617,-0.1617,-0.1617,-0.1617,-0.1617,-0.1617,-0.1617,-0.1617,-0.1617,-2.2115,-2.1979,-2.1746,-2.1468,-2.1131,-2.0677,-2.0689,-2.081,-2.046,-2.0086,-1.9835,-1.9539,-1.9479,-1.9372,-1.9188,-1.9141,-1.9208,-1.9008,-1.8808,-1.8549,-1.8365,-1.8134,-1.7862,-1.755,-1.7269,-1.6779,-1.6193,-1.553,-1.4735,-1.3679,-1.2602,-1.2173,-1.1809,-1.1623,-1.1586,-1.1708,-1.1866,-1.1925,-1.1924,-1.1909,-1.1781,-1.1639,-1.1409,-1.126,-1.1043,-1.0812,-1.0588,-1.0293,-1.0073,-0.9922,-0.9473,-0.9246,-0.9022,-0.8637,-0.8327,-0.7949,-0.7799,-0.7718,-0.7561,-0.748,-0.748,-0.748,-0.748,-0.748,-0.748,-0.748,-0.748,-0.7484,-0.7516,-0.7602,-0.7829,-0.797,-0.8199,-0.8428,-0.8364,-0.83,-0.83,-0.83,-0.8296,-0.8292,-0.8113,-0.8021,-0.7848,-0.7764,-0.768,-0.7411,-0.7323,-0.7231,-0.7231,-0.7143,-0.6874,-0.6517,-0.6343,-0.6083,-0.5512,-0.5036,-0.4595,-0.4219,-0.402,-0.3687,-0.3221,-0.2826,-0.2423,-0.212,-0.1817,-0.1717,-0.1617,-0.1617,-0.1617,-0.1617,-0.1617,-0.1617,-0.1617,-0.1617,-0.1617,-2.2122,-2.1934,-2.1783,-2.1407,-2.1039,-2.054,-2.0361,-2.0351,-1.9773,-1.9372,-1.9104,-1.8923,-1.9026,-1.907,-1.8924,-1.8913,-1.8866,-1.8744,-1.8461,-1.8362,-1.8191,-1.7972,-1.7658,-1.7523,-1.7006,-1.6655,-1.6074,-1.5227,-1.4245,-1.3335,-1.2569,-1.2127,-1.1934,-1.1684,-1.1474,-1.1727,-1.1847,-1.1797,-1.1972,-1.2083,-1.2003,-1.1855,-1.1632,-1.1484,-1.126,-1.1043,-1.0887,-1.0594,-1.0368,-1.0067,-0.9846,-0.9544,-0.9094,-0.8713,-0.8408,-0.8178,-0.7953,-0.7799,-0.7638,-0.7557,-0.748,-0.748,-0.748,-0.748,-0.748,-0.748,-0.748,-0.748,-0.7508,-0.7592,-0.7728,-0.7777,-0.7877,-0.8092,-0.8109,-0.812,-0.812,-0.812,-0.8028,-0.8025,-0.794,-0.776,-0.758,-0.7496,-0.7411,-0.7231,-0.7139,-0.7139,-0.7139,-0.7051,-0.6786,-0.6517,-0.6343,-0.6091,-0.5433,-0.497,-0.4637,-0.4359,-0.4051,-0.3703,-0.3226,-0.2726,-0.2221,-0.1918,-0.1717,-0.1616,-0.1617,-0.1617,-0.1617,-0.1617,-0.1617,-0.1617,-0.1617,-0.1617,-0.1617,-2.1029,-2.0862,-2.0591,-2.033,-2.0107,-1.9801,-1.9558,-1.9318,-1.9112,-1.9181,-1.9304,-1.9048,-1.8852,-1.8779,-1.8556,-1.8436,-1.8323,-1.83,-1.7892,-1.7688,-1.7654,-1.7561,-1.71,-1.6917,-1.6615,-1.6222,-1.5578,-1.4809,-1.3917,-1.3161,-1.2674,-1.2313,-1.2058,-1.1774,-1.1411,-1.1696,-1.184,-1.1747,-1.1979,-1.2218,-1.2157,-1.2083,-1.1855,-1.1706,-1.1558,-1.1335,-1.1111,-1.0893,-1.0738,-1.0513,-1.0067,-0.962,-0.9022,-0.8941,-0.8713,-0.8408,-0.8102,-0.7953,-0.7723,-0.7561,-0.748,-0.748,-0.748,-0.748,-0.748,-0.748,-0.748,-0.7407,-0.7475,-0.7581,-0.7589,-0.7608,-0.7567,-0.7763,-0.7852,-0.7852,-0.7856,-0.7852,-0.776,-0.7672,-0.7588,-0.7496,-0.7316,-0.7228,-0.7139,-0.7139,-0.7139,-0.7139,-0.7054,-0.6966,-0.6786,-0.652,-0.6432,-0.61,-0.5443,-0.4991,-0.475,-0.4365,-0.4051,-0.3698,-0.3229,-0.2725,-0.2221,-0.1818,-0.1617,-0.1617,-0.1617,-0.1617,-0.1617,-0.1617,-0.1617,-0.1617,-0.1617,-0.1617,-0.1617,-2.0662,-2.0562,-2.0246,-2.0029,-1.9862,-1.9617,-1.9368,-1.9158,-1.8946,-1.8998,-1.9089,-1.8771,-1.8525,-1.8456,-1.8192,-1.8091,-1.7922,-1.7853,-1.774,-1.7449,-1.7161,-1.7093,-1.6782,-1.6452,-1.6176,-1.5826,-1.5029,-1.4214,-1.3666,-1.3164,-1.2797,-1.2436,-1.2189,-1.1884,-1.1532,-1.1791,-1.1833,-1.179,-1.2163,-1.2265,-1.2305,-1.2157,-1.2083,-1.1929,-1.1781,-1.1558,-1.1335,-1.1111,-1.0962,-1.0663,-1.0218,-0.9771,-0.9322,-0.9099,-0.8865,-0.8556,-0.8255,-0.803,-0.7799,-0.7642,-0.7557,-0.748,-0.7484,-0.7484,-0.7334,-0.7334,-0.733,-0.7253,-0.7257,-0.7411,-0.7411,-0.7383,-0.7469,-0.757,-0.7562,-0.7408,-0.7408,-0.7408,-0.7404,-0.7404,-0.7319,-0.7319,-0.7139,-0.7139,-0.7139,-0.7139,-0.7139,-0.7139,-0.7051,-0.6874,-0.6697,-0.6432,-0.6343,-0.595,-0.5302,-0.5032,-0.4862,-0.4471,-0.3951,-0.3498,-0.3027,-0.2623,-0.222,-0.1818,-0.1617,-0.1617,-0.1617,-0.1617,-0.1617,-0.1617,-0.1617,-0.1617,-0.1617,-0.1617,-0.1617,-2.0712,-2.0649,-2.0398,-2.0131,-1.999,-1.972,-1.9565,-1.9368,-1.9158,-1.8893,-1.8708,-1.8383,-1.8204,-1.8045,-1.7901,-1.7949,-1.785,-1.7515,-1.7409,-1.7185,-1.7011,-1.6727,-1.6552,-1.6373,-1.5956,-1.536,-1.4638,-1.4228,-1.383,-1.3338,-1.292,-1.2621,-1.2313,-1.2029,-1.1971,-1.1949,-1.1943,-1.2093,-1.2256,-1.2271,-1.2305,-1.2305,-1.2231,-1.2083,-1.2003,-1.1781,-1.1552,-1.1335,-1.1192,-1.0812,-1.0368,-0.9992,-0.9625,-0.9327,-0.9018,-0.8708,-0.8484,-0.8183,-0.7876,-0.7718,-0.7561,-0.748,-0.7484,-0.7411,-0.7261,-0.718,-0.718,-0.7103,-0.7107,-0.7148,-0.7141,-0.7152,-0.724,-0.733,-0.72,-0.7139,-0.7139,-0.7139,-0.7139,-0.7139,-0.7139,-0.7139,-0.7139,-0.7139,-0.7139,-0.7139,-0.7139,-0.7139,-0.7051,-0.6786,-0.652,-0.6343,-0.608,-0.57,-0.5127,-0.506,-0.4877,-0.4363,-0.3839,-0.3295,-0.2825,-0.2422,-0.212,-0.1818,-0.1617,-0.1617,-0.1617,-0.1617,-0.1617,-0.1617,-0.1617,-0.1617,-0.1617,-0.1617,-0.1617,-2.0838,-2.0662,-2.0511,-2.0347,-2.0131,-1.9862,-1.9656,-1.9512,-1.9263,-1.9052,-1.8827,-1.8614,-1.8274,-1.779,-1.7522,-1.7391,-1.7301,-1.7117,-1.6701,-1.6359,-1.6386,-1.6197,-1.6019,-1.5928,-1.5436,-1.5015,-1.4602,-1.4258,-1.3881,-1.3459,-1.3094,-1.2736,-1.2313,-1.2107,-1.205,-1.203,-1.1999,-1.2175,-1.2276,-1.2305,-1.2305,-1.2305,-1.2305,-1.2231,-1.2083,-1.1855,-1.1706,-1.1484,-1.1267,-1.0962,-1.0588,-1.0218,-0.9846,-0.9554,-0.9251,-0.8941,-0.8637,-0.8331,-0.8025,-0.7799,-0.7642,-0.7484,-0.7411,-0.7257,-0.7103,-0.7022,-0.6945,-0.6718,-0.6758,-0.6885,-0.6909,-0.6922,-0.6905,-0.7114,-0.7139,-0.7139,-0.7139,-0.7139,-0.7139,-0.7139,-0.7139,-0.7139,-0.7139,-0.7139,-0.7139,-0.7139,-0.7139,-0.7139,-0.7051,-0.6786,-0.6428,-0.6254,-0.5991,-0.5547,-0.5044,-0.5046,-0.4875,-0.4263,-0.3734,-0.3198,-0.2724,-0.2222,-0.1919,-0.1718,-0.1617,-0.1617,-0.1617,-0.1617,-0.1617,-0.1617,-0.1617,-0.1617,-0.1617,-0.1617,-0.1617]},{"header":{"parameterUnit":"m.s-1","parameterCategory":1,"la1":31.0,"la2":29.5877,"lo1":-88.7671,"lo2":-86.6584,"dy":0.0162,"dx":0.0185,"nx":115,"ny":88,"refTime":"2024-05-16T06:00:00:Z","depth":0,"parameterNumber":3,"parameterNumberName":"V-component_of_WINDS"},"data":[0.0,0.0,0.0,0.0,0.0,0.0,0.0,0.0,0.0,0.0,0.0,0.0,0.0,0.0,0.0,0.0,0.0,0.0,0.0,0.0,0.0,0.0,0.0,0.0,0.0,0.0,0.0,0.0,0.0,0.0,0.0,0.0,0.0,0.0,0.0,0.0,0.0,0.0,0.0,0.0,0.0,0.0,0.0,0.0,0.0,0.0,0.0,0.0,0.0,0.0,0.0,0.0,0.0,0.0,0.0,0.0,0.0,0.0,0.0,0.0,0.0,0.0,0.0,0.0,0.0,0.0,0.0,0.0,0.0,0.0,0.0,0.0,0.0,0.0,0.0,0.0,0.0,0.0,0.0,0.0,0.0,0.0,0.0,0.0,0.0,0.0,0.0,0.0,0.0,0.0,0.0,0.0,0.0,0.0,0.0,0.0,0.0,0.0,0.0,0.0,0.0,0.0,0.0,0.0,0.0,0.0,0.0,0.0,0.0,0.0,0.0,0.0,0.0,0.0,0.0,0.0,0.0,0.0,0.0,0.0,0.0,0.0,0.0,0.0,0.0,0.0,0.0,0.0,0.0,0.0,0.0,0.0,0.0,0.0,0.0,0.0,0.0,0.0,0.0,0.0,0.0,0.0,0.0,0.0,0.0,0.0,0.0,0.0,0.0,0.0,0.0,0.0,0.0,0.0,0.0,0.0,0.0,0.0,0.0,0.0,0.0,0.0,0.0,0.0,0.0,0.0,0.0,0.0,0.0,0.0,0.0,0.0,0.0,0.0,0.0,0.0,0.0,0.0,0.0,0.0,0.0,0.0,0.0,0.0,0.0,0.0,0.0,0.0,0.0,0.0,0.0,0.0,0.0,0.0,0.0,0.0,0.0,0.0,0.0,0.0,0.0,0.0,0.0,0.0,0.0,0.0,0.0,0.0,0.0,0.0,0.0,0.0,0.0,0.0,0.0,0.0,0.0,0.0,0.0,0.0,0.0,0.0,0.0,0.0,0.0,0.0,0.0,0.0,0.0,0.0,0.0,0.0,0.0,0.0,0.0,0.0,0.0,0.0,0.0,0.0,0.0,0.0,0.0,0.0,0.0,0.0,0.0,0.0,0.0,0.0,0.0,0.0,0.0,0.0,0.0,0.0,0.0,0.0,0.0,0.0,0.0,0.0,0.0,0.0,0.0,0.0,0.0,0.0,0.0,0.0,0.0,0.0,0.0,0.0,0.0,0.0,0.0,0.0,0.0,0.0,0.0,0.0,0.0,0.0,0.0,0.0,0.0,0.0,0.0,0.0,0.0,0.0,0.0,0.0,0.0,0.0,0.0,0.0,0.0,0.0,0.0,0.0,0.0,0.0,0.0,0.0,0.0,0.0,0.0,0.0,0.0,0.0,0.0,0.0,0.0,0.0,0.0,0.0,0.0,0.0,0.0,0.0,0.0,0.0,0.0,0.0,0.0,0.0,0.0,0.0,0.0,0.0,0.0,0.0,0.0,0.0,0.0,0.0,0.0,0.0,0.0,0.0,0.0,0.0,0.0,0.0,0.0,0.0,0.0,0.0,0.0,0.0,0.0,0.0,0.0,0.0,0.0,0.0,0.0,0.0,0.0,0.0,0.0,0.0,0.0,0.0,0.0,0.0,0.0,0.0,0.0,0.0,0.0,0.0,0.0,0.0,0.0,0.0,0.0,0.0,0.0,0.0,0.0,0.0,0.0,0.0,0.0,0.0,0.0,0.0,0.0,0.0,0.0,0.0,0.0,0.0,0.0,0.0,0.0,0.0,0.0,0.0,0.0,0.0,0.0,0.0,0.0,0.0,0.0,0.0,0.0,0.0,0.0,0.0,0.0,0.0,0.0,0.0,0.0,0.0,0.0,0.0,0.0,0.0,0.0,0.0,0.0,0.0,0.0,0.0,0.0,0.0,0.0,0.0,0.0,0.0,0.0,0.0,0.0,0.0,0.0,0.0,0.0,0.0,0.0,0.0,0.0,0.0,0.0,0.0,0.0,0.0,0.0,0.0,0.0,0.0,0.0,0.0,0.0,0.0,0.0,0.0,0.0,0.0,0.0,0.0,0.0,0.0,0.0,0.0,0.0,0.0,0.0,0.0,0.0,0.0,0.0,0.0,0.0,0.0,0.0,0.0,0.0,0.0,0.0,0.0,0.0,0.0,0.0,0.0,0.0,0.0,0.0,0.0,0.0,0.0,0.0,0.0,0.0,0.0,0.0,0.0,0.0,0.0,0.0,0.0,0.0,0.0,0.0,0.0,0.0,0.0,0.0,0.0,0.0,0.0,0.0,0.0,0.0,0.0,0.0,0.0,0.0,0.0,0.0,0.0,0.0,0.0,0.0,0.0,0.0,0.0,0.0,0.0,0.0,0.0,0.0,0.0,0.0,0.0,0.0,0.0,0.0,0.0,0.0,0.0,0.0,0.0,0.0,0.0,0.0,0.0,0.0,0.0,0.0,0.0,0.0,0.0,0.0,0.0,0.0,0.0,0.0,0.0,0.0,0.0,0.0,0.0,0.0,0.0,0.0,0.0,0.0,0.0,0.0,0.0,0.0,0.0,0.0,0.0,0.0,0.0,0.0,0.0,0.0,0.0,0.0,0.0,0.0,0.0,0.0,0.0,0.0,0.0,0.0,0.0,0.0,0.0,0.0,0.0,0.0,0.0,0.0,0.0,0.0,0.0,0.0,0.0,0.0,0.0,0.0,0.0,0.0,0.0,0.0,0.0,0.0,0.0,0.0,0.0,0.0,0.0,0.0,0.0,0.0,0.0,0.0,0.0,0.0,0.0,0.0,0.0,0.0,0.0,0.0,0.0,0.0,0.0,0.0,0.0,0.0,0.0,0.0,0.0,0.0,0.0,0.0,0.0,0.0,0.0,0.0,0.0,0.0,0.0,0.0,0.0,0.0,0.0,0.0,0.0,0.0,0.0,0.0,0.0,0.0,0.0,0.0,0.0,0.0,0.0,0.0,0.0,0.0,0.0,0.0,0.0,0.0,0.0,0.0,0.0,0.0,0.0,0.0,0.0,0.0,0.0,0.0,0.0,0.0,0.0,0.0,0.0,0.0,0.0,0.0,0.0,0.0,0.0,0.0,0.0,0.0,0.0,0.0,0.0,0.0,0.0,0.0,0.0,0.0,0.0,0.0,0.0,0.0,0.0,0.0,0.0,0.0,0.0,0.0,0.0,0.0,0.0,0.0,0.0,0.0,0.0,0.0,0.0,0.0,0.0,0.0,0.0,0.0,0.0,0.0,0.0,0.0,0.0,0.0,0.0,0.0,0.0,0.0,0.0,0.0,0.0,0.0,0.0,0.0,0.0,0.0,0.0,0.0,0.0,0.0,0.0,0.0,0.0,0.0,0.0,0.0,0.0,0.0,0.0,0.0,0.0,0.0,0.0,0.0,0.0,0.0,0.0,0.0,0.0,0.0,0.0,0.0,0.0,0.0,0.0,0.0,0.0,0.0,0.0,0.0,0.0,0.0,0.0,0.0,0.0,0.0,0.0,0.0,0.0,0.0,0.0,0.0,0.0,0.0,0.0,0.0,0.0,0.0,0.0,0.0,0.0,0.0,0.0,0.0,0.0,0.0,0.0,0.0,0.0,0.0,0.0,0.0,0.0,0.0,0.0,0.0,0.0,0.0,0.0,0.0,0.0,0.0,0.0,0.0,0.0,0.0,0.0,0.0,0.0,0.0,0.0,0.0,0.0,0.0,0.0,0.0,0.0,0.0,0.0,0.0,0.0,0.0,0.0,0.0,0.0,0.0,0.0,0.0,0.0,0.0,0.0,0.0,0.0,0.0,0.0,0.0,0.0,0.0,0.0,0.0,0.0,0.0,0.0,0.0,0.0,0.0,0.0,0.0,0.0,0.0,0.0,0.0,0.0,0.0,0.0,0.0,0.0,0.0,0.0,0.0,0.0,0.0,0.0,0.0,0.0,0.0,0.0,0.0,0.0,0.0,0.0,0.0,0.0,0.0,0.0,0.0,0.0,0.0,0.0,0.0,0.0,0.0,0.0,0.0,0.0,0.0,0.0,0.0,0.0,0.0,0.0,0.0,0.0,0.0,0.0,0.0,0.0,0.0,0.0,0.0,0.0,0.0,0.0,0.0,0.0,0.0,0.0,0.0,0.0,0.0,0.0,0.0,0.0,0.0,0.0,0.0,0.0,0.0,0.0,0.0,0.0,0.0,0.0,0.0,0.0,0.0,0.0,0.0,0.0,0.0,0.0,0.0,0.0,0.0,0.0,0.0,0.0,0.0,0.0,0.0,0.0,-0.5011,0.0,0.0,0.0,0.0,0.0,0.0,0.0,0.0,0.0,0.0,0.0,0.0,0.0,0.0,0.0,0.0,0.0,0.0,0.0,0.0,0.0,0.0,0.0,0.0,0.0,0.0,0.0,0.0,0.0,0.0,0.0,0.0,0.0,0.0,0.0,0.0,0.0,0.0,0.0,0.0,0.0,0.0,0.0,0.0,0.0,0.0,0.0,0.0,0.0,0.0,0.0,0.0,0.0,0.0,0.0,0.0,0.0,0.0,0.0,0.0,0.0,0.0,0.0,0.0,0.0,0.0,0.0,0.0,0.0,0.0,0.0,0.0,0.0,0.0,0.0,0.0,0.0,0.0,0.0,0.0,0.0,0.0,0.0,0.0,0.0,0.0,0.0,0.0,0.0,0.0,0.0,0.0,0.0,0.0,0.0,0.0,0.0,0.0,0.0,0.0,0.0,0.0,0.0,0.0,0.0,0.0,0.0,0.0,0.0,0.0,-0.6507,-0.6334,-0.6306,-0.608,-0.5602,0.0,0.0,0.0,0.0,0.0,0.0,0.0,0.0,0.0,0.0,0.0,0.0,0.0,0.0,0.0,0.0,0.0,0.0,0.0,0.0,0.0,0.0,0.0,0.0,0.0,0.0,0.0,0.0,0.0,0.0,0.0,0.0,0.0,0.0,0.0,0.0,0.0,0.0,0.0,0.0,0.0,0.0,0.0,0.0,0.0,0.0,0.0,0.0,0.0,0.0,0.0,0.0,0.0,0.0,0.0,0.0,0.0,0.0,0.0,0.0,0.0,0.0,0.0,0.0,0.0,0.0,0.0,0.0,0.0,0.0,0.0,0.0,0.0,0.0,0.0,0.0,0.0,0.0,0.0,0.0,0.0,0.0,0.0,0.0,0.0,0.0,0.0,0.0,0.0,0.0,0.0,0.0,0.0,0.0,0.0,0.0,0.0,0.0,0.0,0.0,0.0,0.0,0.0,0.0,0.0,0.0,0.0,0.0,0.0,0.0,0.0,0.0,-0.7005,-0.6638,-0.5997,0.0,0.0,0.0,0.0,0.0,0.0,0.0,0.0,0.0,0.0,0.0,0.0,0.0,0.0,0.0,0.0,0.0,0.0,0.0,0.0,0.0,0.0,0.0,0.0,0.0,0.0,0.0,0.0,0.0,0.0,0.0,0.0,0.0,0.0,0.0,0.0,0.0,0.0,0.0,0.0,0.0,0.0,0.0,0.0,0.0,0.0,0.0,0.0,0.0,0.0,0.0,0.0,0.0,0.0,0.0,0.0,0.0,0.0,0.0,0.0,0.0,0.0,0.0,0.0,0.0,0.0,0.0,0.0,0.0,0.0,0.0,0.0,0.0,0.0,0.0,0.0,0.0,0.0,0.0,0.0,0.0,0.0,0.0,0.0,0.0,0.0,0.0,0.0,0.0,0.0,0.0,0.0,0.0,0.0,0.0,0.0,0.0,0.0,0.0,0.0,0.0,0.0,0.0,0.0,0.0,0.0,0.0,0.0,0.0,0.0,-0.7627,-0.7627,-0.7432,0.0,-0.5992,0.0,0.0,0.0,0.0,0.0,0.0,0.0,0.0,0.0,0.0,0.0,0.0,0.0,0.0,0.0,0.0,0.0,0.0,0.0,0.0,0.0,0.0,0.0,0.0,0.0,0.0,0.0,0.0,0.0,0.0,0.0,0.0,0.0,0.0,0.0,0.0,0.0,0.0,0.0,0.0,0.0,0.0,0.0,0.0,0.0,0.0,0.0,0.0,0.0,0.0,0.0,0.0,0.0,0.0,0.0,0.0,0.0,0.0,0.0,0.0,0.0,0.0,0.0,0.0,0.0,0.0,0.0,0.0,0.0,0.0,0.0,0.0,0.0,0.0,0.0,0.0,0.0,0.0,0.0,0.0,0.0,0.0,0.0,0.0,0.0,0.0,0.0,0.0,0.0,0.0,0.0,0.0,0.0,0.0,0.0,0.0,0.0,0.0,0.0,0.0,0.0,0.0,0.0,0.0,0.0,0.0,0.0,0.0,0.0,0.0,0.0,-0.808,-0.783,-0.7258,0.0,0.0,0.0,0.0,0.0,0.0,0.0,0.0,0.0,0.0,0.0,0.0,0.0,0.0,0.0,0.0,0.0,0.0,0.0,0.0,0.0,0.0,0.0,0.0,0.0,0.0,0.0,0.0,0.0,0.0,0.0,0.0,0.0,0.0,0.0,0.0,0.0,0.0,0.0,0.0,0.0,0.0,0.0,0.0,0.0,0.0,0.0,0.0,0.0,0.0,0.0,0.0,0.0,0.0,0.0,0.0,0.0,0.0,0.0,0.0,0.0,0.0,0.0,0.0,0.0,0.0,0.0,0.0,0.0,0.0,0.0,0.0,0.0,0.0,0.0,0.0,0.0,0.0,0.0,0.0,0.0,0.0,0.0,0.0,0.0,0.0,0.0,0.0,0.0,0.0,0.0,0.0,0.0,0.0,0.0,0.0,0.0,0.0,0.0,0.0,0.0,0.0,0.0,0.0,0.0,0.0,0.0,0.0,0.0,0.0,-0.8645,0.0,-0.8505,-0.8269,-0.7748,-0.6855,0.0,0.0,0.0,0.0,0.0,0.0,0.0,0.0,0.0,0.0,0.0,0.0,0.0,0.0,0.0,0.0,0.0,0.0,0.0,0.0,0.0,0.0,0.0,0.0,0.0,0.0,0.0,0.0,0.0,0.0,0.0,0.0,0.0,0.0,0.0,0.0,0.0,0.0,0.0,0.0,0.0,0.0,0.0,0.0,0.0,0.0,0.0,0.0,0.0,0.0,0.0,0.0,0.0,0.0,0.0,0.0,0.0,0.0,0.0,0.0,0.0,0.0,0.0,0.0,0.0,0.0,0.0,0.0,0.0,0.0,0.0,0.0,0.0,0.0,0.0,0.0,0.0,0.0,0.0,0.0,0.0,0.0,0.0,0.0,0.0,0.0,0.0,0.0,0.0,0.0,0.0,0.0,0.0,0.0,0.0,0.0,0.0,0.0,0.0,0.0,0.0,0.0,0.0,0.0,0.0,0.0,0.0,0.0,0.0,-0.9178,-0.9124,-0.8976,-0.8828,-0.8331,0.0,0.0,0.0,0.0,0.0,0.0,0.0,0.0,0.0,0.0,0.0,0.0,0.0,0.0,0.0,0.0,0.0,0.0,0.0,0.0,0.0,0.0,0.0,0.0,0.0,0.0,0.0,0.0,0.0,0.0,0.0,0.0,0.0,0.0,0.0,0.0,0.0,0.0,0.0,0.0,0.0,0.0,0.0,0.0,0.0,0.0,0.0,0.0,0.0,0.0,0.0,0.0,0.0,0.0,0.0,0.0,0.0,0.0,0.0,0.0,0.0,0.0,0.0,0.0,0.0,0.0,0.0,0.0,0.0,0.0,0.0,0.0,0.0,0.0,0.0,0.0,0.0,0.0,0.0,0.0,0.0,0.0,0.0,0.0,0.0,0.0,0.0,0.0,0.0,0.0,0.0,0.0,0.0,0.0,0.0,0.0,0.0,0.0,0.0,0.0,0.0,0.0,0.0,0.0,0.0,0.0,0.0,0.0,0.0,-0.9672,-0.9672,-0.9646,-0.9581,-0.9502,-0.9113,0.0,0.0,0.0,0.0,0.0,0.0,0.0,0.0,0.0,0.0,0.0,0.0,0.0,0.0,0.0,0.0,0.0,0.0,0.0,0.0,0.0,0.0,0.0,0.0,0.0,0.0,0.0,0.0,0.0,0.0,0.0,0.0,0.0,0.0,0.0,0.0,0.0,0.0,0.0,0.0,0.0,0.0,0.0,0.0,0.0,0.0,0.0,0.0,0.0,0.0,0.0,0.0,0.0,0.0,0.0,0.0,0.0,0.0,0.0,0.0,0.0,0.0,0.0,0.0,0.0,0.0,0.0,0.0,0.0,0.0,0.0,0.0,0.0,0.0,0.0,0.0,0.0,0.0,0.0,0.0,0.0,0.0,0.0,0.0,0.0,0.0,0.0,0.0,0.0,0.0,0.0,0.0,0.0,0.0,0.0,0.0,0.0,0.0,0.0,0.0,0.0,0.0,0.0,0.0,0.0,0.0,0.0,0.0,0.0,-1.0198,0.0,-1.0198,0.0,-1.0135,-0.9816,0.0,0.0,0.0,0.0,0.0,0.0,0.0,0.0,0.0,0.0,0.0,0.0,0.0,0.0,0.0,0.0,0.0,0.0,0.0,0.0,0.0,0.0,0.0,0.0,0.0,0.0,0.0,0.0,0.0,0.0,0.0,0.0,0.0,0.0,0.0,0.0,0.0,0.0,0.0,0.0,0.0,0.0,0.0,0.0,0.0,0.0,0.0,0.0,0.0,0.0,0.0,0.0,0.0,0.0,0.0,0.0,0.0,0.0,0.0,0.0,0.0,0.0,0.0,0.0,0.0,0.0,0.0,0.0,0.0,0.0,0.0,0.0,0.0,0.0,0.0,0.0,0.0,0.0,0.0,0.0,0.0,0.0,0.0,0.0,0.0,0.0,0.0,0.0,0.0,0.0,0.0,0.0,0.0,0.0,0.0,0.0,0.0,0.0,0.0,0.0,0.0,0.0,0.0,0.0,0.0,0.0,0.0,0.0,-1.0694,-1.0815,-1.0842,-1.0907,-1.0828,-1.0794,-1.0457,0.0,0.0,0.0,0.0,0.0,0.0,0.0,0.0,0.0,0.0,0.0,0.0,0.0,0.0,0.0,0.0,0.0,0.0,0.0,0.0,0.0,0.0,0.0,0.0,0.0,0.0,0.0,0.0,0.0,0.0,0.0,0.0,0.0,0.0,0.0,0.0,0.0,0.0,0.0,0.0,0.0,0.0,0.0,0.0,0.0,0.0,0.0,0.0,0.0,0.0,0.0,0.0,0.0,0.0,0.0,0.0,0.0,0.0,0.0,0.0,0.0,0.0,0.0,0.0,0.0,0.0,0.0,0.0,0.0,0.0,0.0,0.0,0.0,0.0,0.0,0.0,0.0,0.0,0.0,0.0,0.0,0.0,0.0,0.0,0.0,0.0,0.0,0.0,0.0,0.0,0.0,0.0,0.0,0.0,0.0,0.0,0.0,0.0,0.0,0.0,0.0,0.0,0.0,0.0,0.0,0.0,0.0,0.0,0.0,-1.2147,-1.2667,-1.2706,-1.2194,-1.2132,-1.1757,0.0,0.0,0.0,0.0,0.0,0.0,0.0,0.0,0.0,0.0,0.0,0.0,0.0,0.0,0.0,0.0,0.0,0.0,0.0,0.0,0.0,0.0,0.0,0.0,0.0,0.0,0.0,0.0,0.0,0.0,0.0,0.0,0.0,0.0,0.0,0.0,0.0,0.0,0.0,0.0,0.0,0.0,0.0,0.0,0.0,0.0,0.0,0.0,0.0,0.0,0.0,0.0,0.0,0.0,0.0,0.0,0.0,0.0,0.0,0.0,0.0,0.0,0.0,0.0,0.0,0.0,0.0,0.0,0.0,0.0,0.0,0.0,0.0,0.0,0.0,0.0,0.0,0.0,0.0,0.0,0.0,0.0,0.0,0.0,0.0,0.0,0.0,0.0,0.0,0.0,0.0,0.0,0.0,0.0,0.0,0.0,0.0,0.0,0.0,0.0,0.0,0.0,0.0,0.0,0.0,0.0,0.0,0.0,0.0,-1.4281,-1.4302,-1.4093,-1.3633,-1.3279,-1.2882,-1.2344,0.0,0.0,0.0,0.0,0.0,0.0,0.0,0.0,0.0,0.0,0.0,0.0,0.0,0.0,0.0,0.0,0.0,0.0,0.0,0.0,0.0,0.0,0.0,0.0,0.0,0.0,0.0,0.0,0.0,0.0,0.0,0.0,0.0,0.0,0.0,0.0,0.0,0.0,0.0,0.0,0.0,0.0,0.0,0.0,0.0,0.0,0.0,0.0,0.0,0.0,0.0,0.0,0.0,0.0,0.0,0.0,0.0,0.0,0.0,0.0,0.0,0.0,0.0,0.0,0.0,0.0,0.0,0.0,0.0,0.0,0.0,0.0,0.0,0.0,0.0,0.0,0.0,0.0,0.0,0.0,0.0,0.0,0.0,0.0,0.0,0.0,0.0,0.0,0.0,0.0,0.0,0.0,0.0,0.0,0.0,0.0,0.0,0.0,0.0,0.0,0.0,0.0,0.0,0.0,0.0,0.0,0.0,0.0,-1.6941,-1.5836,-1.5213,-1.5122,-1.4349,-1.3836,0.0,0.0,0.0,0.0,0.0,0.0,0.0,0.0,0.0,0.0,0.0,0.0,0.0,0.0,0.0,0.0,0.0,0.0,0.0,0.0,0.0,0.0,0.0,0.0,0.0,0.0,0.0,0.0,0.0,0.0,0.0,0.0,0.0,0.0,0.0,0.0,0.0,0.0,0.0,0.0,0.0,0.0,0.0,0.0,0.0,0.0,0.0,0.0,0.0,0.0,0.0,0.0,0.0,0.0,0.0,0.0,0.0,0.0,0.0,0.0,0.0,0.0,0.0,0.0,0.0,0.0,0.0,0.0,0.0,0.0,0.0,0.0,0.0,0.0,0.0,0.0,0.0,0.0,0.0,0.0,0.0,0.0,0.0,0.0,0.0,0.0,0.0,0.0,0.0,0.0,0.0,0.0,0.0,0.0,0.0,0.0,0.0,0.0,0.0,0.0,0.0,0.0,0.0,0.0,0.0,0.0,0.0,0.0,0.0,-1.7532,-1.786,-1.7558,-1.6585,-1.5718,-1.4976,0.0,0.0,0.0,0.0,0.0,0.0,0.0,0.0,0.0,0.0,0.0,0.0,0.0,0.0,0.0,0.0,0.0,0.0,0.0,0.0,0.0,0.0,0.0,0.0,0.0,0.0,0.0,0.0,0.0,0.0,0.0,0.0,0.0,0.0,0.0,0.0,0.0,0.0,0.0,0.0,0.0,0.0,0.0,0.0,0.0,0.0,0.0,0.0,0.0,0.0,0.0,0.0,0.0,0.0,0.0,0.0,0.0,0.0,0.0,0.0,0.0,0.0,0.0,0.0,0.0,0.0,0.0,0.0,0.0,0.0,0.0,0.0,0.0,0.0,0.0,0.0,0.0,0.0,0.0,0.0,0.0,0.0,0.0,0.0,0.0,0.0,0.0,0.0,0.0,0.0,0.0,0.0,0.0,0.0,0.0,0.0,0.0,0.0,0.0,0.0,0.0,0.0,0.0,0.0,0.0,0.0,0.0,0.0,-1.7339,-1.8531,-1.9081,-1.8977,-1.8218,-1.7217,-1.6287,0.0,0.0,0.0,0.0,0.0,0.0,0.0,0.0,0.0,0.0,0.0,0.0,0.0,0.0,0.0,0.0,0.0,0.0,0.0,0.0,0.0,0.0,0.0,0.0,0.0,0.0,0.0,0.0,0.0,0.0,0.0,0.0,0.0,0.0,0.0,0.0,0.0,0.0,0.0,0.0,0.0,0.0,0.0,0.0,0.0,0.0,0.0,0.0,0.0,0.0,0.0,0.0,0.0,0.0,0.0,0.0,0.0,0.0,0.0,0.0,0.0,0.0,0.0,0.0,0.0,0.0,0.0,0.0,0.0,0.0,0.0,0.0,0.0,0.0,0.0,0.0,0.0,0.0,0.0,0.0,0.0,0.0,0.0,0.0,0.0,0.0,0.0,0.0,0.0,0.0,0.0,0.0,0.0,0.0,0.0,0.0,0.0,0.0,0.0,0.0,0.0,0.0,0.0,0.0,0.0,0.0,0.0,0.0,-1.8017,-1.9619,-1.9712,-1.9736,-1.9705,-1.8587,-1.753,0.0,0.0,0.0,0.0,0.0,0.0,0.0,0.0,0.0,0.0,0.0,0.0,0.0,0.0,0.0,0.0,0.0,0.0,0.0,0.0,0.0,0.0,0.0,0.0,0.0,0.0,0.0,0.0,0.0,0.0,0.0,0.0,0.0,0.0,0.0,0.0,0.0,0.0,0.0,0.0,0.0,0.0,0.0,0.0,0.0,0.0,0.0,0.0,0.0,0.0,0.0,0.0,0.0,0.0,0.0,0.0,0.0,0.0,0.0,0.0,0.0,0.0,0.0,0.0,0.0,0.0,0.0,0.0,0.0,0.0,0.0,0.0,0.0,0.0,0.0,0.0,0.0,0.0,0.0,0.0,0.0,0.0,0.0,0.0,0.0,0.0,0.0,0.0,0.0,0.0,0.0,0.0,0.0,0.0,0.0,0.0,0.0,0.0,0.0,0.0,0.0,0.0,0.0,0.0,0.0,0.0,0.0,0.0,-1.8878,-1.9955,-2.0003,-2.0022,-2.0002,-1.8949,-1.7938,0.0,0.0,0.0,0.0,0.0,0.0,0.0,0.0,0.0,0.0,0.0,0.0,0.0,0.0,0.0,0.0,0.0,0.0,0.0,0.0,0.0,0.0,0.0,0.0,0.0,0.0,0.0,0.0,0.0,0.0,0.0,0.0,0.0,0.0,0.0,0.0,0.0,0.0,0.0,0.0,0.0,0.0,0.0,0.0,0.0,0.0,0.0,0.0,-0.9228,0.0,0.0,0.0,0.0,0.0,0.0,0.0,0.0,0.0,0.0,0.0,0.0,0.0,0.0,0.0,0.0,0.0,0.0,0.0,0.0,0.0,0.0,0.0,0.0,0.0,0.0,0.0,0.0,0.0,0.0,0.0,0.0,0.0,0.0,0.0,0.0,0.0,0.0,0.0,0.0,0.0,0.0,0.0,0.0,0.0,0.0,0.0,0.0,0.0,0.0,0.0,0.0,0.0,0.0,0.0,0.0,0.0,0.0,0.0,-1.9281,-2.02,-2.0238,-2.0246,-2.0234,-1.9662,-1.8707,0.0,0.0,0.0,0.0,0.0,0.0,0.0,0.0,0.0,0.0,0.0,0.0,0.0,0.0,0.0,0.0,0.0,0.0,0.0,0.0,0.0,0.0,0.0,0.0,0.0,0.0,0.0,0.0,0.0,0.0,0.0,0.0,0.0,0.0,0.0,0.0,0.0,0.0,0.0,0.0,0.0,0.0,0.0,0.0,0.0,0.0,0.0,0.0,0.0,0.0,0.0,0.0,0.0,0.0,0.0,0.0,0.0,0.0,0.0,0.0,0.0,0.0,0.0,0.0,0.0,0.0,0.0,0.0,0.0,0.0,0.0,0.0,0.0,0.0,0.0,0.0,0.0,0.0,0.0,0.0,0.0,0.0,0.0,0.0,0.0,0.0,0.0,0.0,0.0,0.0,0.0,0.0,0.0,0.0,0.0,0.0,0.0,0.0,0.0,0.0,0.0,0.0,0.0,0.0,0.0,0.0,0.0,-1.8712,-1.9599,-2.0369,-2.0408,-2.0408,-2.0408,-2.0352,-1.9452,-1.765,0.0,0.0,0.0,0.0,0.0,0.0,0.0,0.0,0.0,0.0,0.0,0.0,0.0,0.0,0.0,0.0,0.0,0.0,0.0,0.0,0.0,0.0,0.0,0.0,0.0,0.0,0.0,0.0,0.0,0.0,0.0,0.0,0.0,0.0,0.0,0.0,0.0,0.0,-0.8023,-0.9774,0.0,0.0,0.0,0.0,0.0,0.0,0.0,0.0,-1.2721,0.0,0.0,0.0,0.0,0.0,0.0,0.0,0.0,0.0,0.0,0.0,0.0,0.0,0.0,0.0,0.0,0.0,0.0,0.0,0.0,0.0,0.0,0.0,0.0,0.0,0.0,0.0,0.0,0.0,0.0,0.0,0.0,0.0,0.0,0.0,0.0,0.0,0.0,0.0,0.0,0.0,0.0,0.0,0.0,0.0,0.0,0.0,0.0,0.0,0.0,0.0,0.0,0.0,0.0,0.0,0.0,-1.7805,-1.9357,-2.0279,-2.0452,-2.0484,-2.0488,-2.0469,-2.0476,-1.9638,-1.7975,0.0,0.0,0.0,0.0,0.0,0.0,0.0,0.0,0.0,0.0,0.0,0.0,0.0,0.0,0.0,0.0,0.0,0.0,0.0,0.0,0.0,0.0,0.0,0.0,0.0,0.0,0.0,0.0,0.0,0.0,0.0,0.0,0.0,0.0,0.0,0.0,0.0,0.0,0.0,-1.076,-1.1957,0.0,0.0,0.0,0.0,0.0,0.0,0.0,0.0,-1.3746,0.0,0.0,0.0,0.0,0.0,0.0,0.0,0.0,0.0,0.0,0.0,0.0,0.0,0.0,0.0,0.0,0.0,0.0,0.0,0.0,0.0,0.0,0.0,0.0,0.0,0.0,0.0,0.0,0.0,0.0,0.0,0.0,0.0,0.0,0.0,0.0,0.0,0.0,0.0,0.0,0.0,0.0,0.0,0.0,0.0,0.0,0.0,0.0,0.0,0.0,0.0,0.0,0.0,0.0,0.0,-1.7937,-1.9574,-2.0464,-2.0513,-2.05,-2.0503,-2.0506,-2.0516,-1.9685,0.0,0.0,0.0,0.0,0.0,0.0,0.0,0.0,0.0,0.0,0.0,0.0,0.0,0.0,0.0,0.0,0.0,0.0,0.0,0.0,0.0,0.0,0.0,0.0,0.0,0.0,0.0,0.0,0.0,0.0,0.0,0.0,0.0,0.0,0.0,0.0,0.0,0.0,0.0,0.0,-1.1693,-1.2889,-1.372,0.0,0.0,0.0,0.0,0.0,0.0,-1.4872,-1.4804,0.0,0.0,0.0,0.0,0.0,0.0,0.0,0.0,0.0,0.0,0.0,0.0,0.0,0.0,0.0,0.0,0.0,0.0,0.0,0.0,0.0,0.0,0.0,0.0,0.0,0.0,0.0,0.0,0.0,0.0,0.0,0.0,0.0,0.0,0.0,0.0,0.0,0.0,0.0,0.0,0.0,0.0,0.0,0.0,0.0,0.0,0.0,0.0,0.0,0.0,0.0,0.0,0.0,0.0,0.0,-1.7981,-1.9648,-2.0511,-2.0514,-2.0521,-2.0525,-2.0525,-2.0519,-1.9709,0.0,0.0,0.0,0.0,0.0,0.0,0.0,0.0,0.0,0.0,0.0,0.0,0.0,0.0,0.0,0.0,0.0,0.0,0.0,0.0,0.0,0.0,0.0,0.0,0.0,0.0,0.0,0.0,0.0,0.0,0.0,0.0,0.0,0.0,0.0,0.0,0.0,0.0,0.0,0.0,0.0,-1.4045,-1.4885,-1.5724,0.0,0.0,0.0,0.0,-1.6444,-1.6296,0.0,0.0,0.0,0.0,0.0,0.0,0.0,0.0,0.0,0.0,0.0,0.0,0.0,0.0,0.0,0.0,0.0,0.0,0.0,0.0,0.0,0.0,0.0,0.0,0.0,0.0,0.0,0.0,0.0,0.0,0.0,0.0,0.0,0.0,0.0,0.0,0.0,0.0,0.0,0.0,0.0,0.0,0.0,0.0,0.0,0.0,0.0,0.0,0.0,0.0,0.0,0.0,0.0,0.0,0.0,0.0,-1.8047,-1.9695,-2.0597,-2.0597,-2.0594,-2.0597,-2.0593,-2.0591,-1.977,0.0,0.0,0.0,0.0,0.0,0.0,0.0,0.0,0.0,0.0,0.0,0.0,0.0,0.0,0.0,0.0,0.0,0.0,0.0,0.0,0.0,0.0,0.0,0.0,0.0,0.0,0.0,0.0,0.0,0.0,0.0,0.0,0.0,0.0,0.0,0.0,0.0,0.0,0.0,0.0,0.0,-1.5667,-1.6576,-1.7499,-1.8217,0.0,0.0,-1.8852,-1.9017,-1.8513,0.0,0.0,0.0,0.0,0.0,0.0,0.0,0.0,0.0,0.0,0.0,0.0,0.0,0.0,0.0,0.0,0.0,0.0,0.0,0.0,0.0,0.0,0.0,0.0,0.0,0.0,0.0,0.0,0.0,0.0,0.0,0.0,0.0,0.0,0.0,0.0,0.0,0.0,0.0,0.0,0.0,0.0,0.0,0.0,0.0,0.0,0.0,0.0,0.0,0.0,0.0,0.0,0.0,0.0,0.0,-1.8,-1.8057,-1.9716,-2.0601,-2.0601,-2.0604,-2.0604,-2.0604,-2.0602,-1.9778,0.0,0.0,0.0,0.0,0.0,0.0,0.0,0.0,0.0,0.0,0.0,0.0,0.0,0.0,0.0,0.0,0.0,0.0,0.0,0.0,0.0,0.0,0.0,0.0,0.0,0.0,0.0,0.0,0.0,0.0,0.0,0.0,0.0,0.0,0.0,0.0,0.0,0.0,0.0,0.0,0.0,0.0,-1.7299,-1.826,0.0,0.0,0.0,-1.9701,-1.9883,0.0,0.0,0.0,0.0,0.0,0.0,0.0,0.0,0.0,0.0,0.0,0.0,0.0,0.0,0.0,0.0,0.0,0.0,0.0,0.0,0.0,0.0,0.0,0.0,0.0,0.0,0.0,0.0,0.0,0.0,0.0,0.0,0.0,0.0,0.0,0.0,0.0,0.0,0.0,0.0,0.0,0.0,0.0,0.0,0.0,0.0,0.0,0.0,0.0,0.0,0.0,0.0,0.0,0.0,0.0,0.0,0.0,-1.8036,-1.9726,-2.0605,-2.0604,-2.0604,-2.0604,-2.0605,-2.0605,0.0,0.0,0.0,0.0,0.0,0.0,0.0,0.0,0.0,0.0,0.0,0.0,0.0,0.0,0.0,0.0,0.0,0.0,0.0,0.0,0.0,0.0,0.0,0.0,0.0,0.0,0.0,-0.8386,0.0,0.0,0.0,0.0,0.0,0.0,0.0,0.0,0.0,0.0,0.0,0.0,0.0,0.0,-1.7529,-1.8354,-1.9383,-2.0119,0.0,0.0,-2.0764,-2.0921,-2.0791,-2.0504,0.0,0.0,0.0,0.0,0.0,0.0,0.0,0.0,0.0,0.0,0.0,0.0,0.0,0.0,0.0,0.0,0.0,0.0,0.0,0.0,0.0,0.0,0.0,0.0,0.0,0.0,0.0,0.0,0.0,0.0,0.0,0.0,0.0,0.0,0.0,0.0,0.0,0.0,0.0,0.0,0.0,0.0,0.0,0.0,0.0,0.0,0.0,0.0,0.0,0.0,0.0,0.0,0.0,0.0,0.0,-1.8066,-1.9707,-2.0601,-2.0601,-2.0599,-2.0605,-2.0594,-2.0601,-1.9783,0.0,0.0,0.0,0.0,0.0,0.0,0.0,0.0,0.0,0.0,0.0,0.0,0.0,0.0,0.0,0.0,0.0,0.0,0.0,0.0,0.0,0.0,0.0,0.0,0.0,0.0,0.0,0.0,0.0,0.0,0.0,0.0,0.0,0.0,0.0,0.0,0.0,0.0,0.0,0.0,0.0,-1.9515,-2.039,-2.1429,-2.2177,0.0,0.0,-2.2669,-2.2888,-2.2264,-2.182,-2.1864,0.0,0.0,0.0,0.0,0.0,0.0,0.0,0.0,0.0,0.0,0.0,0.0,0.0,0.0,0.0,0.0,0.0,0.0,0.0,0.0,0.0,0.0,0.0,0.0,0.0,0.0,0.0,0.0,0.0,0.0,0.0,0.0,0.0,0.0,0.0,0.0,0.0,0.0,0.0,0.0,0.0,0.0,0.0,0.0,0.0,0.0,0.0,0.0,0.0,0.0,0.0,0.0,0.0,-1.8273,-1.8796,-1.9942,-2.054,-2.0547,-2.0545,-2.0531,-2.054,-2.0529,-1.9735,0.0,0.0,0.0,0.0,0.0,0.0,0.0,0.0,0.0,0.0,0.0,0.0,0.0,0.0,0.0,0.0,0.0,0.0,0.0,0.0,0.0,0.0,0.0,0.0,0.0,0.0,0.0,0.0,-1.1467,-1.1679,-1.2322,0.0,0.0,0.0,0.0,0.0,0.0,0.0,0.0,0.0,0.0,-2.0967,-2.1918,-2.2885,0.0,0.0,-2.4627,-2.4552,-2.4213,-2.3939,-2.3432,-2.2507,-2.2159,0.0,0.0,0.0,0.0,0.0,0.0,0.0,0.0,0.0,0.0,0.0,0.0,0.0,0.0,0.0,0.0,0.0,0.0,0.0,0.0,0.0,0.0,0.0,0.0,0.0,0.0,0.0,0.0,0.0,0.0,0.0,0.0,0.0,0.0,0.0,0.0,0.0,0.0,0.0,0.0,0.0,0.0,0.0,0.0,0.0,0.0,0.0,0.0,0.0,0.0,0.0,0.0,-1.8414,-1.9253,-2.0341,-2.0886,-2.0883,-2.0899,-2.0886,-2.0873,-2.0628,-1.9819,0.0,0.0,0.0,0.0,0.0,0.0,0.0,0.0,0.0,0.0,0.0,0.0,0.0,0.0,0.0,0.0,0.0,0.0,0.0,0.0,0.0,0.0,0.0,0.0,0.0,0.0,0.0,0.0,-1.2655,-1.2895,-1.3274,0.0,0.0,0.0,0.0,0.0,0.0,0.0,0.0,0.0,0.0,-2.2384,-2.3302,-2.4233,-2.508,-2.5779,-2.5991,-2.5883,-2.5371,-2.5145,-2.4646,-2.3544,0.0,0.0,0.0,0.0,0.0,0.0,0.0,0.0,0.0,0.0,0.0,0.0,0.0,0.0,0.0,0.0,0.0,0.0,0.0,0.0,0.0,0.0,0.0,0.0,0.0,0.0,0.0,0.0,0.0,0.0,-1.2588,0.0,0.0,0.0,0.0,0.0,0.0,0.0,0.0,0.0,0.0,0.0,0.0,0.0,0.0,0.0,0.0,0.0,0.0,0.0,0.0,0.0,0.0,-1.8417,-1.9235,-2.0912,-2.1776,-2.1769,-2.178,-2.1776,-2.1733,-2.0961,-2.0094,-1.9183,0.0,0.0,0.0,0.0,0.0,0.0,0.0,0.0,0.0,0.0,0.0,0.0,0.0,0.0,0.0,0.0,0.0,0.0,0.0,0.0,0.0,0.0,0.0,0.0,0.0,0.0,-1.3411,-1.4053,-1.4391,0.0,0.0,0.0,0.0,0.0,0.0,0.0,0.0,0.0,0.0,-2.2834,-2.3835,-2.4585,-2.5584,-2.6285,-2.634,-2.6385,-2.6428,-2.6475,-2.5834,-2.5305,0.0,0.0,0.0,0.0,0.0,0.0,0.0,0.0,0.0,0.0,0.0,0.0,0.0,0.0,0.0,0.0,0.0,0.0,0.0,0.0,0.0,0.0,0.0,0.0,0.0,0.0,0.0,-1.4216,-1.4197,0.0,0.0,0.0,0.0,0.0,0.0,0.0,0.0,0.0,0.0,0.0,-1.8634,-1.9258,0.0,0.0,0.0,0.0,0.0,0.0,0.0,0.0,0.0,0.0,0.0,0.0,-1.9503,-2.0869,-2.1457,-2.2017,-2.2585,-2.2605,-2.2348,-2.1807,-2.15,-2.0694,-1.9239,0.0,0.0,0.0,0.0,0.0,0.0,0.0,0.0,0.0,0.0,0.0,0.0,0.0,0.0,0.0,0.0,0.0,0.0,0.0,0.0,0.0,0.0,0.0,0.0,0.0,-1.3548,0.0,0.0,0.0,0.0,0.0,0.0,0.0,0.0,0.0,0.0,0.0,-2.174,-2.3118,-2.4156,-2.5303,-2.6643,-2.7214,-2.7684,0.0,0.0,0.0,0.0,0.0,0.0,0.0,0.0,0.0,0.0,0.0,0.0,0.0,0.0,-2.5126,-2.3878,-2.3673,-2.3689,-2.3654,0.0,0.0,0.0,0.0,0.0,0.0,0.0,0.0,0.0,0.0,0.0,0.0,0.0,0.0,-1.5882,0.0,-1.5345,0.0,0.0,0.0,0.0,0.0,0.0,0.0,0.0,-1.9796,-2.0315,-2.0327,-2.0942,-2.0932,0.0,-2.0432,-2.0221,0.0,0.0,0.0,0.0,0.0,0.0,0.0,0.0,-2.034,-2.172,-2.2246,-2.2804,-2.3431,-2.3745,-2.3517,-2.2698,-2.2105,-2.0978,-1.9253,-1.8163,-1.7061,0.0,0.0,0.0,0.0,0.0,0.0,0.0,0.0,0.0,0.0,0.0,0.0,0.0,0.0,0.0,0.0,0.0,0.0,0.0,0.0,0.0,0.0,0.0,-1.4793,0.0,0.0,0.0,0.0,0.0,0.0,0.0,0.0,0.0,-2.0422,-2.2027,-2.3584,-2.4524,-2.5671,-2.6841,-2.7959,0.0,0.0,0.0,0.0,0.0,0.0,0.0,-2.8253,-2.7742,-2.7439,-2.7266,-2.7327,-2.7877,-2.8302,-2.8297,0.0,0.0,-2.6045,-2.5581,-2.5581,-2.5565,-2.5565,-2.5565,-2.5531,-2.5981,-2.6395,0.0,0.0,0.0,0.0,0.0,0.0,0.0,0.0,-1.7573,-1.7635,0.0,-1.7642,0.0,0.0,0.0,0.0,0.0,-1.9545,0.0,0.0,-2.1942,-2.2738,-2.27,-2.2822,-2.2857,-2.2844,-2.2861,-2.2882,-2.2669,-1.9623,0.0,0.0,0.0,0.0,0.0,0.0,-2.0949,-2.1823,-2.3178,-2.405,-2.4354,-2.5137,-2.5143,-2.4197,-2.2634,-2.1002,-1.9341,-1.9263,-1.8496,-1.6867,-1.5934,0.0,0.0,0.0,0.0,0.0,0.0,0.0,0.0,0.0,0.0,0.0,0.0,0.0,0.0,0.0,0.0,0.0,0.0,0.0,0.0,-1.5872,0.0,0.0,0.0,0.0,0.0,0.0,0.0,0.0,0.0,0.0,-2.3351,-2.3981,-2.4849,-2.5791,0.0,0.0,0.0,0.0,-2.9855,-2.9874,-2.9943,-3.0013,-3.0013,-2.9368,-2.8871,-2.8859,0.0,0.0,-2.779,-2.918,-3.0278,-3.0305,-3.1563,-3.1685,-2.8245,-2.7665,-2.7627,-2.7578,-2.7581,-2.7528,-2.7516,-2.7702,-2.7667,-1.9308,0.0,0.0,0.0,0.0,-1.9364,-2.0019,-2.069,-2.0783,-2.0864,-2.0909,-2.0318,0.0,0.0,0.0,0.0,0.0,0.0,-2.1932,-2.1969,-2.3051,-2.3539,-2.3518,-2.4196,-2.4207,-2.366,-2.373,-2.3443,-2.2805,-2.1907,-2.118,-2.0623,0.0,0.0,0.0,0.0,-2.2078,-2.3482,-2.3935,-2.4478,-2.5227,-2.5466,-2.489,-2.3426,-2.2343,-2.1274,-2.0156,-1.9587,-1.9077,-1.8563,-1.7142,0.0,0.0,0.0,0.0,0.0,0.0,0.0,0.0,0.0,0.0,0.0,0.0,0.0,0.0,0.0,0.0,0.0,0.0,0.0,-1.6875,-1.7174,-1.7279,0.0,0.0,0.0,0.0,0.0,0.0,0.0,0.0,0.0,-2.6186,-2.6435,-2.6862,0.0,0.0,-2.8984,-2.9569,-3.0409,-3.1002,-3.1082,-3.1588,0.0,0.0,-3.1834,-3.1667,-3.1634,-3.1481,-3.136,-3.138,-3.184,-3.2192,-3.2189,-3.2601,-3.2583,-3.1668,-3.0762,-3.0314,-3.0261,-3.0242,-3.0471,-3.1009,-3.1142,-3.1123,-2.1322,-2.0317,-2.0102,-2.0079,-2.0234,-2.0761,-2.1361,-2.1924,-2.2025,-2.2152,-2.2252,-2.1755,-2.1306,-2.0937,-2.1448,0.0,0.0,0.0,-2.3046,-2.3084,-2.3926,-2.4338,-2.4364,-2.4893,-2.4938,-2.4509,-2.4534,-2.4264,-2.3811,-2.3863,-2.3458,-2.2649,0.0,0.0,-2.2214,-2.2538,-2.3211,-2.4215,-2.458,-2.4995,-2.5551,-2.5583,-2.4929,-2.3581,-2.2727,-2.1908,-2.1044,-2.0224,-1.9614,-1.9294,-1.7955,-1.6828,0.0,0.0,0.0,0.0,0.0,0.0,0.0,0.0,0.0,0.0,0.0,-1.2889,-1.3736,0.0,0.0,0.0,-1.6521,-1.7597,-1.8204,-1.8538,0.0,0.0,0.0,0.0,0.0,0.0,0.0,-2.5532,-2.6266,-2.7082,-2.8095,-2.8753,-2.9193,-2.9317,-2.9691,-3.0273,-3.1124,0.0,-3.2139,-3.2193,-3.2632,-3.2974,-3.3023,-3.3033,-3.3004,-3.2929,-3.2937,-3.2987,-3.301,-3.3302,-3.3555,-3.3615,-3.3856,-3.397,-3.3611,-3.3017,-3.2449,-3.2089,-3.1999,-3.219,-3.2675,-3.2771,-3.279,-2.3018,-2.2407,-2.1872,-2.1617,-2.1587,-2.1716,-2.1862,-2.1981,-2.2046,-2.22,-2.2374,-2.2391,-2.2436,-2.2494,-2.2482,0.0,-2.2609,-2.3423,-2.3771,-2.3822,-2.4619,-2.5031,-2.5089,-2.5076,-2.5113,-2.518,-2.5198,-2.5231,-2.5262,-2.5322,-2.4975,-2.4196,-2.3462,-2.3088,-2.3127,-2.3812,-2.4237,-2.4328,-2.5096,-2.5518,-2.5518,-2.557,-2.5174,-2.4294,-2.3582,-2.276,-2.1831,-2.1036,-2.0233,-1.9417,-1.857,-1.774,-1.6926,0.0,0.0,0.0,0.0,0.0,0.0,0.0,0.0,0.0,0.0,0.0,0.0,0.0,0.0,0.0,-1.8246,0.0,-1.9378,-2.0077,0.0,0.0,0.0,-2.3331,-2.412,-2.4947,-2.5782,-2.6727,0.0,0.0,-2.9398,-3.0868,-3.1602,-3.0752,-3.1272,-3.2058,-3.2905,-3.3093,-3.3229,-3.3219,-3.335,-3.3429,-3.3577,-3.3557,-3.3541,-3.3479,-3.3324,-3.344,-3.3527,-3.4011,-3.4486,-3.4589,-3.5212,-3.5456,-3.4643,-3.4458,-3.4223,-3.333,-3.3063,-3.3044,-3.3205,-3.3243,-3.3282,-2.4769,-2.4635,-2.3925,-2.3056,-2.2255,-2.2911,-2.3288,-2.3391,-2.3529,-2.3693,-2.3886,-2.391,-2.4023,-2.4118,-2.3493,-2.3611,-2.4257,-2.4445,-2.454,-2.4554,-2.4743,-2.4884,-2.4945,-2.5004,-2.5025,-2.5051,-2.5094,-2.5149,-2.516,-2.5217,-2.5146,-2.4945,-2.4803,-2.4454,-2.3929,-2.4092,-2.4517,-2.5174,-2.5394,-2.5525,-2.557,-2.5595,-2.5174,-2.4313,-2.4116,-2.331,-2.1876,-2.1609,-2.1097,-2.0247,-1.9417,-1.8902,-1.868,-1.7044,0.0,0.0,0.0,0.0,0.0,0.0,0.0,0.0,0.0,-1.5718,-1.718,0.0,-1.7894,0.0,-2.0094,-2.1285,-2.1997,-2.2249,0.0,0.0,-2.4362,-2.5166,-2.5959,-2.682,-2.769,-2.8559,-2.9603,-3.0492,-3.1081,-3.2174,-3.3044,-3.3422,-3.3111,-3.2915,-3.3145,-3.3798,-3.4236,-3.4289,-3.4769,-3.525,-3.5204,-3.525,-3.5178,-3.5177,-3.5142,-3.5174,-3.5174,-3.5329,-3.5512,-3.5565,-3.5655,-3.5698,-3.5477,-3.5471,-3.5396,-3.5117,-3.4555,-3.426,-3.482,-3.4952,-3.494,-2.5216,-2.5302,-2.4882,-2.4329,-2.3732,-2.3651,-2.3696,-2.3822,-2.3935,-2.4116,-2.4319,-2.4439,-2.4729,-2.5099,-2.4701,-2.5011,-2.5794,-2.5831,-2.5863,-2.5913,-2.591,-2.5925,-2.5952,-2.5641,-2.5499,-2.5536,-2.5196,-2.5082,-2.5088,-2.5137,-2.5153,-2.5145,-2.5228,-2.5061,-2.4687,-2.4703,-2.4979,-2.5456,-2.549,-2.5544,-2.5609,-2.5595,-2.5349,-2.4877,-2.4485,-2.3694,-2.2377,-2.1986,-2.1399,-2.0533,-1.9717,-1.9261,-1.9275,-1.8013,-1.7063,0.0,0.0,0.0,0.0,0.0,0.0,0.0,0.0,0.0,0.0,0.0,-1.9581,-2.0834,-2.177,-2.2818,-2.4044,-2.4167,-2.4626,-2.5815,-2.6369,-2.697,-2.7811,-2.8334,-2.9109,-3.0358,-3.092,-3.1549,-3.2372,-3.3122,-3.3825,-3.4457,-3.4465,-3.4393,-3.4439,-3.488,-3.5176,-3.5187,-3.5607,-3.5943,-3.5934,-3.5948,-3.5938,-3.5858,-3.5846,-3.584,-3.584,-3.584,-3.5866,-3.5891,-3.5866,-3.584,-3.5853,-3.5833,-3.5838,-3.5811,-3.576,-3.5678,-3.5669,-3.5678,-3.5637,-2.5281,-2.5369,-2.5322,-2.5383,-2.5409,-2.4258,-2.382,-2.3975,-2.4097,-2.4308,-2.4524,-2.4688,-2.5168,-2.5837,-2.5927,-2.6354,-2.7081,-2.71,-2.7153,-2.7257,-2.7276,-2.729,-2.7266,-2.6585,-2.6291,-2.6313,-2.5646,-2.5313,-2.5367,-2.5387,-2.5393,-2.5393,-2.5352,-2.534,-2.5354,-2.537,-2.5388,-2.5421,-2.5483,-2.5538,-2.5596,-2.5609,-2.5595,-2.5576,-2.4874,-2.4044,-2.3193,-2.2386,-2.1562,-2.0694,-1.9828,-1.9386,-1.9417,-1.8648,-1.8171,0.0,-1.8064,0.0,0.0,0.0,0.0,0.0,0.0,0.0,0.0,-2.1038,-2.1792,-2.3322,-2.3634,-2.4355,-2.5807,-2.5918,-2.6572,-2.8073,-2.8267,-2.8662,-2.9589,-2.9744,-3.0353,-3.198,-3.2259,-3.2635,-3.3375,-3.3972,-3.4458,-3.4817,-3.5364,-3.5719,-3.5869,-3.5841,-3.5836,-3.5914,-3.5951,-3.5997,-3.6001,-3.6001,-3.5974,-3.5919,-3.5895,-3.5895,-3.5909,-3.5909,-3.5948,-3.6065,-3.6124,-3.6143,-3.6192,-3.6279,-3.6267,-3.6364,-3.6859,-3.7,-3.6284,-3.6144,-3.6037,-2.6612,-2.6685,-2.6143,-2.5992,-2.5993,-2.5339,-2.5204,-2.5404,-2.5538,-2.5789,-2.6156,-2.618,-2.6334,-2.6598,-2.6674,-2.6823,-2.701,-2.7027,-2.7081,-2.7135,-2.7153,-2.7187,-2.729,-2.714,-2.7078,-2.7091,-2.694,-2.6862,-2.6877,-2.6953,-2.6963,-2.6944,-2.6382,-2.6123,-2.6135,0.0,0.0,0.0,-2.548,-2.5522,-2.5518,-2.5577,-2.5602,-2.5602,-2.544,0.0,-2.4086,-2.3227,-2.2386,-2.1582,-2.0717,0.0,0.0,0.0,0.0,0.0,0.0,0.0,0.0,0.0,0.0,0.0,-2.2324,-2.2262,-2.2613,-2.3898,-2.4851,-2.5213,-2.6435,-2.7371,-2.7678,-2.7712,-2.8129,-2.909,-2.9226,-2.9829,-3.1274,-3.1508,-3.1936,-3.2915,-3.3654,-3.4147,-3.436,-3.5054,-3.5538,-3.5593,-3.5845,-3.597,-3.5986,-3.5997,-3.5985,-3.5965,-3.5991,-3.601,-3.601,-3.601,-3.5991,-3.5985,-3.5965,-3.6001,-3.6068,-3.6044,-3.6298,-3.6863,-3.6985,-3.7203,-3.7808,-3.7995,-3.7908,-3.7986,-3.8132,-3.7993,-3.7143,-3.7444,-3.7883,-2.6825,0.0,-2.6629,-2.6567,0.0,-2.641,-2.6451,-2.6703,-2.6152,-2.6103,-2.639,-2.6502,-2.6817,-2.7308,-2.7368,-2.7653,-2.8144,-2.8126,-2.8203,-2.8297,-2.8315,-2.8371,-2.8444,-2.8029,-2.7857,-2.7872,-2.7495,-2.7323,-2.732,-2.7365,-2.7396,-2.7411,-2.7049,-2.6896,-2.6904,-2.6174,-2.5661,-2.5406,-2.5432,-2.5456,-2.5449,-2.5517,-2.555,-2.555,0.0,0.0,0.0,0.0,0.0,0.0,0.0,0.0,0.0,0.0,0.0,-2.1154,-2.077,-2.0891,-2.175,-2.183,-2.2377,-2.3627,-2.4545,-2.4823,-2.4409,-2.5987,-2.6999,-2.6995,-2.7774,-2.842,-2.8801,-2.8855,-2.9348,-3.0539,-3.0734,-3.1259,-3.2369,-3.2672,-3.3028,-3.3832,-3.4364,-3.4803,-3.5237,-3.5627,-3.5929,-3.5962,-3.5966,-3.6017,-3.6013,-3.6013,-3.6013,-3.6021,-3.6007,-3.601,-3.6009,-3.601,-3.6205,-3.6498,-3.6635,-3.6809,-3.7216,-3.727,-3.7443,-3.7853,-3.7931,-3.8065,-3.8408,-3.8561,-3.8537,-3.8596,-3.8881,-3.9004,-3.8536,-3.8488,-3.8442,-2.6572,-2.6674,-2.6809,-2.6957,-2.7117,-2.7181,-2.74,-2.7643,0.0,0.0,0.0,-2.6776,-2.7273,-2.7962,-2.8029,-2.8529,-2.9212,-2.9272,-2.9334,-2.9454,-2.9531,-2.955,-2.9551,-2.8914,-2.8631,-2.8648,-2.8045,-2.7723,-2.7738,-2.7786,-2.7818,-2.7834,-2.7744,-2.7618,-2.7462,-2.6911,-2.6312,-2.5753,-2.5495,-2.5397,-2.5385,-2.5445,-2.5488,-2.5488,-2.5543,-2.524,-2.4561,-2.438,-2.3969,-2.3271,-2.3149,-2.3104,-2.3093,-2.3111,-2.3107,-2.3101,-2.3107,-2.3169,-2.3306,-2.3343,-2.3773,-2.479,-2.6486,-2.7098,-2.6229,-2.7597,-2.8532,-2.8532,-2.8658,-2.9074,-2.9881,-2.9952,-3.0564,-3.2085,-3.226,-3.2591,-3.3409,-3.359,-3.3975,-3.4744,-3.4944,-3.5206,-3.5869,-3.5981,-3.6005,-3.602,-3.5988,-3.6091,-3.6166,-3.6106,-3.6083,-3.6267,-3.6347,-3.6308,-3.6464,-3.6562,-3.6757,-3.7401,-3.7519,-3.7812,-3.8378,-3.8613,-3.8652,-3.8808,-3.8827,-3.8922,-3.9034,-3.9147,-3.9047,-3.9044,-3.9546,-4.0044,-3.9981,-3.9457,-3.9062,-2.6345,-2.6537,-2.6674,-2.6725,-2.6791,-2.7085,-2.74,-2.7713,-2.7822,-2.7924,-2.8092,-2.8254,-2.8415,-2.8579,-2.8764,-2.8929,-2.9044,-2.9138,-2.9267,0.0,-2.9353,-2.9394,-2.9512,-2.9457,-2.942,-2.9458,-2.9382,-2.9363,-2.9363,-2.9342,-2.9396,-2.9372,-2.8782,-2.8127,-2.7538,-2.747,-2.7408,-2.7344,-2.599,-2.5303,-2.5322,-2.5378,-2.5412,-2.5429,-2.5488,-2.5485,-2.5421,-2.4703,-2.423,-2.4102,-2.3456,-2.3104,-2.3093,-2.315,-2.3107,-2.3096,-2.3101,-2.3417,-2.4163,-2.4222,-2.4926,-2.6527,-2.8244,-2.8869,-2.8051,-2.8846,-2.9414,-2.9453,-3.0036,-3.0811,-3.1602,-3.1708,-3.2092,-3.3025,-3.3197,-3.3544,-3.4378,-3.4495,-3.4831,-3.563,-3.583,-3.5795,-3.5955,-3.6013,-3.6027,-3.6025,-3.6246,-3.6328,-3.6834,-3.6464,-3.6367,-3.6912,-3.7105,-3.7415,-3.7858,-3.8207,-3.8227,-3.8363,-3.84,-3.8498,-3.8771,-3.8812,-3.9032,-3.9605,-3.9705,-3.996,-4.0488,-4.0761,-4.0602,-4.0563,-4.0736,-4.0848,-4.0818,-4.0656,-4.0606,-2.6187,-2.6345,-2.6435,-2.6572,-2.6725,-2.7053,-2.7276,-2.7461,-2.7806,-2.8081,-2.8291,-2.838,-2.851,-2.8662,-2.8737,-2.8876,-2.9017,-2.9062,-2.9156,-2.9246,-2.9272,-2.9314,-2.9394,-2.9511,-2.955,-2.9569,-2.9589,-2.9664,-2.9645,-2.9663,-2.9735,-2.977,-2.946,-2.8922,-2.8211,-2.8227,-2.806,-2.7636,-2.6534,-2.597,-2.5953,-2.5543,-2.5331,-2.536,-2.5448,-2.5515,-2.5549,-2.5195,-2.5001,-2.4993,-2.4657,-2.4462,-2.4466,-2.4507,-2.4502,-2.4508,-2.45,-2.4896,-2.574,-2.6251,-2.7054,-2.8305,-2.9144,-2.963,-2.9667,-3.0048,-3.0484,-3.0915,-3.1308,-3.1854,-3.2692,-3.2803,-3.3146,-3.4017,-3.4111,-3.4456,-3.5229,-3.5401,-3.5557,-3.5927,-3.6013,-3.602,-3.6004,-3.6018,-3.6243,-3.662,-3.7049,-3.755,-3.7909,-3.7639,-3.7507,-3.7895,-3.7753,-3.7825,-3.8443,-3.883,-3.9064,-3.924,-3.9236,-3.9451,-3.9802,-3.9942,-4.0109,-4.0452,-4.0533,-4.0691,-4.1082,-4.1105,-4.1111,-4.1113,-4.1113,-4.1113,-4.111,-4.1105,-4.1116,-2.6422,-2.6416,-2.649,-2.6569,-2.6742,-2.6989,-2.71,-2.7213,-2.7474,-2.776,-2.8081,-2.8219,-2.8371,-2.851,-2.858,-2.873,-2.89,-2.8947,-2.904,-2.9156,-2.9225,-2.9249,-2.9272,-2.9394,-2.9472,-2.9472,-2.9531,-2.9569,-2.9607,-2.9645,-2.9718,-2.9808,-2.9874,-2.9585,-2.8998,-2.9053,-2.8793,-2.8146,-2.7421,-2.6948,-2.6749,-2.5981,-2.5581,-2.5572,-2.5502,-2.5476,-2.5492,-2.5556,-2.5583,-2.5596,-2.5599,-2.56,-2.561,-2.5842,-2.5991,-2.5983,-2.6169,-2.6568,-2.7259,-2.8103,-2.8869,-2.9533,-2.9767,-3.0235,-3.0977,-3.1133,-3.1409,-3.2001,-3.2262,-3.2753,-3.3515,-3.3691,-3.4039,-3.4851,-3.4986,-3.5254,-3.5864,-3.602,-3.602,-3.602,-3.6013,-3.606,-3.6239,-3.6345,-3.6738,-3.7496,-3.8305,-3.8818,-3.8803,-3.8916,-3.9099,-3.9006,-3.8612,-3.8545,-3.8974,-3.9477,-3.9848,-4.0082,-4.0082,-4.0335,-4.0823,-4.1042,-4.109,-4.1042,-4.1062,-4.1065,-4.1085,-4.1108,-4.1116,-4.1103,-4.1107,-4.111,-4.1113,-4.1113,-4.111,-2.7431,-2.7064,-2.7073,-2.6966,-2.6776,-2.6775,-2.6975,-2.7233,-2.7261,-2.7413,-2.7848,-2.8071,-2.8245,-2.8264,-2.8484,-2.8612,-2.8662,-2.8761,-2.8881,-2.9017,-2.904,-2.9089,-2.9203,-2.9291,-2.9332,-2.9353,-2.9453,-2.9531,-2.9588,-2.9607,-2.9664,-2.979,-2.9874,-2.9851,-2.9791,-2.987,-2.9897,-2.9874,-2.9093,-2.8332,-2.7599,-2.6807,-2.6392,-2.6376,-2.5755,-2.5434,-2.56,-2.5511,-2.5549,-2.5596,-2.5653,-2.5638,-2.5703,-2.6359,-2.6825,-2.6899,-2.7546,-2.8041,-2.8212,-2.9003,-2.9533,-2.965,-3.0313,-3.1055,-3.1875,-3.1992,-3.2031,-3.2287,-3.2871,-3.3643,-3.4453,-3.457,-3.4902,-3.5644,-3.5798,-3.593,-3.597,-3.6009,-3.6009,-3.6009,-3.6111,-3.6289,-3.7051,-3.7402,-3.7788,-3.8333,-3.9142,-3.97,-3.9731,-4.0194,-4.0584,-4.0589,-4.0121,-3.9965,-4.0506,-4.0862,-4.0818,-4.0896,-4.0955,-4.0994,-4.1072,-4.1111,-4.1115,-4.11,-4.11,-4.1105,-4.1113,-4.1101,-4.1108,-4.1111,-4.1114,-4.1116,-4.1105,-4.111,-4.1113,-2.772,-2.7562,-2.7717,-2.7857,-2.7883,-2.7956,-2.8135,-2.8334,-2.8489,-2.8655,-2.8827,-2.9162,-2.8882,-2.8227,-2.8353,-2.8484,-2.8612,-2.8662,-2.8761,-2.89,-2.897,-2.9021,-2.9085,-2.9181,-2.9246,-2.9289,-2.9372,-2.9453,-2.955,-2.9608,-2.97,-2.9808,-2.9876,-2.991,-2.9924,-3.0038,-3.0102,-3.0102,-2.9818,-2.9497,-2.9077,-2.7892,-2.724,-2.7217,-2.6965,-2.6843,-2.6911,-2.6947,-2.6989,-2.7013,-2.7064,-2.7064,-2.7076,-2.7459,-2.7673,-2.776,-2.8501,-2.8984,-2.9012,-2.9821,-3.0528,-3.1036,-3.1368,-3.1934,-3.2792,-3.3339,-3.3632,-3.3671,-3.3964,-3.4515,-3.5304,-3.5465,-3.5624,-3.5936,-3.6015,-3.6015,-3.6015,-3.6015,-3.6171,-3.666,-3.6893,-3.7261,-3.796,-3.858,-3.9,-3.9345,-4.0008,-4.0511,-4.0599,-4.0891,-4.1061,-4.107,-4.0758,-4.0725,-4.1042,-4.1114,-4.1109,-4.1109,-4.1109,-4.1109,-4.1109,-4.1109,-4.1109,-4.11,-4.11,-4.1106,-4.11,-4.1113,-4.1101,-4.1101,-4.1108,-4.1111,-4.1116,-4.1119,-4.1103,-2.819,-2.8135,-2.8181,-2.8373,-2.8624,-2.8774,-2.8931,-2.9076,-2.93,-2.9472,-2.9592,-2.9824,-2.9532,-2.8798,-2.8834,-2.8999,-2.9142,-2.8995,-2.8964,-2.9046,-2.8967,-2.8929,-2.8975,-2.9089,-2.9175,-2.924,-2.9286,-2.9353,-2.9492,-2.9645,-2.9736,-2.9808,-2.9878,-2.991,-2.9905,-3.0038,-3.0102,-3.0102,-3.0157,-3.0204,-3.0013,-2.8995,-2.8307,-2.8152,-2.7911,-2.7822,-2.7873,-2.7962,-2.798,-2.7978,-2.8043,-2.8067,-2.812,-2.8382,-2.8661,-2.8924,-2.9492,-2.9861,-2.9871,-3.0677,-3.1424,-3.2031,-3.2304,-3.2831,-3.3651,-3.4334,-3.4783,-3.5037,-3.5057,-3.5349,-3.5857,-3.6021,-3.6007,-3.6007,-3.6007,-3.6066,-3.6319,-3.6358,-3.6729,-3.7511,-3.7958,-3.8459,-3.9172,-3.9786,-4.0145,-4.0233,-4.0682,-4.1106,-4.1114,-4.1089,-4.1103,-4.111,-4.1091,-4.1097,-4.1103,-4.1103,-4.111,-4.111,-4.111,-4.111,-4.111,-4.111,-4.111,-4.1109,-4.1109,-4.1114,-4.1106,-4.11,-4.1109,-4.1113,-4.1101,-4.1108,-4.1111,-4.1111,-4.1111,-2.9286,-2.8718,-2.8354,-2.8417,-2.8543,-2.8707,-2.8844,-2.9081,-2.9191,-2.9361,-2.9653,-2.985,-2.9954,-2.9962,-3.0272,-3.0451,-3.0449,-2.9917,-2.9674,-2.9699,-2.9105,-2.8804,-2.8887,-2.8975,-2.9076,-2.9333,-2.937,-2.9405,-2.9511,-2.9608,-2.9738,-2.9789,-2.9859,-2.9893,-2.9924,-3.0022,-3.0102,-3.0102,-3.0161,-3.0204,-3.0204,-3.0089,-2.9639,-2.8957,-2.8253,-2.7923,-2.7918,-2.7911,-2.7981,-2.8017,-2.8128,-2.8121,-2.8217,-2.8974,-2.978,-3.0487,-3.0657,-3.0728,-3.0817,-3.149,-3.2082,-3.2265,-3.2968,-3.371,-3.453,-3.4744,-3.5115,-3.5837,-3.5815,-3.5916,-3.5971,-3.6013,-3.6055,-3.6111,-3.6072,-3.6423,-3.7168,-3.7246,-3.7636,-3.8394,-3.8993,-3.9665,-4.073,-4.1018,-4.0955,-4.0944,-4.1056,-4.1109,-4.1117,-4.111,-4.111,-4.111,-4.111,-4.111,-4.111,-4.111,-4.111,-4.111,-4.111,-4.111,-4.111,-4.111,-4.111,-4.111,-4.111,-4.1103,-4.1114,-4.1106,-4.1115,-4.1105,-4.1101,-4.1108,-4.1108,-4.1108,-4.1108,-2.9597,-2.9567,-2.9492,-2.9585,-2.9772,-2.9909,-3.0074,-3.0256,-3.0421,-3.064,-3.0842,-3.1008,-3.1272,-3.1545,-3.1679,-3.1306,-3.0594,-3.0406,-3.0394,-3.0468,-3.0278,-3.0231,-3.0308,-3.0417,-3.0491,-3.0509,-3.0143,-2.9724,-2.9411,-2.955,-2.9664,-2.9719,-2.9827,-2.9859,-2.991,-2.9991,-3.0072,-3.0083,-3.0128,-3.0157,-3.0185,-3.0204,-3.0046,-2.9792,-2.9493,-2.9353,-2.9413,-2.9456,-2.9531,-2.9574,-2.9641,-2.9685,-2.9734,-3.0069,-3.0403,-3.075,-3.0789,-3.1036,-3.157,-3.1916,-3.2625,-3.3665,-3.4039,-3.4588,-3.533,-3.5545,-3.5681,-3.5935,-3.601,-3.601,-3.601,-3.601,-3.6245,-3.6716,-3.6852,-3.7165,-3.7887,-3.8141,-3.8453,-3.9263,-3.9993,-4.0667,-4.093,-4.11,-4.1114,-4.1103,-4.1097,-4.1117,-4.111,-4.111,-4.111,-4.111,-4.111,-4.111,-4.111,-4.111,-4.111,-4.111,-4.111,-4.111,-4.111,-4.111,-4.111,-4.111,-4.111,-4.111,-4.1103,-4.11,-4.1111,-4.1105,-4.1101,-4.1108,-4.1108,-4.1108,-4.1108,-2.9681,-2.993,-3.006,-3.0274,-3.0485,-3.0568,-3.0757,-3.0925,-3.1112,-3.1295,-3.149,-3.1691,-3.1946,-3.2196,-3.2319,-3.1962,-3.116,-3.1082,-3.1105,-3.1168,-3.1018,-3.1021,-3.1075,-3.119,-3.1276,-3.1279,-3.0919,-3.0452,-3.0129,-2.9975,-2.9981,-3.0096,-2.9924,-2.9806,-2.9893,-2.9959,-3.0038,-3.0068,-3.0094,-3.0123,-3.0204,-3.0204,-3.0204,-3.0204,-3.0213,-3.0202,-3.0267,-3.0336,-3.0402,-3.0466,-3.053,-3.0597,-3.0645,-3.0658,-3.0742,-3.0823,-3.1091,-3.1456,-3.2088,-3.2608,-3.3457,-3.4576,-3.4992,-3.5405,-3.5952,-3.601,-3.601,-3.603,-3.6303,-3.6401,-3.6482,-3.6696,-3.697,-3.7321,-3.7555,-3.8063,-3.884,-3.8977,-3.938,-4.0086,-4.0662,-4.1022,-4.1109,-4.1109,-4.1103,-4.111,-4.111,-4.111,-4.111,-4.111,-4.111,-4.111,-4.111,-4.111,-4.111,-4.111,-4.111,-4.111,-4.111,-4.111,-4.111,-4.111,-4.111,-4.111,-4.111,-4.111,-4.1097,-4.1114,-4.1111,-4.1105,-4.1101,-4.1108,-4.1108,-4.1108,-4.1108,-2.9621,-2.981,-2.9957,-3.0146,-3.0401,-3.0485,-3.0576,-3.075,-3.1026,-3.1173,-3.1291,-3.1596,-3.18,-3.191,-3.2179,-3.2335,-3.2191,-3.1838,-3.1742,-3.1775,-3.1312,-3.1137,-3.1229,-3.1329,-3.1372,-3.1448,-3.1464,-3.1555,-3.1533,-3.0934,-3.0704,-3.0752,-3.0226,-2.9995,-2.9952,-3.0016,-3.0022,-3.0068,-3.0098,-3.0123,-3.0185,-3.0185,-3.0204,-3.0204,-3.0204,-3.0213,-3.0221,-3.0267,-3.0336,-3.039,-3.0469,-3.0558,-3.068,-3.0768,-3.0795,-3.1026,-3.164,-3.2085,-3.2376,-3.3687,-3.4441,-3.4921,-3.5493,-3.5907,-3.5968,-3.601,-3.601,-3.6108,-3.6696,-3.7204,-3.7321,-3.7965,-3.8238,-3.7614,-3.818,-3.8938,-3.9575,-3.9802,-4.011,-4.0833,-4.1095,-4.1109,-4.1117,-4.111,-4.111,-4.111,-4.111,-4.1104,-4.1085,-4.1085,-4.1104,-4.1085,-4.1078,-4.1078,-4.1085,-4.111,-4.111,-4.111,-4.111,-4.111,-4.111,-4.111,-4.111,-4.111,-4.111,-4.111,-4.111,-4.1114,-4.1106,-4.11,-4.1117,-4.1108,-4.1108,-4.1108,-4.1108,-2.9502,-2.9754,-2.9826,-3.0,-3.0274,-3.0401,-3.0534,-3.0701,-3.0807,-3.0992,-3.119,-3.1346,-3.1538,-3.1763,-3.1946,-3.2126,-3.2371,-3.226,-3.2302,-3.2469,-3.2366,-3.2379,-3.2534,-3.2651,-3.2502,-3.219,-3.2203,-3.2035,-3.1737,-3.1496,-3.1499,-3.1495,-3.0902,-3.0603,-3.058,-3.0196,-2.9959,-3.0022,-3.0068,-3.0113,-3.0142,-3.0171,-3.0204,-3.0204,-3.0204,-3.0218,-3.0218,-3.0266,-3.033,-3.0398,-3.0417,-3.0491,-3.0692,-3.1243,-3.161,-3.1702,-3.2441,-3.3243,-3.3799,-3.4321,-3.4978,-3.5435,-3.583,-3.5974,-3.602,-3.6004,-3.6027,-3.6088,-3.6774,-3.7301,-3.7516,-3.8622,-3.9208,-3.9058,-3.9266,-3.9751,-4.0446,-4.0647,-4.0794,-4.1017,-4.1103,-4.1117,-4.111,-4.111,-4.111,-4.1091,-4.1091,-4.1085,-4.1039,-4.1032,-4.1025,-4.1018,-4.1018,-4.1045,-4.1052,-4.1059,-4.1059,-4.1085,-4.1085,-4.111,-4.111,-4.111,-4.111,-4.111,-4.111,-4.111,-4.1117,-4.1109,-4.1106,-4.11,-4.1113,-4.1104,-4.1108,-4.1108,-4.1108,-2.9412,-2.9592,-2.9694,-2.9886,-3.0103,-3.0274,-3.0417,-3.0576,-3.0684,-3.0855,-3.1072,-3.1151,-3.1346,-3.1596,-3.1763,-3.1929,-3.2179,-3.2319,-3.2507,-3.2755,-3.2916,-3.306,-3.3237,-3.337,-3.3281,-3.2967,-3.2948,-3.2797,-3.2447,-3.2297,-3.2265,-3.2247,-3.1684,-3.1205,-3.1016,-3.0579,-3.0286,-3.0064,-3.0053,-3.0098,-3.0109,-3.0171,-3.0204,-3.0204,-3.0204,-3.0204,-3.0218,-3.0226,-3.0279,-3.0343,-3.0383,-3.0595,-3.1014,-3.1601,-3.2069,-3.2555,-3.3232,-3.3998,-3.4561,-3.4909,-3.5315,-3.5792,-3.5938,-3.5986,-3.5994,-3.6013,-3.6075,-3.6508,-3.7273,-3.7897,-3.8362,-3.9431,-4.0212,-4.0294,-4.027,-4.052,-4.1022,-4.11,-4.1089,-4.1103,-4.1117,-4.111,-4.111,-4.111,-4.1104,-4.1065,-4.1065,-4.1052,-4.1006,-4.0999,-4.0984,-4.0976,-4.1003,-4.1011,-4.0991,-4.1006,-4.1013,-4.1059,-4.1085,-4.1104,-4.111,-4.111,-4.111,-4.111,-4.111,-4.111,-4.111,-4.1114,-4.1115,-4.1105,-4.1113,-4.1104,-4.1108,-4.1108,-4.1186,-2.9275,-2.9518,-2.9653,-2.9814,-3.0033,-3.0146,-3.0284,-3.0418,-3.0593,-3.0749,-3.0912,-3.1089,-3.123,-3.1368,-3.1634,-3.18,-3.1873,-3.2196,-3.2422,-3.2557,-3.2755,-3.2948,-3.3158,-3.334,-3.3415,-3.3447,-3.3542,-3.3616,-3.3521,-3.3167,-3.3006,-3.299,-3.2465,-3.186,-3.1431,-3.1166,-3.0707,-3.0241,-3.0114,-3.0083,-3.0094,-3.0157,-3.0204,-3.0204,-3.0204,-3.0204,-3.0204,-3.0218,-3.024,-3.0292,-3.0467,-3.0932,-3.1593,-3.1864,-3.2522,-3.325,-3.4062,-3.4528,-3.4854,-3.5379,-3.5819,-3.586,-3.5904,-3.5934,-3.5981,-3.6005,-3.6298,-3.7019,-3.7882,-3.874,-3.9535,-4.0452,-4.0916,-4.1072,-4.0955,-4.1033,-4.1095,-4.1097,-4.1117,-4.111,-4.111,-4.111,-4.111,-4.111,-4.1059,-4.1032,-4.1006,-4.1018,-4.1003,-4.0996,-4.0996,-4.0988,-4.096,-4.0988,-4.0996,-4.0984,-4.1011,-4.1013,-4.1059,-4.1085,-4.111,-4.111,-4.111,-4.111,-4.111,-4.111,-4.1117,-4.11,-4.1111,-4.1115,-4.1109,-4.1104,-4.1108,-4.1108,-4.142,-2.9167,-2.9473,-2.9518,-2.9726,-2.9973,-3.0146,-3.0284,-3.0402,-3.0493,-3.0643,-3.0775,-3.0905,-3.1072,-3.1269,-3.1462,-3.1668,-3.1837,-3.2054,-3.2267,-3.2405,-3.259,-3.2834,-3.3086,-3.3268,-3.3404,-3.3491,-3.3577,-3.3698,-3.3788,-3.3688,-3.3741,-3.3863,-3.322,-3.2866,-3.2669,-3.1638,-3.1013,-3.0743,-3.0257,-3.0091,-3.0083,-3.0128,-3.0157,-3.0204,-3.0204,-3.0204,-3.0204,-3.0213,-3.0234,-3.0349,-3.1013,-3.1426,-3.1877,-3.2926,-3.3702,-3.4129,-3.4872,-3.5449,-3.5512,-3.5716,-3.5879,-3.5897,-3.5883,-3.5928,-3.5934,-3.5934,-3.6348,-3.7132,-3.7995,-3.8872,-3.9726,-4.0599,-4.1037,-4.1103,-4.1114,-4.1114,-4.1103,-4.111,-4.111,-4.111,-4.111,-4.111,-4.1085,-4.1059,-4.1013,-4.0986,-4.0991,-4.0976,-4.098,-4.0971,-4.0971,-4.0935,-4.0926,-4.0963,-4.0991,-4.098,-4.0996,-4.0979,-4.1013,-4.1059,-4.1085,-4.111,-4.111,-4.111,-4.111,-4.111,-4.1097,-4.1114,-4.1106,-4.1115,-4.1113,-4.1108,-4.1108,-4.1127,-4.1635,-2.9045,-2.9337,-2.9473,-2.9653,-2.9902,-3.0119,-3.0241,-3.0335,-3.0468,-3.0584,-3.07,-3.0807,-3.0935,-3.1112,-3.1325,-3.1479,-3.1688,-3.1893,-3.209,-3.2336,-3.2588,-3.2816,-3.3055,-3.322,-3.3339,-3.3422,-3.3538,-3.3605,-3.3726,-3.386,-3.3998,-3.4025,-3.3799,-3.3564,-3.3245,-3.254,-3.1657,-3.1181,-3.0698,-3.0456,-3.0122,-3.0079,-3.0142,-3.0204,-3.0204,-3.0204,-3.0242,-3.0543,-3.0776,-3.0925,-3.138,-3.1968,-3.2743,-3.3682,-3.4491,-3.4853,-3.5437,-3.5727,-3.5791,-3.5842,-3.5864,-3.5892,-3.5885,-3.5897,-3.5889,-3.5919,-3.6314,-3.7644,-3.8215,-3.9073,-4.014,-4.0836,-4.1064,-4.111,-4.1097,-4.1103,-4.111,-4.111,-4.111,-4.1091,-4.1065,-4.1059,-4.1059,-4.1025,-4.0991,-4.0984,-4.0988,-4.0971,-4.0954,-4.0954,-4.0945,-4.0917,-4.0888,-4.0926,-4.0974,-4.0982,-4.098,-4.0991,-4.1032,-4.1059,-4.1085,-4.111,-4.111,-4.111,-4.111,-4.111,-4.1103,-4.1114,-4.1111,-4.1105,-4.1101,-4.1108,-4.1108,-4.1439,-4.1927,-2.892,-2.9121,-2.9382,-2.9563,-2.9726,-3.0017,-3.0199,-3.0251,-3.041,-3.0551,-3.0675,-3.0692,-3.0814,-3.0958,-3.1168,-3.1308,-3.1479,-3.1726,-3.1982,-3.2284,-3.2588,-3.2848,-3.2979,-3.316,-3.3268,-3.3352,-3.3441,-3.352,-3.3633,-3.3771,-3.3842,-3.3979,-3.4068,-3.3897,-3.3571,-3.3306,-3.2561,-3.1523,-3.1176,-3.0728,-3.0224,-3.0098,-3.0128,-3.0209,-3.0452,-3.0472,-3.0663,-3.1121,-3.1671,-3.179,-3.1801,-3.2699,-3.3968,-3.4199,-3.4711,-3.5322,-3.5549,-3.5659,-3.5745,-3.5763,-3.5807,-3.5864,-3.5885,-3.5885,-3.5885,-3.5917,-3.6565,-3.8207,-3.85,-3.9318,-4.0623,-4.1091,-4.1091,-4.111,-4.1091,-4.1104,-4.1085,-4.1091,-4.111,-4.1085,-4.1013,-4.0986,-4.0979,-4.0984,-4.0988,-4.0988,-4.0971,-4.0954,-4.0945,-4.0917,-4.0917,-4.0907,-4.0888,-4.0888,-4.0936,-4.0965,-4.0971,-4.0996,-4.1052,-4.1085,-4.1085,-4.111,-4.111,-4.111,-4.111,-4.1117,-4.1109,-4.1106,-4.1115,-4.1109,-4.1101,-4.1108,-4.1166,-4.1752,-4.2279,-2.892,-2.9121,-2.9382,-2.9563,-2.9742,-2.9946,-3.0113,-3.0192,-3.0368,-3.0485,-3.0551,-3.0651,-3.0733,-3.0773,-3.1072,-3.1247,-3.1308,-3.1634,-3.1982,-3.2336,-3.2539,-3.2705,-3.2852,-3.3055,-3.3196,-3.3292,-3.3422,-3.3491,-3.3567,-3.3716,-3.3834,-3.3887,-3.4055,-3.4165,-3.4032,-3.3615,-3.2992,-3.2091,-3.1503,-3.0852,-3.0269,-3.0106,-3.0151,-3.0257,-3.082,-3.1178,-3.1369,-3.2019,-3.2764,-3.3291,-3.3523,-3.3752,-3.4216,-3.4802,-3.5226,-3.5437,-3.5574,-3.5618,-3.5649,-3.5689,-3.5745,-3.5807,-3.5842,-3.583,-3.5885,-3.5892,-3.6735,-3.8072,-3.8559,-3.9286,-4.0773,-4.111,-4.1104,-4.1085,-4.1059,-4.1032,-4.1032,-4.1085,-4.1078,-4.1032,-4.1006,-4.0979,-4.0984,-4.0988,-4.0991,-4.0982,-4.0974,-4.0936,-4.0907,-4.0888,-4.0888,-4.0888,-4.0888,-4.0888,-4.0917,-4.0945,-4.0971,-4.0988,-4.1045,-4.111,-4.111,-4.111,-4.111,-4.111,-4.111,-4.1103,-4.1114,-4.1106,-4.11,-4.1113,-4.1121,-4.1202,-4.1439,-4.2045,-4.2825,-2.8889,-2.8998,-2.9321,-2.9534,-2.9653,-2.9902,-3.0087,-3.0199,-3.0359,-3.0443,-3.0526,-3.0609,-3.0651,-3.0733,-3.0952,-3.1112,-3.1269,-3.1614,-3.1982,-3.2301,-3.2489,-3.2639,-3.2805,-3.2979,-3.3104,-3.3232,-3.3334,-3.3422,-3.352,-3.3633,-3.3726,-3.3807,-3.4023,-3.4148,-3.4258,-3.3997,-3.3569,-3.2824,-3.209,-3.1348,-3.0728,-3.0262,-3.0418,-3.0696,-3.1259,-3.1637,-3.2076,-3.2879,-3.349,-3.3964,-3.4412,-3.4668,-3.4712,-3.5152,-3.543,-3.5509,-3.5534,-3.557,-3.5596,-3.5639,-3.5669,-3.5745,-3.5782,-3.5826,-3.5857,-3.5872,-3.6489,-3.7605,-3.8344,-3.9149,-4.0792,-4.1064,-4.1064,-4.1045,-4.1018,-4.0991,-4.1018,-4.1038,-4.1064,-4.1011,-4.0984,-4.0996,-4.098,-4.0963,-4.0954,-4.0945,-4.0945,-4.0907,-4.0907,-4.0888,-4.0888,-4.0888,-4.0888,-4.0907,-4.0907,-4.0945,-4.0982,-4.0988,-4.1018,-4.1059,-4.1085,-4.1091,-4.111,-4.111,-4.111,-4.1109,-4.1106,-4.1115,-4.1105,-4.1097,-4.1166,-4.1322,-4.1791,-4.2611,-4.345,-2.8794,-2.8842,-2.9291,-2.9518,-2.9563,-2.9874,-3.006,-3.0189,-3.0333,-3.0401,-3.0485,-3.0468,-3.0568,-3.0692,-3.0773,-3.0992,-3.1269,-3.1559,-3.1893,-3.2144,-3.237,-3.2573,-3.2773,-3.2884,-3.3011,-3.3104,-3.3244,-3.3382,-3.3462,-3.3559,-3.3671,-3.3762,-3.3902,-3.4067,-3.4197,-3.4344,-3.403,-3.3289,-3.2581,-3.188,-3.1227,-3.0665,-3.0841,-3.1512,-3.2004,-3.2363,-3.2974,-3.3662,-3.4216,-3.4216,-3.4898,-3.5216,-3.532,-3.535,-3.5398,-3.5474,-3.5488,-3.5534,-3.555,-3.5596,-3.5637,-3.5689,-3.5727,-3.5773,-3.5791,-3.5873,-3.6363,-3.7136,-3.7999,-3.9031,-4.0548,-4.0692,-4.0801,-4.0957,-4.0996,-4.0988,-4.0988,-4.0988,-4.0988,-4.0988,-4.0988,-4.0999,-4.0963,-4.0945,-4.0917,-4.0888,-4.0907,-4.0898,-4.0898,-4.0878,-4.0869,-4.0888,-4.0888,-4.0898,-4.0907,-4.0945,-4.0991,-4.0988,-4.1011,-4.1052,-4.1065,-4.1091,-4.111,-4.1117,-4.1103,-4.1114,-4.1111,-4.11,-4.1113,-4.1104,-4.1381,-4.1732,-4.2415,-4.3235,-4.4036,-2.87,-2.8842,-2.9291,-2.9518,-2.9579,-2.977,-3.0033,-3.0205,-3.0248,-3.0316,-3.0468,-3.0468,-3.051,-3.0568,-3.0708,-3.0895,-3.123,-3.1521,-3.1765,-3.1984,-3.2232,-3.2489,-3.2623,-3.2773,-3.2902,-3.306,-3.3201,-3.3322,-3.3422,-3.3502,-3.3587,-3.3689,-3.3868,-3.4016,-3.4117,-3.4269,-3.4113,-3.3527,-3.2824,-3.2071,-3.1557,-3.1282,-3.1534,-3.2378,-3.2978,-3.3452,-3.3853,-3.4522,-3.4999,-3.5037,-3.5152,-3.5223,-3.5273,-3.53,-3.535,-3.5412,-3.546,-3.5515,-3.5509,-3.5565,-3.5601,-3.5626,-3.5639,-3.5659,-3.5708,-3.5785,-3.6209,-3.7,-3.786,-3.8797,-3.977,-4.0027,-4.0346,-4.0715,-4.0971,-4.0963,-4.0982,-4.0954,-4.0945,-4.0954,-4.0974,-4.0974,-4.0936,-4.0907,-4.0878,-4.0869,-4.0878,-4.0878,-4.0868,-4.0858,-4.0828,-4.0848,-4.0858,-4.0878,-4.0898,-4.0945,-4.0991,-4.0988,-4.1011,-4.1032,-4.1065,-4.1085,-4.111,-4.1097,-4.1109,-4.11,-4.1115,-4.1105,-4.1117,-4.1108,-4.1596,-4.2181,-4.2884,-4.3587,-4.4465,-2.8589,-2.8842,-2.9245,-2.9412,-2.9518,-2.977,-3.0033,-3.0205,-3.0238,-3.0307,-3.0443,-3.0468,-3.0468,-3.051,-3.0651,-3.0912,-3.119,-3.1423,-3.1671,-3.1893,-3.2161,-3.2371,-3.2523,-3.2692,-3.2838,-3.2948,-3.3104,-3.3244,-3.3334,-3.3481,-3.3549,-3.3643,-3.3807,-3.3965,-3.4067,-3.4197,-3.418,-3.3768,-3.3235,-3.2693,-3.2335,-3.212,-3.2395,-3.3182,-3.3691,-3.4143,-3.4655,-3.4904,-3.519,-3.5171,-3.519,-3.5226,-3.5242,-3.5239,-3.527,-3.535,-3.5398,-3.546,-3.5495,-3.5534,-3.5572,-3.562,-3.5612,-3.5626,-3.5658,-3.5756,-3.6115,-3.6851,-3.7335,-3.8246,-3.9519,-3.9587,-4.0072,-4.0694,-4.0898,-4.0898,-4.0888,-4.0859,-4.0888,-4.0898,-4.0917,-4.0908,-4.0908,-4.0878,-4.0849,-4.0839,-4.0858,-4.0848,-4.0837,-4.0826,-4.0765,-4.0826,-4.0837,-4.0877,-4.0888,-4.0927,-4.0982,-4.0988,-4.1003,-4.1025,-4.1065,-4.1091,-4.1097,-4.1109,-4.1114,-4.1111,-4.1124,-4.1136,-4.1124,-4.1244,-4.1927,-4.2611,-4.3235,-4.3957,-4.4875,-2.8556,-2.8842,-2.9121,-2.935,-2.9518,-2.9742,-2.9989,-3.0119,-3.0168,-3.0281,-3.0443,-3.0468,-3.0468,-3.051,-3.0692,-3.0895,-3.1151,-3.1346,-3.1576,-3.1746,-3.2001,-3.2232,-3.2422,-3.2626,-3.2805,-3.2902,-3.2993,-3.3183,-3.3322,-3.347,-3.3538,-3.3633,-3.3726,-3.3868,-3.4005,-3.4148,-3.4302,-3.4195,-3.3776,-3.3482,-3.3412,-3.3125,-3.3194,-3.4023,-3.4154,-3.453,-3.5059,-3.5152,-3.519,-3.519,-3.519,-3.519,-3.519,-3.519,-3.5223,-3.5289,-3.5335,-3.5417,-3.546,-3.5482,-3.5509,-3.5566,-3.5584,-3.5601,-3.5623,-3.5715,-3.5959,-3.6561,-3.6794,-3.7308,-3.8559,-3.9189,-3.9693,-4.0333,-4.0662,-4.0807,-4.0818,-4.0818,-4.0818,-4.0848,-4.0848,-4.0867,-4.0848,-4.0858,-4.0828,-4.0798,-4.0826,-4.0784,-4.0773,-4.075,-4.0718,-4.0773,-4.0815,-4.0886,-4.0907,-4.0908,-4.0945,-4.0988,-4.1003,-4.1018,-4.1059,-4.1117,-4.1123,-4.1153,-4.1111,-4.11,-4.1133,-4.1335,-4.1612,-4.1967,-4.2474,-4.3118,-4.3938,-4.466,-4.548,-2.8444,-2.8794,-2.9029,-2.9275,-2.9518,-2.9653,-2.9814,-3.0033,-3.0125,-3.0297,-3.0401,-3.0468,-3.0468,-3.0551,-3.0733,-3.0895,-3.1032,-3.1213,-3.1428,-3.1634,-3.1839,-3.2108,-3.2388,-3.2557,-3.269,-3.2805,-3.2948,-3.3122,-3.3262,-3.3422,-3.3538,-3.3605,-3.3698,-3.386,-3.3965,-3.4099,-3.4274,-3.4263,-3.3752,-3.35,-3.3639,-3.3637,-3.409,-3.4601,-3.4901,-3.499,-3.516,-3.5176,-3.5174,-3.519,-3.519,-3.519,-3.519,-3.519,-3.519,-3.5226,-3.5277,-3.5324,-3.535,-3.5379,-3.5422,-3.5482,-3.5489,-3.5528,-3.5584,-3.562,-3.5712,-3.5695,-3.5871,-3.6415,-3.7471,-3.8102,-3.8829,-3.9691,-4.0416,-4.0668,-4.0776,-4.0742,-4.0742,-4.0742,-4.0761,-4.0784,-4.0784,-4.0796,-4.0807,-4.0784,-4.0773,-4.0718,-4.0706,-4.0681,-4.07,-4.0745,-4.0792,-4.0834,-4.0886,-4.0888,-4.0936,-4.0988,-4.0996,-4.1011,-4.1078,-4.1117,-4.1212,-4.1203,-4.1217,-4.1343,-4.1507,-4.1804,-4.2197,-4.2747,-4.3333,-4.4036,-4.4777,-4.546,-4.6007,-2.8348,-2.8684,-2.8889,-2.9167,-2.9518,-2.9653,-2.983,-3.0006,-3.0147,-3.026,-3.0392,-3.0468,-3.0468,-3.0568,-3.0692,-3.0831,-3.0952,-3.1134,-3.1368,-3.1576,-3.1746,-3.1965,-3.2196,-3.2405,-3.2541,-3.2722,-3.2852,-3.3011,-3.3165,-3.3304,-3.3422,-3.3549,-3.3643,-3.3753,-3.3905,-3.4016,-3.413,-3.4204,-3.4158,-3.4158,-3.4261,-3.4377,-3.4604,-3.4982,-3.5038,-3.511,-3.5164,-3.5198,-3.5176,-3.5193,-3.519,-3.519,-3.519,-3.519,-3.519,-3.519,-3.5226,-3.5258,-3.5289,-3.5335,-3.5364,-3.5379,-3.5407,-3.5435,-3.5509,-3.556,-3.5596,-3.562,-3.5651,-3.6029,-3.6795,-3.7665,-3.8535,-3.9379,-4.0164,-4.05,-4.0694,-4.0681,-4.0668,-4.0668,-4.0681,-4.0694,-4.0725,-4.0725,-4.0725,-4.0694,-4.0668,-4.0655,-4.0642,-4.0629,-4.0662,-4.0726,-4.0745,-4.0761,-4.0826,-4.0877,-4.0927,-4.0971,-4.0996,-4.1011,-4.1078,-4.1142,-4.1393,-4.1681,-4.1924,-4.1991,-4.2038,-4.2295,-4.2728,-4.345,-4.4231,-4.4758,-4.5265,-4.5714,-4.6163,-2.8152,-2.8525,-2.8748,-2.9075,-2.9428,-2.9563,-2.9726,-2.9902,-3.006,-3.0234,-3.0349,-3.0426,-3.0468,-3.051,-3.0651,-3.079,-3.0912,-3.1072,-3.1269,-3.1462,-3.1688,-3.1856,-3.2073,-3.2267,-3.2473,-3.2588,-3.2787,-3.2948,-3.3073,-3.3214,-3.3334,-3.3509,-3.3577,-3.3671,-3.3788,-3.3947,-3.408,-3.425,-3.4439,-3.4551,-3.4672,-3.4791,-3.487,-3.4946,-3.5001,-3.5038,-3.5129,-3.5164,-3.5162,-3.5176,-3.5193,-3.5193,-3.5174,-3.519,-3.519,-3.519,-3.519,-3.5226,-3.5258,-3.5289,-3.5304,-3.532,-3.5315,-3.5364,-3.5427,-3.5495,-3.5534,-3.5566,-3.5566,-3.5907,-3.6517,-3.7398,-3.826,-3.911,-3.994,-4.0293,-4.0588,-4.0602,-4.0615,-4.0629,-4.0629,-4.0621,-4.0635,-4.0654,-4.0654,-4.0602,-4.0588,-4.0593,-4.0574,-4.0574,-4.0621,-4.0668,-4.0694,-4.0725,-4.0796,-4.0858,-4.0907,-4.1002,-4.1027,-4.1225,-4.1416,-4.1655,-4.1944,-4.2251,-4.265,-4.3029,-4.331,-4.3271,-4.3333,-4.4387,-4.5226,-4.5265,-4.5617,-4.6027,-4.6241,-2.7989,-2.8235,-2.8636,-2.892,-2.9167,-2.9382,-2.9608,-2.977,-2.9923,-3.0082,-3.029,-3.0401,-3.0468,-3.051,-3.0609,-3.0733,-3.0912,-3.0992,-3.1134,-3.1329,-3.1542,-3.1746,-3.1965,-3.2179,-3.2439,-3.2573,-3.2722,-3.2852,-3.2979,-3.3104,-3.3286,-3.3462,-3.3549,-3.3671,-3.3788,-3.3921,-3.4099,-3.4288,-3.4473,-3.4583,-3.4666,-3.4768,-3.4887,-3.4926,-3.4965,-3.5001,-3.5039,-3.5075,-3.5147,-3.5181,-3.5198,-3.5196,-3.5193,-3.5174,-3.519,-3.519,-3.519,-3.5209,-3.5226,-3.5277,-3.5293,-3.5308,-3.5304,-3.53,-3.535,-3.535,-3.5379,-3.5468,-3.5488,-3.563,-3.6228,-3.7019,-3.8073,-3.8868,-3.9721,-4.0318,-4.0564,-4.0579,-4.0574,-4.0588,-4.0574,-4.0549,-4.0554,-4.0573,-4.0598,-4.0564,-4.0564,-4.0549,-4.0549,-4.0549,-4.0579,-4.0626,-4.0668,-4.072,-4.0784,-4.0839,-4.0888,-4.109,-4.1221,-4.1602,-4.2,-4.2259,-4.2593,-4.3149,-4.3626,-4.4106,-4.4524,-4.4524,-4.4797,-4.5675,-4.6144,-4.5909,-4.587,-4.6144,-4.628,-2.7825,-2.8103,-2.8396,-2.8779,-2.9121,-2.9382,-2.9563,-2.9697,-2.9923,-3.0125,-3.0307,-3.0417,-3.0485,-3.0526,-3.0551,-3.0651,-3.079,-3.0895,-3.1055,-3.1252,-3.1445,-3.1651,-3.1856,-3.2073,-3.2284,-3.2456,-3.2623,-3.2787,-3.2948,-3.3042,-3.3196,-3.3364,-3.3465,-3.3605,-3.3726,-3.3821,-3.4037,-3.4221,-3.4386,-3.4476,-3.4604,-3.4687,-3.4809,-3.4907,-3.4926,-3.4946,-3.5001,-3.5039,-3.5094,-3.5129,-3.5183,-3.5181,-3.5196,-3.5193,-3.519,-3.519,-3.519,-3.519,-3.519,-3.5226,-3.5226,-3.5261,-3.5293,-3.5308,-3.5289,-3.5304,-3.5335,-3.5364,-3.5398,-3.5523,-3.6349,-3.7267,-3.8174,-3.8858,-3.9565,-4.0277,-4.0508,-4.0504,-4.0504,-4.0504,-4.0492,-4.0463,-4.0463,-4.0482,-4.0511,-4.0539,-4.0539,-4.0539,-4.0523,-4.0539,-4.0549,-4.0593,-4.0621,-4.072,-4.0784,-4.0818,-4.0849,-4.1159,-4.1463,-4.2031,-4.2565,-4.3025,-4.3417,-4.4012,-4.4528,-4.491,-4.5285,-4.5656,-4.5968,-4.6202,-4.628,-4.6241,-4.6261,-4.63,-4.63,-2.769,-2.7955,-2.8201,-2.8573,-2.8998,-2.9291,-2.9457,-2.9653,-2.983,-3.0092,-3.0333,-3.0359,-3.0443,-3.0468,-3.051,-3.0551,-3.0733,-3.0871,-3.0992,-3.1151,-3.1329,-3.1576,-3.1763,-3.1946,-3.2161,-3.2354,-3.2473,-3.2623,-3.2852,-3.2979,-3.2924,-3.2931,-3.3089,-3.312,-3.3241,-3.3485,-3.3765,-3.4117,-3.4269,-3.4409,-3.4517,-3.4623,-3.4708,-3.4809,-3.4849,-3.4888,-3.4946,-3.4983,-3.502,-3.5076,-3.5111,-3.5147,-3.5181,-3.5179,-3.5193,-3.5174,-3.519,-3.519,-3.519,-3.519,-3.519,-3.5209,-3.5245,-3.5261,-3.5277,-3.5273,-3.5289,-3.5304,-3.5358,-3.5665,-3.6527,-3.7383,-3.8223,-3.8911,-3.9794,-4.0463,-4.0447,-4.0447,-4.0447,-4.043,-4.0415,-4.0432,-4.0432,-4.0432,-4.043,-4.0476,-4.0511,-4.0511,-4.0511,-4.0508,-4.0534,-4.0559,-4.0588,-4.0681,-4.0784,-4.0807,-4.0946,-4.1643,-4.1996,-4.2615,-4.3169,-4.3668,-4.4334,-4.5002,-4.5445,-4.5711,-4.587,-4.6027,-4.6144,-4.6261,-4.63,-4.63,-4.63,-4.63,-4.63,-2.7554,-2.779,-2.8103,-2.8444,-2.8842,-2.9045,-2.9275,-2.9502,-2.9661,-2.9908,-3.0182,-3.03,-3.0401,-3.0485,-3.0485,-3.0551,-3.0692,-3.0831,-3.0952,-3.1072,-3.1235,-3.1428,-3.1596,-3.1783,-3.2018,-3.2336,-3.2457,-3.2574,-3.2805,-3.2706,-3.2527,-3.2211,-3.2187,-3.231,-3.242,-3.2651,-3.3216,-3.3969,-3.4173,-3.4293,-3.4427,-3.4539,-3.4623,-3.4708,-3.4768,-3.4809,-3.4887,-3.4907,-3.4946,-3.5002,-3.5039,-3.5075,-3.5164,-3.5181,-3.5179,-3.5193,-3.5174,-3.519,-3.519,-3.519,-3.519,-3.519,-3.5226,-3.5209,-3.5209,-3.519,-3.5223,-3.5273,-3.5293,-3.5768,-3.6549,-3.737,-3.8194,-3.9172,-4.0072,-4.0398,-4.0398,-4.0379,-4.0379,-4.0381,-4.0381,-4.0398,-4.0398,-4.0398,-4.036,-4.0394,-4.0447,-4.0482,-4.0499,-4.0511,-4.0534,-4.0559,-4.0602,-4.0681,-4.0773,-4.0796,-4.1071,-4.1818,-4.2541,-4.316,-4.389,-4.4571,-4.5245,-4.5938,-4.605,-4.6046,-4.6144,-4.628,-4.63,-4.63,-4.63,-4.63,-4.63,-4.63,-4.63,-2.7423,-2.7675,-2.794,-2.825,-2.8589,-2.8967,-2.9167,-2.9275,-2.9576,-2.987,-3.007,-3.0189,-3.0333,-3.0417,-3.0501,-3.051,-3.0593,-3.0831,-3.0952,-3.0992,-3.1157,-3.1351,-3.1521,-3.1709,-3.1946,-3.2161,-3.2319,-3.2473,-3.2672,-3.2378,-3.2192,-3.1912,-3.122,-3.1445,-3.219,-3.2695,-3.3172,-3.3901,-3.4148,-3.4245,-3.4358,-3.4427,-3.4517,-3.4623,-3.4666,-3.4727,-3.4827,-3.4849,-3.4888,-3.4946,-3.4965,-3.5039,-3.5111,-3.5129,-3.5181,-3.5196,-3.5176,-3.519,-3.519,-3.519,-3.519,-3.519,-3.519,-3.519,-3.519,-3.519,-3.519,-3.5207,-3.5226,-3.5892,-3.7116,-3.7477,-3.828,-3.9581,-4.0327,-4.0327,-4.0327,-4.0326,-4.0344,-4.0346,-4.0347,-4.0346,-4.0346,-4.0363,-4.0342,-4.0377,-4.043,-4.0479,-4.0495,-4.0508,-4.0519,-4.0559,-4.0602,-4.0681,-4.0781,-4.1009,-4.1461,-4.2216,-4.2988,-4.3685,-4.4462,-4.5292,-4.5674,-4.6108,-4.6206,-4.63,-4.63,-4.63,-4.63,-4.63,-4.63,-4.63,-4.63,-4.63,-4.63,-2.7284,-2.7539,-2.779,-2.8005,-2.8299,-2.8779,-2.9045,-2.9275,-2.9547,-2.9814,-2.9973,-3.0103,-3.0231,-3.0375,-3.0443,-3.0485,-3.051,-3.0733,-3.0871,-3.0912,-3.1095,-3.1274,-3.1428,-3.1614,-3.18,-3.2001,-3.2144,-3.2283,-3.208,-3.1799,-3.1416,-3.0851,-3.0178,-3.068,-3.1521,-3.2192,-3.2808,-3.3585,-3.4074,-3.4173,-3.4264,-3.4358,-3.4427,-3.4495,-3.4561,-3.4623,-3.4727,-3.4788,-3.4829,-3.4868,-3.4927,-3.4964,-3.502,-3.5075,-3.5147,-3.5162,-3.5176,-3.5174,-3.519,-3.519,-3.519,-3.519,-3.519,-3.519,-3.519,-3.519,-3.519,-3.519,-3.519,-3.6165,-3.7273,-3.7578,-3.84,-3.9717,-4.031,-4.031,-4.031,-4.0309,-4.0309,-4.031,-4.031,-4.031,-4.031,-4.0309,-4.0326,-4.0379,-4.043,-4.0479,-4.0492,-4.0508,-4.0519,-4.0559,-4.0615,-4.0681,-4.0994,-4.1427,-4.1956,-4.2641,-4.3416,-4.4203,-4.5027,-4.5819,-4.6039,-4.6211,-4.6269,-4.63,-4.63,-4.63,-4.63,-4.63,-4.63,-4.63,-4.63,-4.63,-4.63,-2.7086,-2.7342,-2.7464,-2.767,-2.7947,-2.8372,-2.8872,-2.9441,-2.9608,-2.977,-2.9973,-2.9973,-3.0162,-3.0375,-3.0417,-3.0443,-3.0526,-3.0651,-3.0773,-3.0912,-3.1032,-3.1157,-3.1312,-3.1462,-3.1688,-3.1819,-3.1898,-3.1724,-3.1381,-3.1097,-3.0582,-2.9817,-2.9228,-2.9908,-3.0775,-3.1591,-3.2445,-3.3515,-3.3972,-3.4074,-3.4191,-3.4245,-3.4335,-3.4404,-3.445,-3.4517,-3.4583,-3.4666,-3.4749,-3.4829,-3.4887,-3.4946,-3.4983,-3.5001,-3.5075,-3.5145,-3.5176,-3.5193,-3.519,-3.519,-3.519,-3.519,-3.519,-3.519,-3.519,-3.519,-3.519,-3.519,-3.5248,-3.6317,-3.7311,-3.7846,-3.8419,-3.9374,-4.0215,-4.031,-4.031,-4.031,-4.031,-4.031,-4.031,-4.031,-4.0308,-4.0325,-4.0344,-4.0415,-4.0466,-4.0463,-4.0511,-4.0508,-4.0519,-4.0574,-4.0615,-4.0668,-4.1059,-4.1563,-4.2354,-4.2991,-4.3934,-4.4748,-4.5572,-4.6105,-4.6162,-4.6211,-4.6269,-4.6296,-4.63,-4.63,-4.63,-4.63,-4.63,-4.63,-4.63,-4.63,-4.63,-2.5747,-2.5878,-2.6087,-2.6264,-2.65,-2.6949,-2.7889,-2.915,-2.9473,-2.9637,-2.977,-2.993,-2.9989,-3.0231,-3.0375,-3.0426,-3.0526,-3.0651,-3.079,-3.0871,-3.0992,-3.1117,-3.1274,-3.1462,-3.1614,-3.1576,-3.1462,-3.1236,-3.0979,-3.0588,-2.969,-2.8793,-2.8706,-2.9414,-3.0214,-3.1027,-3.2357,-3.3408,-3.3828,-3.3972,-3.4067,-3.4124,-3.4216,-3.4269,-3.4335,-3.4404,-3.4473,-3.4561,-3.4645,-3.4687,-3.4848,-3.4926,-3.4926,-3.4983,-3.5038,-3.5164,-3.5179,-3.5196,-3.5193,-3.519,-3.519,-3.519,-3.519,-3.519,-3.519,-3.519,-3.519,-3.519,-3.5267,-3.6126,-3.7158,-3.7846,-3.8685,-3.9623,-4.0272,-4.0329,-4.0329,-4.0329,-4.0329,-4.031,-4.0328,-4.0326,-4.0323,-4.0379,-4.0415,-4.0449,-4.0482,-4.0499,-4.0495,-4.0508,-4.0534,-4.0574,-4.0635,-4.0675,-4.1098,-4.1613,-4.251,-4.3383,-4.4353,-4.5176,-4.5787,-4.6164,-4.6201,-4.6236,-4.6273,-4.6296,-4.63,-4.63,-4.63,-4.63,-4.63,-4.63,-4.63,-4.63,-4.63,-2.5106,-2.5173,-2.5349,-2.5585,-2.5863,-2.6228,-2.7084,-2.7995,-2.8421,-2.8686,-2.886,-2.8968,-2.929,-2.9688,-2.9831,-3.0046,-3.0443,-3.0568,-3.0692,-3.0871,-3.0868,-3.1095,-3.1252,-3.1338,-3.1316,-3.1227,-3.0941,-3.0645,-3.0211,-2.9503,-2.8639,-2.8505,-2.851,-2.9134,-2.9988,-3.0903,-3.195,-3.2989,-3.3674,-3.3865,-3.3972,-3.4042,-3.4099,-3.4148,-3.424,-3.4293,-3.4363,-3.4473,-3.4558,-3.4602,-3.4747,-3.4809,-3.4887,-3.4965,-3.502,-3.5127,-3.5181,-3.5179,-3.5193,-3.519,-3.519,-3.519,-3.519,-3.519,-3.519,-3.519,-3.519,-3.5209,-3.5362,-3.5763,-3.6833,-3.7902,-3.8991,-4.008,-4.0213,-4.0346,-4.0346,-4.0346,-4.0327,-4.0308,-4.0325,-4.0323,-4.0377,-4.0413,-4.0449,-4.0479,-4.0495,-4.0492,-4.0492,-4.0508,-4.0534,-4.0574,-4.0621,-4.07,-4.1176,-4.1768,-4.282,-4.3821,-4.482,-4.5574,-4.6059,-4.6203,-4.6226,-4.624,-4.6253,-4.6277,-4.63,-4.63,-4.63,-4.63,-4.63,-4.63,-4.63,-4.63,-4.63,-2.4786,-2.4901,-2.5059,-2.5176,-2.5636,-2.5938,-2.6178,-2.6284,-2.6722,-2.7158,-2.7538,-2.7662,-2.8207,-2.8811,-2.9001,-2.9403,-2.9758,-2.9996,-3.0125,-3.0711,-3.0426,-3.051,-3.0738,-3.113,-3.068,-3.0516,-3.0231,-2.9725,-2.8886,-2.8435,-2.8397,-2.8398,-2.8458,-2.892,-2.9696,-3.075,-3.1686,-3.2412,-3.3345,-3.3887,-3.3895,-3.3947,-3.4023,-3.4074,-3.4148,-3.424,-3.4269,-3.4381,-3.445,-3.4539,-3.4623,-3.4708,-3.4849,-3.4946,-3.502,-3.5075,-3.5147,-3.5181,-3.5176,-3.5174,-3.519,-3.519,-3.519,-3.519,-3.519,-3.519,-3.519,-3.519,-3.5324,-3.6105,-3.7154,-3.7802,-3.8718,-3.9771,-4.0306,-4.0363,-4.0363,-4.0363,-4.0362,-4.0342,-4.0379,-4.0394,-4.0408,-4.0444,-4.0479,-4.0492,-4.0489,-4.0489,-4.0489,-4.0504,-4.0549,-4.0574,-4.0621,-4.0758,-4.1265,-4.1992,-4.3209,-4.4258,-4.517,-4.5768,-4.6137,-4.6228,-4.6236,-4.6249,-4.6277,-4.628,-4.63,-4.63,-4.63,-4.63,-4.63,-4.63,-4.63,-4.63,-4.63,-2.3458,-2.358,-2.3792,-2.4015,-2.4176,-2.4453,-2.4698,-2.4837,-2.502,-2.5921,-2.7063,-2.7458,-2.7687,-2.7972,-2.8168,-2.8526,-2.8761,-2.9145,-2.9054,-2.9293,-2.9381,-2.9664,-2.9617,-2.9901,-2.9668,-2.9417,-2.9145,-2.8754,-2.822,-2.8063,-2.8136,-2.8318,-2.8406,-2.8778,-2.9344,-3.0469,-3.1459,-3.2056,-3.3136,-3.3797,-3.386,-3.3887,-3.3947,-3.3998,-3.4049,-3.4124,-3.4197,-3.4288,-3.4316,-3.4386,-3.4539,-3.4687,-3.4887,-3.4888,-3.4946,-3.502,-3.5092,-3.5147,-3.5198,-3.5193,-3.519,-3.519,-3.519,-3.519,-3.519,-3.519,-3.519,-3.5226,-3.5551,-3.6446,-3.7302,-3.7816,-3.8482,-3.9478,-4.0396,-4.0396,-4.0415,-4.0396,-4.0394,-4.0411,-4.0447,-4.0444,-4.0457,-4.0473,-4.0489,-4.0489,-4.0489,-4.0489,-4.0523,-4.0539,-4.0549,-4.0593,-4.0607,-4.0816,-4.1342,-4.2167,-4.3373,-4.4317,-4.517,-4.571,-4.6176,-4.6209,-4.6236,-4.6273,-4.63,-4.63,-4.63,-4.63,-4.63,-4.63,-4.63,-4.63,-4.63,-4.63,-4.63,-2.2947,-2.3037,-2.329,-2.3451,-2.3566,-2.3797,-2.4024,-2.4193,-2.4359,-2.4984,-2.5916,-2.6316,-2.6703,-2.7106,-2.7355,-2.7725,-2.7997,-2.8295,-2.8528,-2.8615,-2.8561,-2.8874,-2.8921,-2.8931,-2.8884,-2.8699,-2.8265,-2.7896,-2.7712,-2.7911,-2.8081,-2.8264,-2.8371,-2.8691,-2.9275,-3.0516,-3.1441,-3.1957,-3.3193,-3.3697,-3.3807,-3.386,-3.3887,-3.3921,-3.3972,-3.4049,-3.4124,-3.4197,-3.4245,-3.434,-3.4495,-3.4645,-3.4788,-3.4868,-3.4907,-3.4964,-3.5057,-3.5129,-3.5181,-3.5196,-3.5174,-3.519,-3.5209,-3.5209,-3.5261,-3.5261,-3.5242,-3.5258,-3.5277,-3.6023,-3.7258,-3.798,-3.8879,-3.9874,-4.0312,-4.046,-4.046,-4.046,-4.0441,-4.0441,-4.0476,-4.0476,-4.0489,-4.0489,-4.0489,-4.0489,-4.0489,-4.0489,-4.0504,-4.0534,-4.0564,-4.0607,-4.0621,-4.1036,-4.1676,-4.2516,-4.3518,-4.4404,-4.5159,-4.5726,-4.619,-4.6195,-4.6216,-4.6273,-4.63,-4.63,-4.63,-4.63,-4.63,-4.63,-4.63,-4.63,-4.63,-4.63,-4.63,-2.2902,-2.2933,-2.3157,-2.3363,-2.3509,-2.3711,-2.3839,-2.4024,-2.4193,-2.44,-2.4714,-2.4957,-2.5521,-2.6133,-2.6539,-2.7118,-2.7486,-2.7493,-2.786,-2.8044,-2.8172,-2.8115,-2.8241,-2.8503,-2.8202,-2.7997,-2.7676,-2.7625,-2.7587,-2.7806,-2.8025,-2.8182,-2.8488,-2.8863,-2.9816,-3.0727,-3.1524,-3.2344,-3.3221,-3.3715,-3.3807,-3.3807,-3.3834,-3.3887,-3.3895,-3.3972,-3.403,-3.4124,-3.4191,-3.4293,-3.445,-3.4561,-3.4706,-3.4807,-3.4868,-3.4927,-3.5002,-3.5094,-3.5164,-3.5179,-3.5193,-3.519,-3.5209,-3.5245,-3.5296,-3.5293,-3.5293,-3.5308,-3.5327,-3.5937,-3.7172,-3.8124,-3.9061,-4.0038,-4.0319,-4.0489,-4.0489,-4.0489,-4.0489,-4.0489,-4.0489,-4.0489,-4.0489,-4.0489,-4.0489,-4.0489,-4.0489,-4.0489,-4.0504,-4.0549,-4.0593,-4.0621,-4.0681,-4.1209,-4.1757,-4.2748,-4.3654,-4.4297,-4.5012,-4.5682,-4.6183,-4.6206,-4.624,-4.6273,-4.63,-4.63,-4.63,-4.63,-4.63,-4.63,-4.63,-4.63,-4.63,-4.63,-4.63,-2.2841,-2.2947,-2.3082,-2.3201,-2.3363,-2.3566,-2.3739,-2.3882,-2.4109,-2.4276,-2.4426,-2.4589,-2.5037,-2.5525,-2.5734,-2.6151,-2.6515,-2.6611,-2.6598,-2.6695,-2.7136,-2.709,-2.7195,-2.7588,-2.7284,-2.7228,-2.7319,-2.739,-2.7539,-2.7748,-2.7922,-2.8109,-2.8318,-2.8873,-2.9826,-3.0737,-3.167,-3.2564,-3.3276,-3.3807,-3.3807,-3.3807,-3.3807,-3.3834,-3.3887,-3.3947,-3.3998,-3.4074,-3.4167,-3.4245,-3.4363,-3.4495,-3.4623,-3.4745,-3.4827,-3.4888,-3.4965,-3.5039,-3.511,-3.5181,-3.5196,-3.5209,-3.5245,-3.5277,-3.5308,-3.5304,-3.532,-3.5383,-3.5595,-3.6266,-3.7275,-3.7809,-3.8666,-3.9838,-4.0489,-4.0489,-4.0489,-4.0489,-4.0489,-4.0489,-4.0489,-4.0489,-4.0489,-4.0489,-4.0489,-4.0489,-4.0489,-4.0489,-4.0504,-4.0549,-4.0588,-4.0635,-4.0694,-4.0757,-4.1078,-4.2632,-4.3635,-4.4268,-4.4943,-4.5728,-4.6189,-4.6255,-4.6269,-4.6296,-4.63,-4.63,-4.63,-4.63,-4.63,-4.63,-4.63,-4.63,-4.63,-4.63,-4.63]}]]